[[{"header":{"parameterUnit":"m.s-1","parameterCategory":1,"la1":30.6,"la2":28.766,"lo1":-90.7593,"lo2":-88.6598,"dy":0.0162,"dx":0.0183,"nx":116,"ny":114,"refTime":"2024-06-23T00:00:00:Z","depth":0,"parameterNumber":2,"parameterNumberName":"U-component_of_WINDS"},"data":[0.0,0.0,0.0,0.0,0.0,0.0,0.0,0.0,0.0,0.0,0.0,0.0,0.0,0.0,0.0,0.0,0.0,0.0,0.0,0.0,0.0,0.0,0.0,0.0,0.0,0.0,0.0,0.0,0.0,0.0,0.0,0.0,0.0,0.0,0.0,0.0,0.0,0.0,0.0,0.0,0.0,0.0,0.0,0.0,0.0,0.0,0.0,0.0,0.0,0.0,0.0,0.0,0.0,0.0,0.0,0.0,0.0,0.0,0.0,0.0,0.0,0.0,0.0,0.0,0.0,0.0,0.0,0.0,0.0,0.0,0.0,0.0,0.0,0.0,0.0,0.0,0.0,0.0,0.0,0.0,0.0,0.0,0.0,0.0,0.0,0.0,0.0,0.0,0.0,0.0,0.0,0.0,0.0,0.0,0.0,0.0,0.0,0.0,0.0,0.0,0.0,0.0,0.0,0.0,0.0,0.0,0.0,0.0,0.0,0.0,0.0,0.0,0.0,0.0,0.0,0.0,0.0,0.0,0.0,0.0,0.0,0.0,0.0,0.0,0.0,0.0,0.0,0.0,0.0,0.0,0.0,0.0,0.0,0.0,0.0,0.0,0.0,0.0,0.0,0.0,0.0,0.0,0.0,0.0,0.0,0.0,0.0,0.0,0.0,0.0,0.0,0.0,0.0,0.0,0.0,0.0,0.0,0.0,0.0,0.0,0.0,0.0,0.0,0.0,0.0,0.0,0.0,0.0,0.0,0.0,0.0,0.0,0.0,0.0,0.0,0.0,0.0,0.0,0.0,0.0,0.0,0.0,0.0,0.0,0.0,0.0,0.0,0.0,0.0,0.0,0.0,0.0,0.0,0.0,0.0,0.0,0.0,0.0,0.0,0.0,0.0,0.0,0.0,0.0,0.0,0.0,0.0,0.0,0.0,0.0,0.0,0.0,0.0,0.0,0.0,0.0,0.0,0.0,0.0,0.0,0.0,0.0,0.0,0.0,0.0,0.0,0.0,0.0,0.0,0.0,0.0,0.0,0.0,0.0,0.0,0.0,0.0,0.0,0.0,0.0,0.0,0.0,0.0,0.0,0.0,0.0,0.0,0.0,0.0,0.0,0.0,0.0,0.0,0.0,0.0,0.0,0.0,0.0,0.0,0.0,0.0,0.0,0.0,0.0,0.0,0.0,0.0,0.0,0.0,0.0,0.0,0.0,0.0,0.0,0.0,0.0,0.0,0.0,0.0,0.0,0.0,0.0,0.0,0.0,0.0,0.0,0.0,0.0,0.0,0.0,0.0,0.0,0.0,0.0,0.0,0.0,0.0,0.0,0.0,0.0,0.0,0.0,0.0,0.0,0.0,0.0,0.0,0.0,0.0,0.0,0.0,0.0,0.0,0.0,0.0,0.0,0.0,0.0,0.0,0.0,0.0,0.0,0.0,0.0,0.0,0.0,0.0,0.0,0.0,0.0,0.0,0.0,0.0,0.0,0.0,0.0,0.0,0.0,0.0,0.0,0.0,0.0,0.0,0.0,0.0,0.0,0.0,0.0,0.0,0.0,0.0,0.0,0.0,0.0,0.0,0.0,0.0,0.0,0.0,0.0,0.0,0.0,0.0,0.0,0.0,0.0,0.0,0.0,0.0,0.0,0.0,0.0,0.0,0.0,0.0,0.0,0.0,0.0,0.0,0.0,0.0,0.0,0.0,0.0,0.0,0.0,0.0,0.0,0.0,0.0,0.0,0.0,0.0,0.0,0.0,0.0,0.0,0.0,0.0,0.0,0.0,0.0,0.0,0.0,0.0,0.0,0.0,0.0,0.0,0.0,0.0,0.0,0.0,0.0,0.0,0.0,0.0,0.0,0.0,0.0,0.0,0.0,0.0,0.0,0.0,0.0,0.0,0.0,0.0,0.0,0.0,0.0,0.0,0.0,0.0,0.0,0.0,0.0,0.0,0.0,0.0,0.0,0.0,0.0,0.0,0.0,0.0,0.0,0.0,0.0,0.0,0.0,0.0,0.0,0.0,0.0,0.0,0.0,0.0,0.0,0.0,0.0,0.0,0.0,0.0,0.0,0.0,0.0,0.0,0.0,0.0,0.0,0.0,0.0,0.0,0.0,0.0,0.0,0.0,0.0,0.0,0.0,0.0,0.0,0.0,0.0,0.0,0.0,0.0,0.0,0.0,0.0,0.0,0.0,0.0,0.0,0.0,0.0,0.0,0.0,0.0,0.0,0.0,0.0,0.0,0.0,0.0,0.0,0.0,0.0,0.0,0.0,0.0,0.0,0.0,0.0,0.0,0.0,0.0,0.0,0.0,0.0,0.0,0.0,0.0,0.0,0.0,0.0,0.0,0.0,0.0,0.0,0.0,0.0,0.0,0.0,0.0,0.0,0.0,0.0,0.0,0.0,0.0,0.0,0.0,0.0,0.0,0.0,0.0,0.0,0.0,0.0,0.0,0.0,0.0,0.0,0.0,0.0,0.0,0.0,0.0,0.0,0.0,0.0,0.0,0.0,0.0,0.0,0.0,0.0,0.0,0.0,0.0,0.0,0.0,0.0,0.0,0.0,0.0,0.0,0.0,0.0,0.0,0.0,0.0,0.0,0.0,0.0,0.0,0.0,0.0,0.0,0.0,0.0,0.0,0.0,0.0,0.0,0.0,0.0,0.0,0.0,0.0,0.0,0.0,0.0,0.0,0.0,0.0,0.0,0.0,0.0,0.0,0.0,0.0,0.0,0.0,0.0,0.0,0.0,0.0,0.0,0.0,0.0,0.0,0.0,0.0,0.0,0.0,0.0,0.0,0.0,0.0,0.0,0.0,0.0,0.0,0.0,0.0,0.0,0.0,0.0,0.0,0.0,0.0,0.0,0.0,0.0,0.0,0.0,0.0,0.0,0.0,0.0,0.0,0.0,0.0,0.0,0.0,0.0,0.0,0.0,0.0,0.0,0.0,0.0,0.0,0.0,0.0,0.0,0.0,0.0,0.0,0.0,0.0,0.0,0.0,0.0,0.0,0.0,0.0,0.0,0.0,0.0,0.0,0.0,0.0,0.0,0.0,0.0,0.0,0.0,0.0,0.0,0.0,0.0,0.0,0.0,0.0,0.0,0.0,0.0,0.0,0.0,0.0,0.0,0.0,0.0,0.0,0.0,0.0,0.0,0.0,0.0,0.0,0.0,0.0,0.0,0.0,0.0,0.0,0.0,0.0,0.0,0.0,0.0,0.0,0.0,0.0,0.0,0.0,0.0,0.0,0.0,0.0,0.0,0.0,0.0,0.0,0.0,0.0,0.0,0.0,0.0,0.0,0.0,0.0,0.0,0.0,0.0,0.0,0.0,0.0,0.0,0.0,0.0,0.0,0.0,0.0,0.0,0.0,0.0,0.0,0.0,0.0,0.0,0.0,0.0,0.0,0.0,0.0,0.0,0.0,0.0,0.0,0.0,0.0,0.0,0.0,0.0,0.0,0.0,0.0,0.0,0.0,0.0,0.0,0.0,0.0,0.0,0.0,0.0,0.0,0.0,0.0,0.0,0.0,0.0,0.0,0.0,0.0,0.0,0.0,0.0,0.0,0.0,0.0,0.0,0.0,0.0,0.0,0.0,0.0,0.0,0.0,0.0,0.0,0.0,0.0,0.0,0.0,0.0,0.0,0.0,0.0,0.0,0.0,0.0,0.0,0.0,0.0,0.0,0.0,0.0,0.0,0.0,0.0,0.0,0.0,0.0,0.0,0.0,0.0,0.0,0.0,0.0,0.0,0.0,0.0,0.0,0.0,0.0,0.0,0.0,0.0,0.0,0.0,0.0,0.0,0.0,0.0,0.0,0.0,0.0,0.0,0.0,0.0,0.0,0.0,0.0,0.0,0.0,0.0,0.0,0.0,0.0,0.0,0.0,0.0,0.0,0.0,0.0,0.0,0.0,0.0,0.0,0.0,0.0,0.0,0.0,0.0,0.0,0.0,0.0,0.0,0.0,0.0,0.0,0.0,0.0,0.0,0.0,0.0,0.0,0.0,0.0,0.0,0.0,0.0,0.0,0.0,0.0,0.0,0.0,0.0,0.0,0.0,0.0,0.0,0.0,0.0,0.0,0.0,0.0,0.0,0.0,0.0,0.0,0.0,0.0,0.0,0.0,0.0,0.0,0.0,0.0,0.0,0.0,0.0,0.0,0.0,0.0,0.0,0.0,0.0,0.0,0.0,0.0,0.0,0.0,0.0,0.0,0.0,0.0,0.0,0.0,0.0,0.0,0.0,0.0,0.0,0.0,0.0,0.0,0.0,0.0,0.0,0.0,0.0,0.0,0.0,0.0,0.0,0.0,0.0,0.0,0.0,0.0,0.0,0.0,0.0,0.0,0.0,0.0,0.0,0.0,0.0,0.0,0.0,0.0,0.0,0.0,0.0,0.0,0.0,0.0,0.0,0.0,0.0,0.0,0.0,0.0,0.0,0.0,0.0,0.0,0.0,0.0,0.0,0.0,0.0,0.0,0.0,0.0,0.0,0.0,0.0,0.0,0.0,0.0,0.0,0.0,0.0,0.0,0.0,0.0,0.0,0.0,0.0,0.0,0.0,0.0,0.0,0.0,0.0,0.0,0.0,0.0,0.0,0.0,0.0,0.0,0.0,0.0,0.0,0.0,0.0,0.0,0.0,0.0,0.0,0.0,0.0,0.0,0.0,0.0,0.0,0.0,0.0,0.0,0.0,0.0,0.0,0.0,0.0,0.0,0.0,0.0,0.0,0.0,0.0,0.0,0.0,0.0,0.0,0.0,0.0,0.0,0.0,0.0,0.0,0.0,0.0,0.0,0.0,0.0,0.0,0.0,0.0,0.0,0.0,0.0,0.0,0.0,0.0,0.0,0.0,0.0,0.0,0.0,0.0,0.0,0.0,0.0,0.0,0.0,0.0,0.0,0.0,0.0,0.0,0.0,0.0,0.0,0.0,0.0,0.0,0.0,0.0,0.0,0.0,0.0,0.0,0.0,0.0,0.0,0.0,0.0,0.0,0.0,0.0,0.0,0.0,0.0,0.0,0.0,0.0,0.0,0.0,0.0,0.0,0.0,0.0,0.0,0.0,0.0,0.0,0.0,0.0,0.0,0.0,0.0,0.0,0.0,0.0,0.0,0.0,0.0,0.0,0.0,0.0,0.0,0.0,0.0,0.0,0.0,0.0,0.0,0.0,0.0,0.0,0.0,0.0,0.0,0.0,0.0,0.0,0.0,0.0,0.0,0.0,0.0,0.0,0.0,0.0,0.0,0.0,0.0,0.0,0.0,0.0,0.0,0.0,0.0,0.0,0.0,0.0,0.0,0.0,0.0,0.0,0.0,0.0,0.0,0.0,0.0,0.0,0.0,0.0,0.0,0.0,0.0,0.0,0.0,0.0,0.0,0.0,0.0,0.0,0.0,0.0,0.0,0.0,0.0,0.0,0.0,0.0,0.0,0.0,0.0,0.0,0.0,0.0,0.0,0.0,0.0,0.0,0.0,0.0,0.0,0.0,0.0,0.0,0.0,0.0,0.0,0.0,0.0,0.0,0.0,0.0,0.0,0.0,0.0,0.0,0.0,0.0,0.0,0.0,0.0,0.0,0.0,0.0,0.0,0.0,0.0,0.0,0.0,0.0,0.0,0.0,0.0,0.0,0.0,0.0,0.0,0.0,0.0,0.0,0.0,0.0,0.0,0.0,0.0,0.0,0.0,0.0,0.0,0.0,0.0,0.0,0.0,0.0,0.0,0.0,0.0,0.0,0.0,0.0,0.0,0.0,0.0,0.0,0.0,0.0,0.0,0.0,0.0,0.0,0.0,0.0,0.0,0.0,0.0,0.0,0.0,0.0,0.0,0.0,0.0,0.0,0.0,0.0,0.0,0.0,0.0,0.0,0.0,0.0,0.0,0.0,0.0,0.0,0.0,0.0,0.0,0.0,0.0,0.0,0.0,0.0,0.0,0.0,0.0,0.0,0.0,0.0,0.0,0.0,0.0,0.0,0.0,0.0,0.0,0.0,0.0,0.0,0.0,0.0,0.0,0.0,0.0,0.0,0.0,0.0,0.0,0.0,0.0,0.0,0.0,0.0,0.0,0.0,0.0,0.0,0.0,0.0,0.0,0.0,0.0,-2.6837,0.0,0.0,0.0,0.0,0.0,0.0,0.0,0.0,0.0,0.0,0.0,0.0,0.0,0.0,0.0,0.0,0.0,0.0,0.0,0.0,0.0,0.0,0.0,0.0,-1.3024,-1.4073,-1.4437,-1.4454,-1.4623,-1.4994,-1.5037,-1.5206,-1.5578,-1.5595,-1.5595,-1.5595,-1.5595,-1.5764,-1.613,-1.6874,-1.7788,-1.8855,-1.8826,-1.8048,-1.6661,0.0,0.0,0.0,0.0,0.0,0.0,0.0,0.0,0.0,0.0,0.0,0.0,0.0,0.0,0.0,0.0,0.0,0.0,0.0,0.0,0.0,0.0,0.0,0.0,0.0,0.0,0.0,0.0,0.0,0.0,0.0,0.0,0.0,0.0,0.0,0.0,0.0,0.0,0.0,0.0,0.0,0.0,0.0,0.0,0.0,0.0,0.0,0.0,0.0,0.0,0.0,0.0,0.0,0.0,0.0,0.0,0.0,0.0,0.0,0.0,0.0,0.0,0.0,0.0,0.0,0.0,0.0,0.0,0.0,0.0,0.0,-2.7576,0.0,0.0,0.0,0.0,0.0,0.0,0.0,0.0,0.0,0.0,0.0,0.0,0.0,0.0,0.0,0.0,0.0,0.0,0.0,0.0,0.0,-1.1458,-1.2381,-1.3692,-1.4842,-1.5723,-1.5663,-1.5714,-1.5967,-1.5849,-1.5849,-1.5984,-1.5984,-1.5984,-1.5984,-1.6103,-1.6536,-1.7281,-1.8403,-2.0061,-2.2172,-2.2784,-2.1738,-1.9321,-1.8814,0.0,0.0,0.0,0.0,0.0,0.0,0.0,0.0,0.0,0.0,0.0,0.0,0.0,0.0,0.0,0.0,0.0,0.0,0.0,0.0,0.0,0.0,0.0,0.0,0.0,0.0,0.0,0.0,0.0,0.0,0.0,0.0,0.0,0.0,0.0,0.0,0.0,0.0,0.0,0.0,0.0,0.0,0.0,0.0,0.0,0.0,0.0,0.0,0.0,0.0,0.0,0.0,0.0,0.0,0.0,0.0,0.0,0.0,0.0,0.0,0.0,0.0,0.0,0.0,-3.2734,-3.2809,-3.4076,-3.4622,-3.4501,-3.2187,-3.1083,-3.0752,0.0,0.0,0.0,0.0,0.0,0.0,0.0,0.0,0.0,0.0,0.0,0.0,0.0,0.0,0.0,0.0,0.0,0.0,0.0,0.0,-1.1645,-1.3108,-1.4005,-1.5044,-1.6434,-1.5977,-1.6136,-1.7428,-1.6908,-1.6841,-1.7479,-1.7512,-1.7512,-1.7512,-1.8132,-1.8826,-1.9575,-2.2293,-2.4423,-2.598,-2.6065,-2.5913,-2.5406,-2.2837,-2.2073,-2.253,0.0,0.0,0.0,0.0,0.0,0.0,0.0,0.0,0.0,0.0,0.0,0.0,0.0,0.0,0.0,0.0,0.0,0.0,0.0,0.0,0.0,0.0,0.0,0.0,0.0,0.0,0.0,0.0,0.0,0.0,0.0,0.0,0.0,0.0,0.0,0.0,0.0,0.0,0.0,0.0,0.0,-2.2866,-2.3797,0.0,0.0,0.0,0.0,0.0,0.0,0.0,0.0,0.0,0.0,0.0,0.0,0.0,0.0,-3.2705,-3.4736,-3.5445,-3.4821,-3.7556,-3.8476,-3.7759,-3.8714,-3.9159,-3.9127,-3.8754,0.0,-3.2194,-3.1234,0.0,0.0,0.0,0.0,0.0,0.0,0.0,0.0,0.0,0.0,0.0,0.0,0.0,0.0,0.0,0.0,0.0,0.0,0.0,0.0,0.0,-1.5663,-1.6955,-1.8437,-1.8674,-1.8652,-1.8437,-1.8504,-1.8324,-1.7817,-1.78,-1.7986,-1.8403,-1.9135,-2.0504,-2.253,-2.5101,-2.6911,-2.8011,-2.8416,-2.8822,-2.9161,-2.7875,-2.6302,-2.4526,-2.2699,0.0,0.0,0.0,0.0,0.0,0.0,0.0,0.0,0.0,0.0,0.0,0.0,0.0,0.0,0.0,0.0,0.0,0.0,0.0,0.0,0.0,0.0,0.0,0.0,0.0,0.0,0.0,0.0,0.0,0.0,0.0,0.0,0.0,0.0,0.0,0.0,0.0,0.0,0.0,-2.2344,-2.4915,-2.5659,-2.6217,-2.6217,0.0,0.0,0.0,0.0,0.0,0.0,0.0,0.0,0.0,-3.4048,-3.5037,-3.6222,-3.7671,-3.8709,-3.9408,-3.9858,-4.1167,-4.1789,-4.1781,-4.2205,-4.2366,-4.2334,-4.1933,-4.0292,-3.7669,-3.4627,-3.2177,-3.0263,0.0,0.0,0.0,0.0,0.0,-3.0338,0.0,0.0,0.0,0.0,0.0,0.0,0.0,0.0,0.0,0.0,0.0,0.0,-1.5984,-1.7479,-1.8966,-2.0458,-2.0957,-2.0801,-1.9824,-1.9744,-1.9237,-1.8132,-1.8082,-1.8335,-1.8888,-2.0382,-2.2733,-2.5929,-2.7774,-2.9178,-3.0144,-3.0683,-3.1241,-3.1765,-3.1765,-3.0006,-2.6928,-2.5236,-2.3224,-2.1011,0.0,0.0,0.0,0.0,0.0,0.0,0.0,0.0,0.0,0.0,0.0,0.0,0.0,0.0,0.0,0.0,0.0,0.0,0.0,0.0,0.0,0.0,0.0,0.0,0.0,0.0,0.0,0.0,0.0,0.0,0.0,0.0,0.0,0.0,0.0,0.0,0.0,-2.4594,-2.6742,-2.7469,-2.893,-2.9238,0.0,0.0,0.0,0.0,0.0,0.0,-3.2623,-3.4249,-3.5979,-3.7865,-3.9275,-4.0626,-4.1868,-4.2104,-4.2637,-4.3474,-4.3896,-4.4285,-4.4543,-4.4756,-4.4854,-4.4821,-4.4284,-4.3538,-4.2363,-3.8138,-3.5377,-3.3758,-3.2872,-3.2083,-3.1716,-3.3943,-3.4243,-3.3927,0.0,0.0,0.0,0.0,0.0,0.0,0.0,0.0,0.0,0.0,0.0,-1.5264,-1.7445,-1.9017,-2.0508,-2.2043,-2.1583,-2.1461,-2.2076,-2.0145,-1.891,-1.8843,-1.8843,-1.886,-1.8894,-2.2426,-2.6099,-2.982,-3.0632,-3.1765,-3.3186,-3.322,-3.3254,-3.3288,-3.3288,-3.2408,-3.0768,-2.8517,-2.6302,-2.4085,-2.1901,0.0,0.0,0.0,0.0,0.0,0.0,0.0,0.0,0.0,0.0,0.0,0.0,0.0,0.0,0.0,0.0,0.0,0.0,0.0,0.0,0.0,0.0,0.0,0.0,0.0,0.0,0.0,0.0,0.0,0.0,0.0,0.0,0.0,0.0,0.0,0.0,0.0,0.0,-2.9837,-3.1224,0.0,0.0,0.0,0.0,-3.1776,-3.338,-3.5219,-3.7243,-3.8884,-4.0387,-4.1788,-4.2591,-4.3346,-4.4051,-4.4884,-4.4885,-4.4163,-4.582,-4.6207,-4.5446,-4.6301,-4.665,-4.668,-4.6617,-4.5741,-4.4118,-4.167,-3.9407,-3.7515,-3.8287,-3.7694,-3.6626,-3.8139,-3.8672,-3.8656,0.0,0.0,0.0,-0.8211,-0.8205,-0.8388,-0.8959,-0.9884,-1.0851,-1.181,-1.4267,-1.6587,-1.8318,-2.0285,-2.2076,-2.3579,-2.3475,-2.3035,-2.233,-2.1092,-2.0378,-2.0378,-1.9891,-2.0741,-2.3156,-2.5963,-2.8519,-3.0818,-3.2019,-3.3136,-3.4117,-3.4117,-3.437,-3.4822,-3.4822,-3.4269,-3.3136,-3.0446,-2.8246,-2.6404,-2.3697,-2.141,0.0,0.0,0.0,0.0,0.0,0.0,0.0,0.0,0.0,0.0,0.0,0.0,0.0,0.0,0.0,0.0,0.0,0.0,0.0,0.0,0.0,0.0,0.0,0.0,0.0,0.0,0.0,0.0,0.0,0.0,0.0,0.0,0.0,0.0,0.0,0.0,0.0,-3.3436,-3.4577,0.0,0.0,-3.4808,-3.5465,-3.6424,-3.7503,-3.8845,-4.0427,-4.162,-4.2869,-4.4231,-4.5076,-4.5868,-4.6568,-4.6898,-4.7132,-4.7298,-4.7928,-4.8037,-4.7757,-4.8068,-4.8223,-4.8189,-4.7716,-4.7194,-4.6569,-4.526,-4.2792,-3.9801,-3.9692,-3.9326,-3.8909,-3.945,-3.9978,-4.0418,-0.8322,-0.8191,0.0,-0.8044,-0.8037,-0.8303,-0.9102,-1.0116,-1.1318,-1.2762,-1.5352,-1.7738,-1.9498,-2.1684,-2.3427,-2.4406,-2.4491,-2.4085,-2.3105,-2.1884,-2.119,-2.119,-2.1177,-2.2905,-2.6674,-2.8467,-3.0328,-3.2307,-3.3288,-3.415,-3.4878,-3.4878,-3.5131,-3.56,-3.56,-3.5329,-3.4726,-3.2527,-3.0429,-2.8382,-2.6184,-2.4239,-2.2477,0.0,0.0,0.0,0.0,0.0,0.0,0.0,0.0,0.0,0.0,0.0,0.0,0.0,0.0,0.0,0.0,0.0,0.0,0.0,0.0,0.0,0.0,0.0,0.0,0.0,0.0,0.0,0.0,0.0,0.0,0.0,0.0,0.0,0.0,0.0,-3.3794,-3.5769,-3.7141,-3.7809,-3.7533,-3.8186,-3.8993,-3.9903,-4.075,-4.1809,-4.3167,-4.4306,-4.5346,-4.6265,-4.712,-4.7784,-4.8291,-4.8291,-4.8528,-4.9001,-4.9001,-4.9001,-4.9001,-4.9001,-4.9001,-4.8984,-4.8494,-4.8125,-4.7855,-4.7378,-4.5514,-4.2904,-4.2198,-4.1608,-4.114,-4.1439,-4.1898,-4.2316,-0.8144,-0.8088,-0.8049,-0.7927,-0.7914,-0.8139,-0.8854,-0.9899,-1.1675,-1.462,-1.6636,-1.8674,-2.0953,-2.3154,-2.4474,-2.4491,-2.4474,-2.4457,-2.4457,-2.2409,-2.1224,-2.1292,-2.2764,-2.5287,-2.8993,-2.9803,-3.1613,-3.4489,-3.4506,-3.4895,-3.56,-3.56,-3.56,-3.56,-3.56,-3.56,-3.5549,-3.4844,-3.2865,-3.0176,-2.9347,-2.7706,-2.5575,0.0,0.0,0.0,0.0,0.0,0.0,0.0,0.0,0.0,0.0,0.0,0.0,0.0,0.0,0.0,0.0,0.0,0.0,0.0,0.0,0.0,0.0,0.0,0.0,0.0,0.0,0.0,0.0,0.0,0.0,0.0,0.0,0.0,-3.1089,-3.3223,-3.5173,-3.6736,-3.8853,-3.9864,-3.91,-3.9706,-4.0725,-4.2124,-4.3003,-4.4117,-4.5507,-4.7069,-4.7906,-4.7922,-4.8646,-4.9001,-4.9001,-4.9001,-4.9001,-4.9001,-4.9001,-4.9001,-4.9001,-4.9001,-4.9001,-4.9001,-4.9001,-4.8595,-4.7922,-4.7922,-4.7513,-4.6752,-4.6007,-4.475,-4.3459,-4.4298,-4.4615,-4.4496,-0.8102,-0.8023,-0.8026,-0.8232,-0.8133,-0.8558,-1.0055,-1.057,-1.1868,-1.4766,-1.6691,-1.8674,-2.0953,-2.2697,-2.3915,-2.444,-2.4017,-2.3712,-2.3712,-2.2138,-2.1918,-2.3526,-2.6082,-2.8451,-3.0548,-3.185,-3.3152,-3.4489,-3.5047,-3.5397,-3.56,-3.56,-3.56,-3.56,-3.56,-3.56,-3.5583,-3.538,-3.4523,-3.3085,-3.0734,-2.9431,-2.8518,0.0,0.0,0.0,0.0,0.0,0.0,0.0,0.0,0.0,0.0,0.0,0.0,0.0,0.0,0.0,0.0,0.0,0.0,0.0,0.0,0.0,0.0,0.0,0.0,0.0,0.0,0.0,0.0,0.0,0.0,0.0,0.0,-3.245,-3.3436,-3.549,-3.7649,-3.9741,-4.0997,-4.1833,-4.2125,-4.2875,-4.3714,-4.4649,-4.5412,-4.6253,-4.7211,-4.7663,-4.8156,-4.8697,-4.89,-4.9001,-4.9001,-4.9001,-4.9001,-4.9001,-4.9001,-4.9001,-4.9001,-4.9001,-4.9001,-4.9001,-4.9001,-4.8883,-4.8714,-4.8714,-4.8274,-4.7479,-4.621,-4.5424,-4.5009,-4.4716,-4.4615,-4.4581,-0.803,-0.7956,-0.7977,-0.8227,-0.8178,-0.8689,-1.0404,-1.0792,-1.2158,-1.5658,-1.7099,-1.8792,-2.138,-2.2699,-2.3577,-2.4,-2.3661,-2.3393,-2.3393,-2.2883,-2.3424,-2.5337,-2.8028,-3.0142,-3.1633,-3.3102,-3.4218,-3.4962,-3.538,-3.56,-3.56,-3.56,-3.56,-3.56,-3.56,-3.56,-3.56,-3.56,-3.5346,-3.4776,-3.2763,-3.1579,-3.0717,-2.7909,-2.6657,-2.6183,-2.4678,-2.346,-2.2578,-2.2578,0.0,0.0,0.0,0.0,0.0,0.0,0.0,0.0,0.0,0.0,0.0,0.0,0.0,0.0,0.0,0.0,0.0,0.0,0.0,0.0,0.0,0.0,0.0,0.0,-3.2659,-3.5225,-3.6655,-3.7943,-3.9591,-4.1869,-4.2506,-4.3183,-4.4265,-4.479,-4.5483,-4.6549,-4.7022,-4.7581,-4.8342,-4.8376,-4.8578,-4.8984,-4.9306,-4.9306,-4.9001,-4.9306,-4.9306,-4.9001,-4.9001,-4.9001,-4.9001,-4.9001,-4.9001,0.0,-4.9001,-4.9001,-4.9001,-4.9001,-4.8748,0.0,0.0,0.0,0.0,0.0,-4.4615,-4.4615,-0.792,-0.7899,-0.7949,-0.8104,-0.8207,-0.8782,-1.0334,-1.085,-1.2564,-1.6764,-1.7602,-1.8915,-2.1857,-2.2835,-2.3274,-2.3274,-2.3274,-2.3342,-2.3511,-2.4288,-2.5455,-2.7012,-2.9178,-3.1038,-3.2513,-3.3897,-3.4945,-3.56,-3.56,-3.56,-3.56,-3.56,-3.56,-3.56,-3.56,-3.56,-3.56,-3.56,-3.56,-3.5532,-3.4895,-3.38,-3.2378,-3.0818,-2.982,-2.9044,-2.752,-2.6116,-2.4982,-2.4897,0.0,0.0,0.0,0.0,0.0,0.0,0.0,0.0,0.0,0.0,0.0,0.0,0.0,0.0,0.0,0.0,0.0,0.0,0.0,0.0,0.0,0.0,0.0,0.0,-3.5284,-3.7854,-4.0033,-4.0414,-4.1189,-4.3168,-4.3477,-4.4113,-4.5568,-4.5788,-4.6413,-4.7787,-4.7973,-4.8325,-4.8968,0.0,0.0,0.0,0.0,-4.9813,-4.9255,-4.9898,-4.9847,-4.912,-4.912,-4.9086,-4.9001,-4.9001,-4.9001,-4.9001,-4.9001,-4.9001,-4.9001,-4.9001,-4.8951,-4.8748,-4.7327,-4.6346,-4.5618,-4.4886,-4.4615,0.0,-0.792,-0.7899,-0.7991,-0.8289,-0.8827,-0.9625,-1.0803,-1.1587,-1.3185,-1.6406,-1.7389,-1.8724,-2.1156,-2.2073,-2.2499,-2.2499,-2.2499,-2.3021,-2.4203,-2.554,-2.7215,-2.9364,-3.0987,-3.2564,-3.4032,-3.4945,-3.5447,-3.56,-3.56,-3.56,-3.56,-3.56,-3.56,-3.56,-3.56,-3.56,-3.56,-3.56,-3.56,-3.5583,-3.543,-3.4861,-3.3846,-3.1765,-3.0903,-3.0584,-2.9094,-2.8367,-2.8028,-2.7385,-2.659,-2.5592,-2.4101,-2.2818,0.0,0.0,0.0,0.0,0.0,0.0,0.0,0.0,0.0,0.0,0.0,0.0,0.0,0.0,0.0,0.0,0.0,0.0,0.0,-3.4173,-3.7239,-4.0027,-4.1663,-4.2378,-4.2918,-4.3358,-4.3978,-4.4705,-4.5618,-4.6244,-4.6955,-4.7821,-4.846,-4.8849,-4.9001,-4.9001,0.0,-4.9864,-5.0016,-5.0321,-5.0762,-5.093,-5.0625,-4.9881,0.0,0.0,-4.9001,-4.9001,-4.9001,-4.9001,-4.9001,-4.9001,-4.9001,-4.9001,-4.8663,-4.8037,-4.7141,-4.6346,-4.5618,-4.4886,-4.4615,-4.4615,-0.7914,-0.7899,-0.7998,-0.8351,-0.901,-0.9858,-1.0936,-1.1773,-1.3371,-1.6309,-1.7027,-1.8099,-2.0348,-2.0927,-2.1147,-2.1147,-2.1857,-2.3088,-2.4932,-2.6437,-2.8112,-3.0023,-3.1867,-3.3186,-3.3931,-3.5025,-3.56,-3.56,-3.56,-3.56,-3.56,-3.56,-3.56,-3.56,-3.56,-3.56,-3.56,-3.56,-3.56,-3.56,-3.56,-3.538,-3.4861,-3.3,-3.207,-3.1616,-3.0499,-2.9636,-2.8942,-2.8535,-2.7892,-2.6996,-2.5524,-2.4797,-2.4137,0.0,0.0,0.0,0.0,0.0,0.0,0.0,0.0,0.0,0.0,0.0,0.0,0.0,0.0,-3.0495,-3.1678,0.0,-3.5625,-3.7195,-3.9576,-4.1579,-4.2695,-4.3502,-4.3995,-4.3995,-4.435,-4.5038,-4.6143,-4.6583,-4.7259,-4.8376,-4.8798,-4.9001,-4.9001,-4.9357,-4.9712,-5.0084,-5.0811,-5.12,-5.1185,-5.1589,-5.12,-5.0084,-5.0084,-4.9712,-4.9001,-4.9001,-4.9001,-4.9001,-4.9001,-4.9001,-4.9001,-4.9001,-4.8781,-4.8392,-4.7648,-4.6684,-4.5618,-4.4886,-4.4615,-4.4615,-0.7941,-0.7941,-0.8078,-0.8529,-0.926,-1.0114,-1.1179,-1.2017,-1.3422,-1.5944,-1.6519,-1.7433,-1.936,-1.9833,-2.0052,-2.0217,-2.162,-2.3446,-2.5676,-2.7198,-2.877,-3.0446,-3.2374,-3.3474,-3.3609,-3.4906,-3.56,-3.56,-3.56,-3.56,-3.56,-3.56,-3.56,-3.56,-3.56,-3.56,-3.56,-3.56,-3.56,-3.56,-3.56,-3.56,-3.543,-3.3964,-3.3034,-3.2378,-3.1343,-3.0144,-2.8976,-2.8824,-2.8247,-2.7384,-2.6184,-2.6116,-2.6015,-2.3632,-2.3156,0.0,0.0,0.0,0.0,0.0,0.0,0.0,0.0,0.0,-3.0664,-3.2757,-3.335,-3.4008,-3.5553,-3.6761,-3.8142,-4.0,-4.1546,-4.2789,-4.354,-4.4181,-4.4615,-4.4615,-4.4615,-4.519,-4.665,-4.6786,-4.7411,-4.8883,-4.9001,-4.9069,-4.9204,-4.9779,-5.0219,-5.0507,-5.1674,-5.2097,-5.1657,-5.2249,-5.186,-5.0524,-5.0371,-4.9932,-4.9204,-4.9069,-4.9001,-4.9001,-4.9001,-4.9001,-4.9001,-4.9001,-4.9001,-4.8934,-4.8176,-4.7162,-4.6024,-4.5128,-4.4733,-4.4615,-0.8084,-0.8084,-0.8352,-0.922,-1.0134,-1.1052,-1.202,-1.2795,-1.3625,-1.4622,-1.5893,-1.7044,-1.7952,-1.9208,-2.0285,-2.1004,-2.2412,-2.4222,-2.642,-2.8011,-2.9822,-3.1955,-3.2916,-3.3711,-3.4353,-3.5177,-3.56,-3.56,-3.56,-3.56,-3.56,-3.56,-3.56,-3.56,-3.56,-3.56,-3.56,-3.56,-3.56,-3.56,-3.56,-3.56,-3.543,-3.3964,-3.3355,-3.3017,-3.097,-2.9702,-2.8891,-2.8197,-2.7452,-2.6793,-2.6623,-2.6184,-2.5659,-2.5338,-2.4357,-2.3765,-2.549,-2.7148,-2.8705,-3.0091,-3.0074,-3.097,0.0,0.0,-3.4336,-3.5966,-3.6785,-3.7101,-3.6722,-3.8367,-4.0033,-4.0925,-4.2306,-4.3574,-4.435,-4.4547,-4.4615,-4.4615,-4.4615,-4.519,-4.665,-4.6786,-4.7411,-4.8883,-4.9001,-4.9289,-4.9932,-5.005,-5.0693,-5.2012,-5.2215,-5.2604,-5.3247,-5.3331,-5.2926,-5.2046,-5.1403,-5.0693,-4.9949,-4.9306,-4.9001,-4.9001,-4.9001,-4.9001,-4.9001,-4.9001,-4.9001,-4.8934,-4.8176,-4.7787,-4.7496,-4.6092,-4.5162,-4.4615,-0.8273,-0.8364,-0.8851,-1.0099,-1.0639,-1.1224,-1.2155,-1.2931,-1.3659,-1.4402,-1.5037,-1.5866,-1.7033,-1.8087,-1.9203,-2.0399,-2.1481,-2.3255,-2.5896,-2.7469,-2.911,-3.0937,-3.256,-3.3541,-3.3846,-3.4991,-3.56,-3.56,-3.56,-3.56,-3.56,-3.56,-3.56,-3.56,-3.56,-3.56,-3.56,-3.56,-3.56,-3.56,-3.56,-3.5329,-3.481,-3.3305,-3.2222,-3.1309,-2.9939,-2.867,0.0,-2.6992,-2.6756,-2.6589,-2.593,-2.5937,-2.6065,-2.5203,-2.5439,-2.6556,-2.923,-3.0431,-3.1278,-3.2747,-3.3558,-3.4675,-3.7313,-3.7161,-3.6905,-3.8396,-3.8924,-3.9039,-3.8771,-4.0188,-4.1496,0.0,-4.3092,-4.4215,-4.4564,-4.4198,-4.391,-4.391,-4.391,-4.4671,-4.6599,-4.6786,-4.7411,-4.8883,-4.9001,-4.9323,-5.005,-5.0507,-5.1217,-5.2266,-5.2756,-5.3162,-5.3501,-5.3501,-5.3095,-5.23,-5.1995,-5.1234,-5.0084,-4.9779,-4.9407,-4.9001,-4.9001,-4.9001,-4.9001,-4.9001,-4.9001,-4.8968,-4.8663,-4.8261,-4.7703,-4.6244,-4.55,-4.5179,-0.875,-0.8908,-0.9484,-1.1015,-1.1289,-1.1578,-1.2475,-1.3049,-1.3591,-1.4124,-1.4554,-1.5375,-1.6841,-1.749,-1.8307,-1.9592,-2.0619,-2.229,-2.4831,-2.6556,-2.8179,-2.9736,-3.1715,-3.2983,-3.3389,-3.4658,-3.5397,-3.56,-3.56,-3.56,-3.56,-3.56,-3.56,-3.56,-3.56,-3.56,-3.56,-3.56,-3.5481,-3.5295,-3.5295,-3.4861,-3.4032,-3.2564,-3.1133,-2.9782,-2.8831,-2.7521,-2.6191,-2.6011,-2.5926,-2.5816,-2.5198,-2.5497,-2.6014,-2.5541,-2.7131,-2.9431,-3.1207,-3.2446,-3.3508,-3.4815,-3.6288,-3.7608,-3.8345,-3.8514,-3.8802,-3.9893,-4.0096,-4.0096,-4.0096,-4.1145,-4.2049,-4.2252,-4.3403,-4.4361,-4.4581,-4.391,-4.3477,-4.3707,-4.3527,-4.4231,-4.6295,-4.6498,-4.7107,-4.8595,-4.8714,-4.9204,-5.0338,-5.093,-5.1657,-5.2604,-5.3196,-5.3501,-5.3501,-5.3501,-5.3213,-5.2638,-5.2418,-5.1623,-5.0388,-4.9965,-4.9509,-4.9001,-4.9001,-4.9001,-4.9001,-4.9001,-4.9001,-4.9001,-4.9001,-4.868,-4.8007,-4.6549,-4.5872,-4.5602,-0.9617,-0.9765,-1.0297,-1.1979,-1.2255,-1.2517,-1.3261,-1.3396,-1.3413,-1.343,-1.4674,-1.6136,-1.7597,-1.7783,-1.8104,-1.8872,-2.0327,-2.185,-2.3359,-2.5507,-2.7436,-2.8976,-3.0463,-3.1935,-3.3372,-3.4134,-3.4878,-3.56,-3.56,-3.56,-3.56,-3.56,-3.56,-3.56,-3.56,-3.56,-3.56,-3.56,-3.5199,-3.4523,-3.4523,-3.4083,-3.3271,-3.1782,-3.0486,-2.9231,-2.7782,-2.6312,-2.5103,-2.5401,-2.4834,-2.4109,-2.4798,-2.481,-2.4982,-2.708,-2.982,-3.187,-3.0531,-3.2777,-3.5684,-3.6502,-3.7821,-3.9123,-3.9876,-4.0028,-4.0045,-4.0096,-4.0096,-4.0096,-4.0096,-4.0713,-4.1474,-4.2168,-4.2946,-4.3724,-4.4496,-4.391,-4.369,-4.4479,-4.3876,-4.4001,0.0,-4.5737,-4.6363,-4.7804,-4.7922,-4.8869,-5.1065,-5.12,-5.1911,-5.3416,-5.3501,-5.3501,-5.3501,-5.3501,-5.3501,-5.345,-5.2672,-5.1911,-5.1133,-4.9695,-4.9018,-4.9001,-4.9001,-4.9001,-4.9001,-4.9001,-4.9001,-4.9001,-4.9001,-4.8984,-4.8798,-4.731,-4.6312,-4.5602,-0.9796,-0.9924,-1.0437,-1.2019,-1.2297,-1.2558,-1.3295,-1.3396,-1.3574,-1.4073,-1.5419,0.0,0.0,0.0,0.0,0.0,-1.9824,-2.1045,-2.2581,-2.4746,-2.642,-2.7436,-2.9397,-3.0937,-3.1918,-3.2666,-3.3389,-3.4129,-3.4129,-3.4129,-3.4129,-3.4129,-3.4129,-3.4129,-3.4129,-3.4129,-3.4129,-3.4129,-3.4286,-3.4404,-3.3444,-3.2903,-3.2534,-3.1319,-2.9351,-2.7205,0.0,-2.6047,-2.4515,-2.4349,-2.4123,-2.3887,-2.3828,-2.4133,-2.5032,-2.7791,-3.0006,-3.1884,-3.3334,-3.5397,-3.7313,-3.8058,-3.9012,-3.9791,-4.0045,-4.0096,-4.0096,-4.0096,-3.9723,-3.9385,-3.9385,-3.9952,-4.0696,-4.1457,-4.2608,-4.369,-4.4496,-4.4378,-4.4096,-4.3842,-4.4045,0.0,0.0,0.0,0.0,-4.777,-4.7889,-4.8852,-5.1067,-5.1185,-5.1928,-5.345,-5.3501,-5.3501,-5.3501,-5.3501,-5.3501,-5.3484,-5.2198,-5.1183,-5.0439,-4.9458,-4.9001,-4.9001,-4.9001,-4.9001,-4.9001,-4.9001,-4.9001,-4.9001,-4.9001,-4.8714,-4.8156,-4.7158,-4.6329,-4.5602,-1.0244,-1.0616,-1.1224,-1.2466,-1.2694,0.0,0.0,0.0,0.0,0.0,0.0,0.0,0.0,0.0,0.0,0.0,0.0,-2.0149,-2.14,-2.3327,-2.4864,-2.5879,-2.7571,-2.8975,-2.9973,-3.0446,-3.119,-3.2222,-3.2222,-3.2357,-3.2611,-3.2611,-3.2611,-3.2611,-3.2611,-3.2611,-3.2611,-3.2611,-3.2747,-3.2835,-3.172,-3.1115,-3.0743,-2.9659,-2.7901,0.0,-2.6263,-2.5368,-2.4046,-2.379,-2.3845,-2.4029,-2.3901,-2.5072,-2.6928,-2.9145,-3.1024,-3.2966,-3.5707,-3.7161,-3.8142,-3.914,-3.9757,-4.0096,-4.0096,-4.0096,-3.996,-3.9436,-3.8937,-3.8531,-3.8244,-3.8606,-3.9436,-4.095,-4.2016,-4.3183,-4.4756,-4.4502,-4.4282,-4.4587,-4.4604,-4.4587,0.0,0.0,0.0,-4.7445,-4.7736,-4.8852,-5.1067,-5.1185,-5.1928,-5.345,-5.3501,-5.3501,-5.3501,-5.3501,-5.3365,-5.3061,-5.1809,-5.0811,-5.0067,-4.934,-4.9001,-4.9001,-4.9001,-4.9001,-4.9001,-4.9001,-4.9001,-4.9001,-4.9001,-4.8562,-4.7804,-4.7073,-4.6329,-4.5602,-1.0961,-1.1756,-1.2534,0.0,0.0,0.0,0.0,0.0,0.0,0.0,0.0,0.0,0.0,0.0,0.0,0.0,0.0,0.0,-1.9925,-2.1444,-2.2934,-2.4321,-2.515,-2.625,-2.769,-2.7706,-2.8451,-2.9958,-2.9922,-3.0277,-3.097,-3.097,-3.097,-3.097,-3.097,-3.097,-3.0954,-3.099,-3.0601,-2.9941,-2.9454,-2.8834,-2.8142,-2.7029,-2.6308,-2.5763,-2.5121,-2.4381,-2.371,-2.3783,-2.4129,-2.458,-2.5111,-2.7502,-3.0328,-3.1123,-3.2899,-3.5098,-3.7313,-3.7973,-3.8345,-3.9757,-4.0096,-4.0096,-4.0045,-4.0011,-3.9571,-3.8091,-3.7736,-3.7449,-3.6711,0.0,-3.7675,-4.051,-4.1136,-4.2286,-4.5229,-4.4468,-4.4384,0.0,0.0,0.0,0.0,0.0,0.0,-4.6853,0.0,-4.8852,-5.1067,-5.1185,-5.1928,-5.345,-5.3501,-5.3501,-5.3501,-5.3501,-5.3078,-5.2232,-5.1539,-5.0794,-5.0016,-4.9323,-4.9001,-4.9001,-4.9001,-4.9001,-4.9001,-4.9001,-4.9001,-4.9001,-4.9001,-4.8545,-4.7753,-4.7056,-4.6312,-4.5551,0.0,0.0,0.0,0.0,0.0,0.0,0.0,0.0,0.0,0.0,0.0,0.0,0.0,0.0,0.0,0.0,0.0,0.0,-1.9453,-2.148,-2.2733,-2.2866,-2.4579,-2.5852,-2.6517,-2.6519,-2.7016,-2.7944,-2.7692,-2.7655,-2.7841,-2.7841,-2.7841,-2.7841,-2.7841,-2.7841,-2.7859,-2.81,-2.8271,-2.8317,-2.7596,-2.7391,-2.7445,-2.7161,-2.623,-2.5169,-2.5885,-2.5088,-2.3873,-2.4977,-2.6207,-2.7448,-2.8476,-2.9776,-3.1275,-3.3119,-3.4861,-3.6474,-3.7601,-3.87,-3.9639,-4.0011,-4.0096,-3.996,-3.9419,-3.8853,-3.8024,-3.6495,-3.5318,-3.432,-3.358,-3.4793,0.0,-3.7686,-4.0223,0.0,-4.4615,-4.5483,0.0,-4.6718,0.0,-4.6989,-4.6802,-4.731,0.0,0.0,-4.777,-4.8852,-5.1067,-5.1185,-5.1928,-5.345,-5.3501,-5.3501,-5.3501,-5.3501,-5.2824,-5.1488,-5.1269,-5.0541,-4.9272,-4.9086,-4.9001,-4.9001,-4.9001,-4.9001,-4.9001,-4.9001,-4.9001,-4.9001,-4.9001,-4.8206,-4.7056,-4.6853,-4.5974,-4.4869,0.0,0.0,0.0,0.0,0.0,0.0,0.0,0.0,0.0,0.0,0.0,0.0,0.0,0.0,0.0,0.0,0.0,0.0,0.0,-2.0633,-2.1666,-2.2143,-2.3315,-2.4229,-2.4815,-2.5177,-2.5477,-2.574,-2.5918,-2.5918,-2.5743,-2.5743,-2.5743,-2.5743,-2.5743,-2.5743,-2.5759,-2.6103,-2.636,0.0,0.0,-2.5955,-2.613,-2.5949,-2.5321,-2.4641,-2.5293,-2.5513,-2.5648,-2.6855,-2.8293,-2.979,-3.1131,-3.229,-3.3508,-3.5436,-3.6603,-3.7499,-3.8582,-3.9462,-4.0096,-4.0096,-4.0096,-3.974,-3.8352,-3.7702,-3.6603,-3.3757,-3.2797,-3.2002,-3.0581,-3.2425,0.0,0.0,0.0,0.0,-4.4293,-4.5585,-4.6566,0.0,-4.7665,0.0,-4.7767,-4.8139,-4.8392,0.0,-4.8392,-4.9221,-5.1083,-5.1185,-5.1928,-5.345,-5.3501,-5.3501,-5.3501,-5.3162,-5.2384,-5.1185,-5.0879,-5.0118,-4.9001,-4.9001,-4.9001,-4.9001,0.0,-4.9001,-4.9001,-4.9001,-4.9001,-4.9001,-4.9001,-4.8105,-4.6786,-4.6786,-4.5855,-4.4615,0.0,0.0,0.0,0.0,0.0,0.0,0.0,0.0,0.0,-1.5781,-1.6005,0.0,0.0,0.0,0.0,0.0,0.0,0.0,0.0,0.0,-2.0392,-2.1781,-2.2025,-2.2466,-2.3183,-2.3922,-2.4146,-2.3805,-2.4465,-2.4594,-2.4262,-2.4233,-2.4203,-2.4203,-2.4203,-2.4233,-2.4292,-2.4609,-2.4764,-2.4767,-2.4736,-2.4687,-2.4615,0.0,-2.4161,-2.418,-2.4094,-2.5476,-2.7512,-2.8629,-3.0178,-3.1901,-3.3508,-3.4923,-3.6326,-3.777,-3.8193,-3.8464,-3.9757,-4.0096,-4.0096,-4.0096,-4.0028,-3.9385,-3.7151,-3.6423,-3.4984,-3.0683,-3.0159,-2.9854,-2.7874,-2.9973,-3.273,-3.494,0.0,-4.1018,-4.4039,-4.5162,-4.6261,-4.7703,-4.7973,-4.8308,-4.8951,-4.9001,-4.9001,-4.9001,-4.9001,-4.961,-5.0997,-5.1065,-5.1725,-5.3162,-5.3196,-5.3196,-5.3196,-5.2503,-5.1792,-5.1065,-5.0405,-4.9712,-4.9001,-4.9001,-4.9001,-4.9001,0.0,0.0,-4.9001,-4.9001,-4.9001,-4.9001,-4.9001,-4.8105,-4.6786,-4.6786,-4.5855,-4.4615,0.0,0.0,0.0,0.0,0.0,0.0,0.0,-1.502,-1.59,-1.7242,-1.6934,-1.697,-1.8028,-1.8208,0.0,0.0,0.0,0.0,0.0,0.0,0.0,-2.1058,-2.2215,-2.294,-2.3183,-2.3614,-2.3651,-2.3317,-2.3166,-2.308,-2.3018,-2.279,-2.2682,-2.2682,-2.2682,-2.2801,-2.3028,-2.3363,-2.3499,-2.356,-2.4088,-2.4145,-2.3891,-2.38,0.0,0.0,-2.3566,-2.428,-2.5836,-2.8202,-3.121,-3.4303,-3.6451,-3.7719,-3.8582,-3.9469,-3.9723,-3.9774,-4.0028,-4.0096,-4.0096,-4.0096,-3.9656,-3.8599,-3.6332,-3.4387,-3.2158,-2.8872,-2.7334,-2.6454,-2.6049,-2.845,-3.1207,-3.3402,-3.6823,-4.0223,-4.32,-4.4823,-4.6261,0.0,-4.8443,-4.8866,-4.8984,0.0,0.0,0.0,0.0,0.0,-5.0236,-5.0287,-5.0693,-5.1589,-5.1591,-5.1591,-5.1591,-5.1471,-5.1031,-5.0287,-5.0152,-4.9712,-4.9001,-4.9001,-4.9001,-4.9001,0.0,0.0,-4.9001,-4.9001,-4.9001,-4.9001,-4.9001,-4.8105,-4.6786,-4.6786,-4.5855,-4.4615,0.0,0.0,0.0,0.0,0.0,0.0,-1.5409,-1.5944,-1.683,-1.8696,-1.8802,-1.8702,-1.8776,-1.876,-1.878,0.0,0.0,0.0,0.0,0.0,0.0,-2.0652,-2.178,-2.2602,-2.3089,-2.4068,-2.4222,-2.3448,0.0,-2.327,-2.2695,0.0,0.0,-2.2296,-2.2296,-2.245,-2.2721,-2.3057,-2.3311,-2.3493,-2.3996,-2.4103,-2.3937,-2.3774,0.0,0.0,-2.338,-2.4091,-2.5523,-2.7231,-3.0025,-3.3305,-3.6366,-3.8091,-3.9056,-3.9436,-3.9808,-4.0096,-4.0096,-4.0096,-4.0096,-4.0096,-3.9242,-3.7635,-3.4573,-3.2459,-3.0074,-2.6302,-2.5253,-2.4797,-2.402,-2.6624,0.0,-3.0869,-3.4218,-3.7821,-4.1204,-4.3318,0.0,-4.7107,-4.8325,-4.9001,0.0,0.0,0.0,0.0,0.0,0.0,-5.005,-5.0456,-5.0845,-5.12,-5.1185,-5.1185,-5.1185,-5.0828,-5.0439,-5.0084,-4.9712,-4.934,-4.9001,-4.9001,-4.9001,-4.9001,0.0,0.0,-4.9001,-4.9001,-4.9001,-4.8968,-4.8595,-4.7767,-4.6735,-4.6363,-4.5534,-4.4615,0.0,0.0,0.0,0.0,0.0,0.0,-1.636,-1.6824,-1.7726,-1.9963,-2.0589,-2.0511,-1.9712,-1.9542,-1.9289,0.0,0.0,0.0,0.0,0.0,0.0,0.0,0.0,-2.2135,-2.2886,0.0,0.0,0.0,0.0,0.0,0.0,0.0,0.0,0.0,0.0,0.0,-2.2935,-2.3189,-2.3511,0.0,0.0,-2.419,0.0,0.0,0.0,0.0,0.0,-2.4039,-2.5174,-2.6215,-2.8185,-3.0791,-3.4096,-3.6694,-3.8548,-3.8717,-3.9276,-3.991,-4.0062,-4.0096,-4.0096,-4.0096,-3.8853,-3.6721,-3.3119,-3.0903,-2.8433,-2.4255,-2.3746,-2.3714,-2.2733,-2.5035,-2.752,-2.879,-3.1836,-3.5334,-3.9114,-4.1677,-4.4012,0.0,-4.7868,0.0,0.0,0.0,0.0,0.0,0.0,0.0,0.0,-5.0422,-5.0744,-5.0744,-5.0744,-5.0744,-5.0744,-5.0152,-4.9847,-4.9847,-4.9272,-4.9001,-4.9001,-4.9001,-4.9001,-4.9001,0.0,0.0,0.0,-4.9001,-4.8917,-4.8714,-4.8139,-4.7361,-4.6481,-4.5923,-4.5229,-4.4615,0.0,0.0,0.0,0.0,0.0,0.0,-1.636,-1.727,-1.8521,-2.0801,-2.1541,-2.156,-2.0745,-2.0338,-1.9873,0.0,0.0,0.0,0.0,0.0,0.0,0.0,0.0,0.0,0.0,0.0,0.0,0.0,0.0,0.0,0.0,0.0,0.0,0.0,0.0,0.0,0.0,-2.3649,0.0,0.0,0.0,0.0,0.0,0.0,0.0,0.0,0.0,-2.3555,-2.3682,-2.5533,-2.6546,-2.7328,-2.9158,-3.3072,-3.7134,-3.7804,-3.8514,-3.9266,-3.9926,-4.0096,-4.0096,-4.0096,-3.8488,-3.6101,-3.2996,-3.0072,-2.7131,-2.4036,-2.2919,-2.2682,-2.319,-2.4118,-2.5726,-2.8536,-3.0973,-3.3816,-3.7567,-4.0578,-4.325,-4.5534,0.0,0.0,0.0,0.0,0.0,0.0,0.0,0.0,0.0,-4.9171,-4.9204,-4.9204,-4.9204,-4.9204,-4.9204,-4.9137,-4.9103,-4.9103,-4.9035,-4.9001,-4.9001,-4.9001,-4.9001,-4.9001,0.0,0.0,0.0,-4.9001,-4.8612,-4.7973,-4.7922,-4.7056,-4.5788,-4.572,-4.5229,-4.4615,0.0,0.0,0.0,0.0,0.0,0.0,-1.6514,-1.7164,-1.837,-2.1086,-2.1931,-2.2168,-2.1864,-2.1432,-2.0656,-1.9418,0.0,0.0,0.0,0.0,0.0,0.0,0.0,0.0,0.0,0.0,0.0,0.0,0.0,0.0,0.0,0.0,0.0,0.0,0.0,0.0,0.0,0.0,0.0,0.0,0.0,0.0,0.0,0.0,0.0,0.0,0.0,0.0,-2.3598,-2.4161,-2.5059,-2.6008,-2.6454,-2.8939,-3.2144,-3.4503,-3.6366,-3.7946,-3.9131,-3.9774,-4.0096,-4.0096,-3.8058,-3.5301,-3.2324,-2.9313,-2.6302,-2.3359,-2.2499,-2.2381,-2.2682,-2.3342,-2.4509,-2.6607,-2.8061,-3.0395,-3.4607,-3.7381,-4.0307,0.0,0.0,0.0,0.0,0.0,0.0,0.0,0.0,0.0,0.0,-4.9001,-4.9001,-4.9001,-4.9001,-4.9001,-4.9001,-4.9001,-4.9001,-4.9001,-4.9001,-4.9001,-4.9001,-4.9001,-4.9001,-4.9001,0.0,0.0,0.0,-4.8528,-4.8173,-4.7804,-4.6938,-4.6227,-4.5652,-4.5196,-4.4869,-4.4615,0.0,0.0,0.0,0.0,0.0,-1.4348,-1.6738,-1.717,-1.8201,-2.1005,-2.1818,-2.2146,-2.2146,-2.1708,-2.0941,-1.9767,-1.9444,0.0,0.0,0.0,0.0,0.0,0.0,0.0,0.0,0.0,-2.4094,-2.419,0.0,0.0,0.0,0.0,0.0,0.0,0.0,0.0,0.0,0.0,0.0,0.0,0.0,0.0,0.0,0.0,0.0,0.0,0.0,0.0,0.0,0.0,0.0,-2.5038,-2.4598,-2.5692,-2.7847,-3.165,-3.4201,-3.6186,-3.7872,-3.8894,-3.9445,-3.9445,-3.7178,-3.423,-3.1495,-2.8535,-2.5592,-2.2854,-2.2296,-2.2296,-2.2296,-2.2733,-2.3494,-2.4763,-2.593,-2.8112,-3.2188,-3.5103,0.0,0.0,0.0,0.0,0.0,0.0,0.0,0.0,0.0,0.0,0.0,0.0,-4.9001,-4.9001,-4.9001,-4.9001,-4.9001,-4.9001,-4.9001,-4.9001,-4.9001,-4.9001,-4.9001,-4.9001,-4.9001,0.0,0.0,0.0,0.0,-4.8091,-4.7635,-4.7158,-4.6126,-4.5568,-4.5314,-4.4801,-4.4615,-4.4615,0.0,0.0,0.0,0.0,0.0,-1.4695,-1.7047,-1.74,-1.8221,-2.0513,-2.1103,-2.1318,-2.1318,-2.0833,-2.0511,-2.0493,-1.9767,0.0,0.0,0.0,0.0,0.0,0.0,0.0,0.0,0.0,-2.3876,-2.419,-2.3533,-2.3369,0.0,0.0,0.0,0.0,0.0,0.0,0.0,0.0,0.0,0.0,0.0,0.0,-2.3692,0.0,0.0,0.0,0.0,0.0,0.0,0.0,0.0,0.0,0.0,-2.3736,-2.5252,-2.9873,-3.2273,-3.3931,-3.622,-3.7347,-3.7922,-3.7922,-3.5656,-3.2848,-3.0632,-2.7773,-2.4983,-2.2753,-2.2296,-2.2296,-2.2296,-2.2296,-2.2564,-2.3291,-2.5269,-2.7757,-3.0801,-3.4443,0.0,0.0,0.0,0.0,0.0,0.0,0.0,0.0,0.0,0.0,0.0,0.0,-4.9001,-4.9001,-4.9001,-4.9001,-4.9001,-4.9001,-4.9001,-4.9001,-4.9001,-4.9001,-4.9001,-4.9001,0.0,0.0,0.0,0.0,0.0,-4.7889,-4.7056,-4.572,-4.572,-4.5246,-4.4615,-4.4615,-4.4615,-4.4615,0.0,0.0,0.0,0.0,0.0,0.0,-1.573,-1.5887,-1.6732,-1.9236,-1.9775,-2.0366,-2.1525,-2.0964,-2.0503,-2.0503,-1.9767,0.0,0.0,0.0,0.0,0.0,0.0,0.0,0.0,-2.3398,-2.4094,-2.419,-2.3764,-2.3488,-2.3357,-2.3247,-2.2977,0.0,0.0,0.0,0.0,0.0,0.0,0.0,0.0,-2.2908,-2.2764,0.0,0.0,0.0,0.0,0.0,0.0,0.0,0.0,0.0,0.0,0.0,0.0,-2.6635,-2.8768,-3.0747,-3.2386,-3.3601,-3.4292,-3.3778,-3.2532,-3.0839,-2.863,-2.6806,-2.5012,-2.2987,-2.2426,-2.2296,-2.2296,-2.2296,-2.3192,-2.5964,-2.6995,-2.8873,-3.2882,0.0,0.0,0.0,0.0,0.0,0.0,0.0,0.0,0.0,0.0,0.0,0.0,0.0,-4.9001,-4.9001,-4.9001,-4.9001,-4.9001,-4.9001,-4.9001,-4.9001,-4.9001,-4.9001,-4.8984,-4.8494,0.0,0.0,0.0,0.0,0.0,-4.6599,-4.6126,-4.5652,-4.5145,-4.4818,-4.4615,-4.4615,-4.4615,-4.4615,0.0,0.0,0.0,0.0,0.0,0.0,-1.5307,-1.5388,-1.6023,-1.7952,-1.8582,-1.937,-2.0711,-2.0372,-2.0162,-2.0466,-1.9767,0.0,0.0,0.0,0.0,0.0,0.0,0.0,-2.2045,-2.3048,-2.3782,-2.4237,-2.4026,-2.3815,-2.3619,-2.3744,-2.3399,-2.2673,-2.3518,0.0,0.0,0.0,0.0,0.0,-2.2972,-2.2794,-2.2673,0.0,0.0,0.0,0.0,0.0,0.0,0.0,0.0,0.0,0.0,0.0,0.0,0.0,-2.5953,-2.7662,-2.9628,-3.0923,-3.16,-3.1132,-3.0128,-2.8834,-2.7159,-2.5742,-2.435,-2.2856,-2.2412,-2.2296,-2.2296,-2.2296,-2.3141,-2.5711,-2.6607,-2.8432,0.0,0.0,0.0,0.0,0.0,0.0,0.0,0.0,0.0,0.0,0.0,0.0,0.0,0.0,-4.8173,-4.8173,-4.8714,-4.9001,-4.9001,-4.9001,-4.9001,-4.9001,-4.8731,-4.8595,-4.8578,0.0,0.0,0.0,0.0,0.0,0.0,-4.5889,-4.5551,-4.5229,-4.4784,-4.4615,-4.4615,-4.4615,-4.4615,-4.4615,0.0,0.0,0.0,0.0,0.0,0.0,0.0,-1.5594,-1.5881,-1.6707,-1.7465,-1.8243,-1.904,-1.9187,-1.951,-2.0254,-1.9693,0.0,0.0,0.0,0.0,0.0,0.0,0.0,-2.2421,-2.2501,-2.3109,-2.4298,-2.4314,-2.435,-2.4362,-2.4688,-2.4295,-2.3313,-2.3948,-2.4061,0.0,0.0,0.0,0.0,-2.32,-2.3171,0.0,0.0,0.0,0.0,0.0,0.0,0.0,0.0,0.0,0.0,0.0,0.0,0.0,0.0,0.0,0.0,0.0,-2.8993,-2.9509,-2.9457,-2.8237,-2.6822,-2.6063,-2.4624,0.0,-2.2474,-2.2307,-2.2361,-2.2556,-2.246,-2.275,-2.3892,-2.5167,-2.7334,0.0,0.0,0.0,0.0,0.0,0.0,0.0,0.0,0.0,0.0,0.0,0.0,0.0,0.0,0.0,-4.6786,-4.8139,-4.8849,-4.8849,-4.8849,-4.8849,-4.8849,-4.8156,-4.7804,-4.7817,0.0,0.0,0.0,0.0,0.0,0.0,-4.5618,-4.5213,-4.4615,-4.4615,-4.4615,-4.4615,-4.4615,-4.4615,-4.4615,0.0,0.0,0.0,0.0,0.0,0.0,0.0,0.0,0.0,0.0,-1.6151,-1.6573,-1.7374,-1.8016,-1.8463,0.0,0.0,0.0,0.0,0.0,0.0,0.0,0.0,0.0,-2.1944,-2.2575,-2.3322,-2.4218,-2.4521,-2.4705,-2.4758,-2.5151,-2.4898,-2.4128,-2.4557,-2.4488,0.0,0.0,0.0,0.0,-2.3294,-2.2823,0.0,0.0,0.0,0.0,-2.2978,-2.3281,0.0,0.0,0.0,0.0,0.0,0.0,0.0,0.0,-2.4152,-2.4382,-2.5085,0.0,-2.5856,-2.5297,-2.5272,-2.5095,0.0,-2.3824,-2.355,-2.2767,-2.2436,-2.2946,-2.504,-2.4178,-2.4832,-2.9989,-3.0287,-3.1393,0.0,0.0,0.0,0.0,0.0,0.0,0.0,0.0,0.0,0.0,0.0,0.0,0.0,0.0,0.0,-4.6786,-4.7141,-4.731,-4.731,-4.731,-4.731,-4.731,-4.7141,-4.7056,-4.7022,0.0,0.0,0.0,0.0,0.0,-4.4869,-4.4869,-4.4767,-4.4615,-4.4615,-4.4615,-4.4615,-4.4615,-4.4615,-4.4615,0.0,0.0,0.0,0.0,0.0,0.0,0.0,0.0,0.0,0.0,-1.5472,-1.5876,-1.6291,-1.7392,-1.8089,0.0,0.0,0.0,0.0,0.0,0.0,0.0,0.0,-2.0461,-2.1544,-2.1999,-2.2885,-2.4252,-2.4837,-2.5141,-2.5183,-2.5558,-2.5343,-2.4629,-2.4599,-2.4436,0.0,0.0,0.0,-2.3682,-2.3511,0.0,0.0,0.0,0.0,0.0,-2.2236,-2.2685,0.0,-2.3501,-2.3801,-2.3976,0.0,0.0,0.0,0.0,-2.4084,-2.419,-2.419,-2.4902,-2.5532,-2.5128,-2.5208,-2.5241,-2.4664,-2.4032,-2.3414,-2.282,-2.2573,-2.2994,-2.4718,-2.4688,-2.5789,-2.9986,-3.1251,0.0,0.0,0.0,0.0,0.0,0.0,0.0,0.0,0.0,0.0,0.0,0.0,0.0,0.0,0.0,0.0,0.0,-4.5799,-4.6109,-4.6786,-4.6786,-4.6786,-4.6786,-4.6447,-4.6295,-4.6261,0.0,0.0,0.0,0.0,0.0,-4.4615,-4.4615,-4.4615,-4.4615,-4.4615,-4.4615,-4.4615,-4.4615,-4.4615,-4.4564,0.0,0.0,0.0,0.0,0.0,0.0,0.0,0.0,0.0,0.0,0.0,0.0,0.0,0.0,0.0,0.0,0.0,0.0,0.0,0.0,0.0,0.0,-1.9297,-1.9945,-2.1349,-2.1385,-2.2337,-2.4283,-2.5159,-2.561,-2.5679,-2.6015,-2.5749,-2.4954,-2.444,-2.419,-2.418,0.0,-2.3785,-2.3756,-2.3587,0.0,0.0,0.0,0.0,0.0,0.0,0.0,0.0,-2.2767,-2.3157,-2.3575,-2.3449,0.0,0.0,0.0,0.0,0.0,-2.4281,-2.5566,-2.6686,-2.6337,-2.6293,-2.6265,-2.5906,-2.4647,-2.3446,-2.3041,-2.2962,-2.3275,-2.4198,-2.5317,0.0,-2.8642,0.0,0.0,0.0,0.0,0.0,0.0,0.0,0.0,0.0,0.0,0.0,0.0,0.0,0.0,0.0,0.0,0.0,0.0,-4.4615,-4.5207,-4.643,-4.6447,-4.6447,-4.6447,-4.5838,-4.5534,-4.5517,-4.4874,0.0,0.0,0.0,0.0,-4.4615,-4.4615,-4.4615,-4.4615,-4.4615,-4.4615,-4.4598,-4.4479,-4.4429,-4.4282,0.0,0.0,0.0,0.0,0.0,0.0,0.0,0.0,0.0,0.0,0.0,0.0,0.0,0.0,0.0,0.0,0.0,0.0,0.0,0.0,0.0,-1.9297,-1.9297,-2.0071,-2.1687,-2.1724,-2.2539,-2.4227,-2.5357,-2.6091,-2.6436,-2.6826,-2.6401,-2.5295,-2.4547,-2.419,-2.4208,-2.4151,-2.4113,-2.4039,0.0,0.0,0.0,0.0,0.0,0.0,0.0,0.0,0.0,-2.173,-2.2474,-2.2987,-2.2301,0.0,0.0,0.0,0.0,0.0,-2.4658,-2.6384,-2.7126,-2.5071,-2.6067,-2.7011,-2.5027,-2.4865,-2.4971,-2.4357,-2.4226,-2.5147,-2.8188,-2.8579,-2.9734,0.0,0.0,0.0,0.0,0.0,0.0,0.0,0.0,0.0,0.0,0.0,0.0,0.0,0.0,0.0,0.0,0.0,0.0,0.0,0.0,-4.4716,-4.4953,-4.4953,-4.4953,-4.4953,-4.4835,-4.4784,-4.4784,-4.4649,-4.4615,0.0,0.0,-4.4615,-4.4615,-4.4615,-4.4615,-4.4615,-4.4615,-4.4615,-4.453,-4.3842,-4.3589,-4.3487,0.0,0.0,0.0,0.0,0.0,0.0,0.0,0.0,0.0,0.0,0.0,0.0,0.0,0.0,0.0,0.0,0.0,0.0,0.0,0.0,-1.9499,-1.9932,-1.995,-2.0537,-2.1776,-2.2657,-2.3667,-2.4842,-2.6271,-2.7075,-2.7236,-2.7002,-2.6107,-2.475,-2.4373,-2.419,-2.4171,-2.3749,-2.3547,-2.3483,0.0,0.0,0.0,0.0,0.0,0.0,0.0,0.0,0.0,0.0,-2.1942,-2.2933,-2.2575,0.0,0.0,0.0,0.0,0.0,-2.3676,-2.5283,-2.6347,-2.5676,-2.764,-2.9503,-2.8622,-2.8022,-2.7447,-2.67,-2.6544,-2.6988,-2.8408,0.0,-3.2204,0.0,0.0,0.0,0.0,0.0,0.0,0.0,0.0,0.0,0.0,0.0,0.0,0.0,0.0,0.0,0.0,0.0,0.0,0.0,0.0,0.0,-4.4615,-4.4615,-4.4615,-4.4615,-4.4615,-4.4615,-4.4615,-4.4615,-4.4615,0.0,0.0,-4.4615,-4.4615,-4.4615,-4.4333,-4.3972,-4.4292,-4.4,-4.3301,-4.2946,-4.2753,-4.2604,0.0,0.0,0.0,0.0,0.0,0.0,0.0,0.0,0.0,0.0,0.0,0.0,0.0,0.0,0.0,0.0,0.0,0.0,0.0,-1.8684,-1.9381,-2.0181,-2.0603,-2.1216,-2.2069,-2.3474,-2.4585,-2.5393,-2.6825,-2.742,-2.7229,-2.6612,-2.5456,-2.3914,-2.3914,-2.3804,-2.3602,-2.2978,-2.2721,-2.2648,0.0,0.0,0.0,0.0,0.0,0.0,0.0,0.0,0.0,0.0,0.0,0.0,0.0,0.0,0.0,-2.2721,-2.2134,-2.1812,-2.3199,-2.4318,-2.5448,-2.6833,-2.8805,-3.067,-3.1541,-3.0576,-2.9511,-2.9506,-2.9368,-2.9212,0.0,-3.1427,0.0,0.0,0.0,0.0,0.0,0.0,0.0,0.0,0.0,0.0,0.0,0.0,0.0,0.0,0.0,0.0,0.0,0.0,0.0,0.0,0.0,0.0,-4.4073,-4.4073,-4.4242,-4.4615,-4.4615,-4.4513,-4.4316,-4.4316,-4.4215,-4.4073,-4.4221,-4.4259,-4.4286,-4.4404,-4.4099,-4.3605,-4.4058,-4.3491,-4.2433,-4.2433,-4.2278,-4.1957,0.0,0.0,0.0,0.0,0.0,0.0,0.0,0.0,0.0,0.0,0.0,0.0,0.0,0.0,0.0,0.0,0.0,0.0,0.0,-1.8144,-1.8555,-1.9352,-2.0876,-2.2088,-2.2896,-2.3768,-2.4585,-2.5393,-2.6264,-2.63,-2.5558,-2.5503,-2.464,-2.3098,-2.3098,-2.2666,-2.1959,-2.1904,-2.1886,-2.1812,-2.0933,0.0,0.0,0.0,0.0,0.0,0.0,0.0,0.0,0.0,0.0,0.0,0.0,0.0,-2.1886,-2.1886,-2.1272,-2.1263,-2.4383,-2.4768,-2.5016,-2.8069,-2.8208,-2.8232,-3.069,-3.0342,-3.0162,-3.253,-3.2483,-3.2212,-3.2882,-3.4895,0.0,0.0,0.0,0.0,0.0,0.0,0.0,0.0,0.0,0.0,0.0,0.0,0.0,0.0,0.0,0.0,0.0,0.0,0.0,0.0,0.0,0.0,-4.2455,-4.2455,-4.3166,-4.4615,-4.4615,-4.4198,-4.3504,-4.3504,-4.3115,-4.2509,-4.3057,-4.3291,-4.3341,-4.3828,-4.4002,-4.3973,-4.4001,-4.3525,-4.2877,-4.2877,-4.2405,-4.1835,0.0,0.0,0.0,0.0,0.0,0.0,0.0,0.0,0.0,0.0,0.0,0.0,0.0,0.0,0.0,0.0,0.0,0.0,0.0,-1.7546,-1.8463,-1.926,-2.0391,-2.14,-2.2244,-2.4016,-2.5099,-2.5393,-2.6209,-2.619,-2.5393,-2.5393,-2.4548,-2.3024,-2.3529,-2.3309,-2.252,-2.2014,-2.1794,-2.1684,-2.0299,-1.9748,0.0,0.0,0.0,0.0,0.0,0.0,0.0,0.0,-2.0089,-2.0566,-2.0878,-2.1363,-2.1794,-2.1794,-2.118,-2.1006,-2.329,-2.442,-2.5485,-2.7695,-2.8524,-2.9467,-3.1991,-3.3038,-3.3865,-3.5222,-3.5289,-3.5187,-3.5453,0.0,0.0,0.0,0.0,0.0,0.0,0.0,0.0,0.0,0.0,0.0,0.0,0.0,0.0,0.0,0.0,0.0,0.0,0.0,0.0,0.0,0.0,0.0,0.0,-4.2672,-4.3151,-4.3709,-4.3348,-4.2997,-4.2726,-4.2726,-4.2779,-4.2859,-4.3093,-4.3395,-4.3717,-4.3908,-4.3739,-4.3266,-4.2811,-4.2902,-4.3187,-4.2489,-4.2287,-4.2302,0.0,0.0,0.0,0.0,0.0,0.0,0.0,0.0,0.0,0.0,0.0,0.0,0.0,0.0,0.0,0.0,0.0,0.0,-1.568,-1.6738,-1.7693,-1.85,-1.9565,-2.0409,-2.1005,-2.341,-2.4768,-2.5026,-2.5823,-2.5805,-2.5026,-2.5026,-2.43,-2.3024,-2.3584,-2.3364,-2.2575,-2.173,-2.1382,-2.128,-1.9866,-1.9297,0.0,0.0,0.0,0.0,0.0,0.0,0.0,0.0,-1.9877,-2.0199,-2.0731,-2.1125,-2.1445,-2.1721,-2.1565,-2.1593,-2.3006,-2.4171,-2.554,-2.764,-2.9034,-3.0663,-3.3714,-3.5013,-3.6043,-3.7663,-3.7806,-3.7657,-3.7679,0.0,0.0,0.0,0.0,0.0,0.0,0.0,0.0,0.0,0.0,0.0,0.0,0.0,0.0,0.0,0.0,0.0,0.0,0.0,0.0,0.0,0.0,0.0,0.0,-4.2545,-4.2759,-4.2759,-4.2344,-4.2241,-4.2507,-4.2507,-4.2593,-4.2759,-4.2946,-4.3248,-4.36,-4.3775,-4.3537,-4.3041,-4.2524,-4.281,-4.341,-4.262,-4.2599,-4.2884,0.0,0.0,0.0,0.0,0.0,0.0,0.0,0.0,0.0,0.0,0.0,0.0,0.0,0.0,0.0,0.0,0.0,0.0,-1.5643,-1.5698,-1.6059,-1.6853,-1.8427,-1.9297,-1.9297,-2.1712,-2.3373,-2.419,-2.4989,-2.497,-2.419,-2.419,-2.3768,-2.2988,-2.3006,-2.2556,-2.1721,-2.0878,-2.0511,-2.0437,-1.962,-1.9297,-1.9297,0.0,0.0,0.0,0.0,0.0,0.0,0.0,-1.9968,-1.9591,-2.1243,-2.1198,-2.0676,-2.1537,-2.2354,-2.3171,-2.3969,-2.4208,-2.4997,-2.8198,-2.9629,-3.1367,-3.564,-3.5737,-3.6006,-3.9823,-4.002,-3.9529,-3.9589,-3.9569,0.0,0.0,0.0,0.0,0.0,0.0,0.0,0.0,0.0,0.0,0.0,0.0,0.0,0.0,0.0,0.0,0.0,0.0,0.0,0.0,0.0,0.0,0.0,-4.181,-4.181,-4.181,-4.1793,-4.22,-4.2882,-4.2882,-4.2497,-4.1853,-4.244,-4.2693,-4.275,-4.3268,-4.3515,-4.3515,-4.3515,-4.3515,-4.3515,-4.3515,-4.3515,-4.3515,0.0,0.0,0.0,0.0,0.0,0.0,0.0,0.0,0.0,0.0,0.0,0.0,0.0,0.0,0.0,0.0,0.0,0.0,-1.4842,-1.538,-1.5808,-1.6059,-1.7601,-1.8463,-1.8463,-2.0291,-2.1942,-2.3354,-2.3602,-2.3602,-2.3354,-2.3354,-2.2923,-2.2216,-2.3345,-2.274,-2.0914,-2.1253,-2.107,-2.0437,-1.962,-1.9297,-1.9297,0.0,0.0,0.0,0.0,0.0,0.0,0.0,0.0,0.0,-1.9885,-2.0674,-2.1345,-2.0996,-2.1887,-2.3043,-2.3281,-2.5016,-2.709,-2.862,-3.177,-3.4972,-3.6818,-3.7523,-3.8473,-4.0952,-4.0858,-4.0349,-4.037,0.0,0.0,0.0,0.0,0.0,0.0,0.0,0.0,0.0,0.0,0.0,0.0,0.0,0.0,0.0,0.0,0.0,0.0,0.0,0.0,0.0,0.0,0.0,0.0,0.0,-4.2422,-4.244,-4.2809,-4.2689,-4.2125,-4.2125,-4.2252,-4.244,-4.2616,-4.292,-4.3268,-4.3427,-4.3515,-4.3515,-4.3515,-4.3515,-4.3515,-4.3515,-4.3515,-4.3515,0.0,0.0,0.0,0.0,0.0,0.0,0.0,0.0,0.0,0.0,-1.4004,-1.4493,0.0,0.0,0.0,0.0,0.0,0.0,-1.4493,-1.4952,-1.5362,-1.5698,-1.694,-1.8071,-1.9025,-1.9685,-2.0519,-2.1528,-2.2208,-2.252,-2.2538,-2.2841,-2.2731,-2.2336,-2.3621,-2.3199,-2.152,-2.1721,-2.129,-2.0437,-1.962,-1.9297,-1.9297,0.0,0.0,0.0,0.0,0.0,0.0,0.0,0.0,0.0,-1.8922,-1.9738,-2.0692,-2.0189,-2.1447,-2.3208,-2.4162,-2.608,-2.8374,-3.0785,-3.3592,-3.6413,-3.8836,-3.9873,-4.0709,-4.2182,-4.1873,-4.1425,-4.1749,0.0,0.0,0.0,0.0,0.0,0.0,0.0,0.0,0.0,0.0,0.0,0.0,0.0,0.0,0.0,0.0,0.0,0.0,0.0,0.0,0.0,0.0,0.0,0.0,0.0,0.0,-4.3014,-4.3357,-4.3142,-4.2483,-4.2483,-4.2676,-4.3014,-4.3014,-4.3196,-4.3515,-4.3515,-4.3515,-4.3515,-4.3515,-4.3515,-4.3515,-4.3515,-4.3515,-4.3515,0.0,0.0,-0.971,-0.9702,0.0,0.0,0.0,0.0,0.0,-1.3193,-1.3965,-1.4511,0.0,0.0,0.0,-1.4516,-1.4528,-1.4528,0.0,-1.4516,-1.4841,-1.557,-1.6438,-1.799,-2.0346,-1.9601,-1.9224,-1.9297,-2.0821,-2.1574,-2.1592,-2.2483,-2.2896,-2.2933,-2.3731,-2.3566,-2.2621,-2.1886,-2.1033,-2.0099,-1.9455,-1.9187,-1.9187,-1.9187,0.0,0.0,0.0,0.0,0.0,0.0,0.0,0.0,-1.8353,-1.8647,-1.9297,-1.9205,-2.0941,-2.3391,-2.575,-2.7126,-2.9035,-3.372,-3.5169,-3.6637,-4.1167,-4.2249,-4.2525,-4.3331,0.0,-4.2635,0.0,0.0,0.0,0.0,0.0,0.0,0.0,0.0,0.0,0.0,0.0,0.0,0.0,0.0,0.0,0.0,0.0,0.0,0.0,0.0,0.0,0.0,0.0,0.0,0.0,0.0,0.0,0.0,-4.3515,-4.3515,-4.3515,-4.3515,-4.3515,-4.3515,-4.3515,-4.3515,-4.3515,-4.3515,-4.3515,-4.3515,-4.3515,-4.3515,-4.3515,-4.3515,-4.3515,-4.3515,0.0,0.0,-0.9765,-0.9713,0.0,0.0,0.0,0.0,-1.2533,-1.2381,-1.371,-1.4614,-1.4505,-1.4587,0.0,-1.4661,-1.4751,-1.4766,-1.4666,-1.4661,-1.4701,-1.4756,-1.6138,-1.7741,-1.951,-1.8775,-1.8665,-1.9297,-1.9664,-1.9848,-1.9866,-2.1353,-2.2069,-2.2088,-2.2905,-2.2079,-2.0087,-1.9903,-1.8996,-1.7715,-1.8163,-1.8353,-1.8353,-1.8353,-1.8353,0.0,0.0,0.0,0.0,0.0,0.0,0.0,-1.8353,-1.8647,-1.9187,-1.8537,-2.0115,-2.2455,-2.4226,-2.6686,-2.9592,-3.3183,-3.6468,-3.9294,-4.0967,-4.1864,-4.2525,-4.3331,-4.3368,0.0,0.0,0.0,0.0,0.0,0.0,0.0,0.0,0.0,0.0,0.0,0.0,0.0,0.0,0.0,0.0,0.0,0.0,0.0,0.0,0.0,0.0,0.0,0.0,0.0,-4.3515,-4.3515,-4.3515,0.0,-4.3515,-4.3515,-4.3515,-4.3515,-4.3515,-4.3515,-4.3515,-4.3515,-4.3515,-4.3515,-4.3515,-4.3515,-4.3515,-4.3515,-4.3515,-4.3515,-4.3515,-4.3515,0.0,0.0,0.0,0.0,0.0,0.0,0.0,0.0,-1.2362,-1.2269,-1.3677,-1.4677,-1.4598,-1.4661,0.0,0.0,-1.4818,-1.4877,-1.4799,-1.4742,-1.4834,-1.5154,-1.6343,-1.7422,-1.8321,-1.7554,-1.7504,-1.8246,-1.8246,-1.8812,-1.9895,-2.1206,-2.2014,-2.2391,-2.2804,-2.1832,-1.9858,-1.9462,-1.8372,-1.6945,-1.7348,-1.7539,-1.7539,-1.7539,-1.7539,-1.7539,-1.7539,0.0,0.0,0.0,0.0,0.0,0.0,0.0,-1.8647,-1.8225,-1.9565,-2.1785,-2.4593,-2.7134,-3.0051,-3.4468,-3.7734,-4.0102,-4.0912,-4.1407,-4.1846,-4.2268,0.0,0.0,0.0,0.0,0.0,0.0,0.0,0.0,0.0,0.0,0.0,0.0,0.0,0.0,0.0,0.0,0.0,0.0,0.0,0.0,0.0,0.0,0.0,0.0,0.0,0.0,-4.3515,-4.3515,-4.3515,-4.3515,-4.3515,-4.3515,-4.3515,-4.3515,-4.3515,-4.3515,-4.3515,-4.3515,-4.3515,-4.3515,-4.3515,-4.3515,-4.3515,-4.3515,-4.3515,-4.3515,-4.3515,-4.3515,0.0,0.0,0.0,0.0,0.0,0.0,0.0,0.0,0.0,-1.2406,-1.3766,-1.4747,-1.4742,-1.4625,-1.4541,0.0,0.0,0.0,-1.4703,-1.4729,-1.5082,-1.5905,-1.6571,-1.704,-1.7289,-1.6506,-1.6506,-1.7312,-1.7033,-1.828,-2.0951,-2.1528,-2.2226,-2.2988,-2.2841,-2.185,-2.0236,-1.9289,-1.7968,-1.6505,-1.6633,-1.6688,-1.6688,-1.6688,-1.6688,-1.6688,-1.6688,-1.6688,-1.6835,-1.7777,0.0,0.0,0.0,0.0,-1.7869,-1.7729,-1.8823,-2.0878,-2.4547,-2.7336,-3.0473,-3.5734,-3.83,-3.9662,-4.0341,-4.0691,-4.0875,-4.0875,0.0,0.0,0.0,0.0,0.0,0.0,0.0,0.0,0.0,0.0,0.0,0.0,0.0,0.0,0.0,0.0,0.0,0.0,0.0,0.0,0.0,0.0,0.0,0.0,0.0,-4.3515,-4.3515,-4.3515,-4.3515,-4.3515,-4.3515,-4.3515,-4.3515,-4.3515,-4.3515,-4.3515,-4.3515,-4.3515,-4.3515,-4.3515,-4.3515,-4.3515,-4.3515,-4.3515,-4.3515,-4.3515,-4.3515,-4.3515,0.0,0.0,0.0,0.0,0.0,0.0,0.0,0.0,0.0,0.0,-1.3887,-1.4938,-1.4872,-1.4296,-1.3913,-1.3913,-1.3994,-1.401,-1.3953,0.0,0.0,-1.6044,-1.6176,-1.6566,-1.7289,-1.6506,-1.6769,-1.8142,-1.6735,-1.8328,-2.2657,-2.2069,-2.2226,-2.2969,-2.2263,-2.1023,-1.937,-1.7869,-1.6285,-1.4879,-1.5582,-1.5857,-1.5857,-1.5857,-1.5857,-1.5857,-1.5857,-1.5857,-1.6096,-1.7601,-1.8089,0.0,0.0,0.0,0.0,-1.6224,-1.716,-1.8841,-2.0786,-2.5574,-3.0889,-3.4454,-3.6597,-3.7841,-3.797,0.0,-4.0065,0.0,0.0,0.0,0.0,0.0,0.0,0.0,0.0,0.0,0.0,0.0,0.0,0.0,0.0,0.0,0.0,0.0,0.0,0.0,0.0,0.0,0.0,0.0,-4.3515,-4.3515,-4.3515,0.0,-4.3515,-4.3515,-4.3515,-4.3515,-4.3515,-4.3515,-4.3515,-4.3515,-4.3515,-4.3515,-4.3515,-4.3515,-4.3515,-4.3515,-4.3515,-4.3515,-4.3515,-4.3515,-4.3515,-4.3515,-4.3515,-4.3515,0.0,0.0,0.0,0.0,0.0,0.0,0.0,0.0,0.0,0.0,0.0,-1.4493,-1.4908,-1.425,-1.3795,-1.3795,-1.3456,-1.318,-1.3087,-1.3829,0.0,-1.4805,-1.523,-1.5672,-1.6112,-1.5785,-1.6079,-1.7079,-1.6354,-1.7931,-2.1593,-2.1739,-2.2942,-2.4951,-2.3694,-2.2235,-2.0564,-1.8456,-1.664,-1.516,-1.5068,-1.5839,-1.6903,-1.5545,-1.5876,-1.6867,-1.5509,-1.5031,-1.5264,-1.6897,-1.7429,-1.7367,-1.7018,0.0,0.0,0.0,-1.6518,-1.8273,-2.2189,-2.6319,-3.0289,-3.3518,-3.522,-3.6358,-3.729,-3.8062,0.0,0.0,0.0,0.0,0.0,0.0,0.0,0.0,0.0,0.0,0.0,0.0,0.0,0.0,0.0,0.0,0.0,0.0,0.0,0.0,0.0,0.0,0.0,-4.3259,-4.3515,-4.3515,-4.3515,0.0,-4.3515,-4.3515,-4.3515,-4.3515,-4.3515,-4.3515,-4.3515,-4.3515,-4.3515,-4.3515,-4.3515,-4.3515,-4.3515,-4.3515,-4.3515,-4.3515,-4.3515,-4.3515,-4.3515,-4.3515,-4.3515,-4.3515,0.0,0.0,0.0,0.0,0.0,0.0,0.0,0.0,0.0,0.0,0.0,-1.4137,-1.4969,0.0,0.0,0.0,-1.2818,-1.2423,-1.2546,0.0,0.0,0.0,-1.4602,-1.4996,-1.4862,-1.4862,-1.5183,-1.5828,-1.5796,-1.7502,-2.0872,-2.1499,-2.352,-2.6528,-2.4924,-2.3318,-2.1647,-1.9363,-1.7711,-1.6561,-1.5967,-1.6793,-1.8243,-1.6885,-1.7502,-1.8822,-1.6544,-1.576,-1.5956,-1.688,-1.7073,-1.6915,0.0,0.0,0.0,0.0,0.0,-1.7477,-2.2739,-2.5621,-2.7941,-3.1164,-3.3036,-3.4472,0.0,0.0,0.0,0.0,0.0,0.0,0.0,0.0,0.0,0.0,0.0,0.0,0.0,0.0,0.0,0.0,0.0,0.0,0.0,0.0,0.0,0.0,0.0,0.0,-4.2011,-4.2561,-4.2892,-4.2892,-4.2892,-4.2892,-4.2892,-4.2892,-4.2892,-4.2892,-4.2892,-4.2892,-4.2892,-4.2892,-4.3002,-4.3221,-4.3423,-4.3515,-4.3515,-4.3515,-4.3515,-4.3515,-4.3515,-4.3515,-4.3515,-4.3515,-4.3515,-4.3515,0.0,0.0,0.0,0.0,0.0,0.0,0.0,0.0,0.0,0.0,0.0,-1.422,-1.509,-1.3731,-1.2752,-1.2752,-1.1966,-1.1812,-1.2637,0.0,0.0,0.0,-1.4722,0.0,-1.3995,-1.3975,-1.4329,-1.5057,-1.4923,-1.7258,-2.1829,-2.1799,-2.352,-2.6528,-2.4924,-2.3318,-2.1684,-1.9976,-1.9187,-1.9113,-1.9077,-1.9132,-1.9407,-2.0858,-2.1618,-2.1648,-1.9726,-1.9203,0.0,0.0,0.0,0.0,-1.7046,-1.6575,-1.5828,0.0,0.0,0.0,-1.9669,-2.1455,-2.2951,-2.6172,-2.9292,-3.1806,0.0,0.0,0.0,0.0,0.0,0.0,0.0,0.0,0.0,0.0,0.0,0.0,0.0,0.0,0.0,0.0,0.0,0.0,0.0,0.0,0.0,0.0,0.0,0.0,-4.115,-4.1187,-4.1224,-4.1224,-4.1224,-4.1224,-4.1224,-4.1224,-4.1224,-4.1224,-4.1224,-4.1224,-4.1224,-4.1224,-4.1644,-4.2396,-4.3167,-4.3515,-4.3515,-4.3515,-4.3515,-4.3515,-4.3515,-4.3515,-4.3515,-4.3515,-4.3515,-4.3515,0.0,0.0,0.0,0.0,0.0,0.0,0.0,0.0,0.0,0.0,0.0,0.0,0.0,-1.3698,-1.2702,-1.2702,-1.1389,0.0,0.0,0.0,0.0,0.0,-1.3923,-1.4478,-1.4728,-1.4187,-1.4012,-1.4227,-1.4187,-1.5513,-1.8149,-1.9723,-2.1295,-2.2844,-2.3796,-2.3878,-2.3208,-2.0996,-2.0071,-2.0071,-2.0071,-2.1015,-2.24,-2.1959,-2.282,-2.3924,-2.1708,0.0,0.0,0.0,0.0,0.0,-1.7884,-1.725,-1.6429,-1.5254,-1.5535,-1.6655,-1.8571,-2.0415,-2.2455,-2.5154,-2.7467,-2.9579,-3.1403,0.0,0.0,0.0,0.0,0.0,0.0,0.0,0.0,0.0,0.0,0.0,0.0,0.0,0.0,0.0,0.0,0.0,0.0,0.0,0.0,0.0,0.0,0.0,-4.0322,-4.0836,-4.1095,-4.1095,-4.1095,-4.1095,-4.1095,-4.1095,-4.1095,-4.1095,-4.1095,-4.1095,-4.1095,-4.1095,-4.126,-4.1535,-4.1827,-4.2543,-4.346,-4.2928,-4.302,-4.3515,-4.3515,-4.3515,-4.3515,-4.3515,-4.3515,-4.3515,0.0,0.0,0.0,-1.1021,0.0,-1.0538,-1.0538,-1.0538,-1.106,-1.2507,0.0,0.0,0.0,0.0,-1.2986,-1.2721,-1.137,-1.0538,-1.0538,-1.1079,0.0,0.0,0.0,-1.4036,-1.4349,-1.3788,-1.3476,-1.3424,-1.3357,-1.4119,-1.5678,-1.7858,-1.9245,-1.9997,-2.1589,-2.3003,-2.4061,-2.2144,-2.1502,-2.1777,-2.2042,-2.3125,-2.4603,-2.4622,-2.5508,-2.648,0.0,0.0,0.0,0.0,0.0,0.0,-1.8954,-1.7639,-1.6257,-1.5226,-1.5838,-1.6932,-1.7432,-1.909,-2.1195,0.0,0.0,-2.6528,0.0,0.0,0.0,0.0,0.0,0.0,0.0,0.0,0.0,0.0,0.0,0.0,0.0,0.0,0.0,0.0,0.0,0.0,0.0,0.0,0.0,0.0,0.0,0.0,-3.9496,-4.001,-4.0288,-4.0288,-4.0288,-4.0288,-4.0288,-4.0288,-4.0288,-4.0288,-4.0288,-4.0288,-4.0288,-4.0288,-4.0435,-4.0689,-4.0398,-4.1222,-4.2653,-4.2121,-4.2213,-4.269,-4.269,-4.2855,-4.3094,-4.3094,-4.3276,-4.3515,-1.1573,-1.2731,-1.3613,-1.2834,-1.2007,-1.1447,-1.1447,-1.1447,-1.1755,-1.2623,0.0,0.0,0.0,0.0,0.0,-1.2815,-1.1949,-1.1427,-1.1408,-1.1389,-1.137,-1.1408,-1.2978,-1.3519,-1.2757,-1.2702,-1.2702,-1.2702,-1.2487,-1.3205,-1.4822,-1.6373,-1.7534,-1.8346,-1.8425,-2.0543,-2.4007,-2.3199,-2.3382,-2.4263,-2.5026,-2.5393,-2.5852,-2.898,-2.9869,0.0,-2.8283,-2.7518,0.0,-2.4957,0.0,0.0,-2.0179,-1.7686,-1.527,-1.5119,-1.572,-1.6375,0.0,0.0,0.0,0.0,0.0,0.0,0.0,0.0,0.0,0.0,0.0,0.0,0.0,0.0,0.0,0.0,0.0,0.0,0.0,0.0,0.0,0.0,0.0,0.0,0.0,0.0,0.0,0.0,0.0,-3.867,-3.8707,-3.8707,-3.8707,-3.8707,-3.8707,-3.8707,-3.8707,-3.8707,-3.8707,-3.8707,-3.8707,-3.8707,-3.8707,-3.8707,-3.9129,-3.9808,-3.9038,-3.9588,-4.1022,-4.104,-4.1077,-4.1095,-4.1095,-4.1572,-4.2268,-4.2268,-4.2763,-4.3441,-1.1462,-1.2277,-1.2967,-1.2741,-1.2507,-1.2334,-1.2334,-1.2334,-1.2639,0.0,0.0,0.0,-1.5173,-1.4978,-1.4497,-1.3632,-1.2813,-1.2065,-1.1447,-1.081,-1.0733,-1.137,-1.2447,-1.3195,-1.3555,-1.3005,-1.2702,-1.2702,-1.2014,-1.1915,-1.2405,-1.4061,-1.5536,-1.6834,-1.7444,-1.8909,-2.0888,-1.9977,-2.1379,-2.4171,-2.3804,-2.5419,0.0,0.0,0.0,0.0,0.0,-2.992,-2.9152,0.0,-2.6479,-2.4062,0.0,-1.8945,-1.7688,-1.7116,-1.7914,-1.8688,-1.7321,0.0,0.0,0.0,0.0,0.0,0.0,0.0,0.0,0.0,0.0,0.0,0.0,0.0,0.0,0.0,0.0,0.0,0.0,0.0,0.0,0.0,0.0,0.0,0.0,0.0,0.0,0.0,0.0,-3.8098,-3.867,-3.8707,-3.8707,-3.8707,-3.8707,-3.8707,-3.8707,-3.8707,-3.8707,-3.8707,-3.8707,-3.8707,-3.8707,-3.8707,-3.8817,-3.9019,-3.8799,-3.8946,-3.9423,-3.9992,-4.0579,-4.1095,-4.1095,-4.1242,-4.1425,-4.1425,-4.1572,-4.1772,-1.2493,-1.3159,-1.3851,-1.422,-1.3986,-1.3871,-1.4239,-1.3986,-1.4041,0.0,0.0,0.0,-1.6215,-1.6561,-1.6292,-1.5096,-1.4214,-1.3236,-1.2026,-1.1137,-1.0714,-1.0848,-1.2045,-1.2931,-1.3385,-1.3272,-1.3043,-1.2702,-1.1831,-1.1214,-1.0887,-1.2231,-1.3341,-1.4221,-1.5071,-1.6299,-1.768,-1.6742,-1.9001,-2.3354,-2.4644,0.0,0.0,-3.0278,-3.1213,0.0,0.0,0.0,-3.0835,-3.0633,-2.8491,0.0,0.0,-2.058,-1.9345,-1.8912,-1.9653,-2.0321,-1.8939,-1.9736,-2.0916,0.0,0.0,0.0,0.0,0.0,0.0,0.0,0.0,0.0,0.0,0.0,0.0,0.0,0.0,0.0,0.0,0.0,0.0,0.0,0.0,0.0,0.0,0.0,0.0,0.0,-3.7257,-3.7202,-3.7661,-3.7698,-3.7698,-3.7698,-3.7698,-3.7698,-3.7698,-3.7698,-3.7698,-3.7698,-3.8046,-3.8193,-3.8212,-3.856,-3.8707,-3.8707,-3.8707,-3.8707,-3.8744,-3.9203,-3.968,-4.0086,-4.0086,-4.0304,-4.0598,-4.0598,-4.0802,-4.1095,0.0,-1.4652,-1.5462,-1.6349,-1.5868,-1.5673,-1.6638,-1.6042,-1.5827,0.0,-1.6926,-1.7276,-1.8161,-1.8799,-1.8549,-1.7042,-1.5945,-1.4676,-1.3084,-1.1985,-1.1041,-1.0288,-1.1812,-1.2644,-1.2567,-1.3442,-1.3462,-1.2567,-1.1774,-1.0944,-1.0113,-1.0887,-1.1312,-1.1447,-1.2315,-1.3514,-1.4848,-1.4461,-1.7223,-2.2147,-2.5889,-2.782,0.0,0.0,-3.2864,-3.2572,-3.3299,-3.2934,-3.2131,-3.2204,-2.982,0.0,0.0,-2.2752,-2.1077,-2.0692,-2.1212,-2.1712,-2.0795,-2.1068,-2.1696,-2.211,0.0,0.0,-2.3598,-2.355,0.0,0.0,0.0,0.0,0.0,0.0,0.0,0.0,0.0,0.0,0.0,0.0,0.0,0.0,0.0,0.0,0.0,0.0,0.0,-3.6303,-3.6303,-3.6266,-3.6156,-3.6248,-3.6303,-3.6303,-3.6303,-3.6303,-3.6303,-3.6303,-3.6303,-3.6303,-3.7015,-3.7364,-3.7401,-3.8193,-3.8579,-3.8579,-3.867,-3.8707,-3.8707,-3.8707,-3.8707,-3.8707,-3.8707,-3.9148,-3.9772,-3.9772,-4.0212,-4.082,-1.3995,-1.4654,-1.5462,-1.6349,-1.6349,-1.6753,-1.8285,-1.7773,-1.7773,-1.9346,-1.9558,-2.0139,-2.1643,-2.0754,-1.9908,-1.9596,-1.7523,-1.5811,-1.4772,-1.2637,-1.1312,-1.1156,-1.2142,-1.2373,-1.1678,-1.3132,-1.3151,-1.1658,-1.1485,-1.0944,-1.0094,-1.0269,-1.0733,-1.1447,-1.2315,-1.3226,-1.4325,-1.7436,-1.9744,-2.1391,-2.206,0.0,-3.0239,-3.113,-3.26,-3.4232,-3.4383,-3.4305,-3.3966,-3.2819,-3.1625,-3.0093,0.0,0.0,-2.587,-2.312,-2.3389,-2.4212,-2.2584,-2.3099,-2.3805,-2.2576,0.0,0.0,0.0,-2.2501,0.0,0.0,0.0,0.0,0.0,0.0,0.0,0.0,0.0,0.0,0.0,0.0,0.0,0.0,0.0,0.0,0.0,0.0,-3.6303,-3.6303,-3.6303,-3.5991,-3.5298,-3.5917,-3.6303,-3.6303,-3.6303,-3.6303,-3.6303,-3.6303,-3.6303,-3.6303,-3.645,-3.6523,-3.656,-3.7382,-3.7731,-3.7768,-3.8414,-3.8707,-3.8707,-3.8707,-3.8707,-3.8707,-3.8707,-3.8799,-3.8927,-3.8927,-3.9038,-3.9184,-1.4693,-1.4999,-1.5653,-1.6921,-1.7125,-1.7811,-1.9923,-1.9538,-1.9619,-2.1312,-2.1927,-2.2355,-2.2759,-2.2043,-2.1216,-2.0365,-1.8731,-1.7019,-1.5308,-1.4,-1.2926,-1.2084,-1.2849,-1.3096,-1.2654,-1.3901,-1.3731,-1.2045,-1.2045,-1.1389,-1.0113,-1.0538,-1.1423,-1.2673,-1.3096,-1.4234,-1.5898,-1.7487,-1.9321,-2.1404,-2.3866,0.0,-3.1133,-3.2197,-3.3633,-3.5096,-3.5096,-3.5096,-3.4772,-3.2621,-3.1809,0.0,0.0,-2.8145,-2.8088,0.0,-2.5947,-2.6201,-2.4436,-2.4359,-2.4684,-2.4247,0.0,0.0,0.0,0.0,0.0,0.0,0.0,0.0,0.0,0.0,0.0,0.0,0.0,0.0,0.0,0.0,0.0,0.0,0.0,0.0,0.0,0.0,-3.4009,-3.4431,-3.4835,-3.4853,-3.4417,-3.4816,-3.5055,-3.5055,-3.5055,-3.5055,-3.5055,-3.5055,-3.5055,-3.5055,-3.5459,-3.574,-3.5935,-3.6735,-3.7168,-3.7333,-3.8012,-3.8293,-3.8315,-3.86,-3.8707,-3.8707,-3.8707,-3.8707,-3.8707,-3.8707,-3.8707,-3.8707,-1.5395,-1.5353,-1.5773,-1.7299,-1.7641,-1.8521,-2.0908,-2.0712,-2.0908,-2.2586,-2.3682,-2.4125,-2.3586,-2.324,-2.2643,-2.1596,-2.0269,-1.8612,-1.6558,-1.5808,-1.4926,-1.3719,-1.3827,-1.3975,-1.4148,-1.467,-1.4137,-1.2449,-1.2449,-1.1639,-1.0113,-1.0983,-1.2214,-1.369,-1.419,-1.5635,-1.7676,-1.7409,0.0,-2.2364,0.0,-2.9301,-3.088,-3.2935,-3.4257,-3.5038,-3.5385,-3.55,-3.5133,-3.2687,0.0,-3.1852,-2.9948,-2.9473,0.0,0.0,0.0,0.0,0.0,0.0,0.0,0.0,0.0,-2.4663,0.0,0.0,0.0,-2.5354,0.0,0.0,0.0,0.0,0.0,0.0,0.0,0.0,0.0,0.0,0.0,0.0,0.0,0.0,0.0,0.0,-3.1348,-3.2302,-3.2708,-3.3112,-3.355,-3.3568,-3.3642,-3.3807,-3.3855,-3.3855,-3.3807,-3.3855,-3.3855,-3.3807,-3.4504,-3.4984,-3.528,-3.6155,-3.6667,-3.69,-3.7449,-3.7681,-3.7692,-3.8139,-3.8409,-3.8556,-3.8664,-3.8707,-3.8707,-3.8707,-3.8707,-3.8707,-1.5398,-1.5353,-1.5587,-1.6484,-1.7272,-1.838,-2.0165,-2.0365,-2.0908,-2.2586,-2.4178,-2.5423,-2.6082,-2.4836,-2.4471,-2.5774,-2.3019,-2.1096,-2.0792,-1.8003,-1.6583,-1.7103,-1.5058,-1.4264,-1.5038,-1.4382,-1.3228,-1.1543,-1.1543,-1.1041,-1.0113,-1.0983,-1.1908,-1.2931,-1.5198,-1.6753,-1.7834,-1.9992,-2.2425,0.0,-2.6306,-2.7315,0.0,-3.0976,-3.2487,-3.341,-3.4942,-3.55,-3.5327,0.0,-3.3897,-3.3494,0.0,-3.0769,-3.0948,0.0,0.0,0.0,0.0,0.0,0.0,0.0,-2.7365,0.0,0.0,0.0,-2.4305,-2.339,0.0,0.0,0.0,0.0,0.0,0.0,0.0,0.0,0.0,0.0,0.0,0.0,0.0,0.0,0.0,0.0,0.0,-3.1427,-3.0411,-3.0607,-3.2632,-3.2729,-3.3073,-3.377,-3.4031,-3.4043,-3.3788,-3.4031,-3.4031,-3.3788,-3.4136,-3.4313,-3.4398,-3.5492,-3.6018,-3.6066,-3.659,-3.6844,-3.6844,-3.6898,-3.7344,-3.805,-3.8512,-3.8707,-3.8707,-3.8707,-3.8707,-3.8707,-1.5408,-1.5377,-1.5609,-1.6426,-1.6823,-1.7772,-1.9976,-2.1952,-2.3442,-2.4154,-2.5308,-2.639,-2.7255,-2.5813,-2.5486,-2.7198,0.0,-2.2797,0.0,0.0,-1.935,-1.9215,-1.7696,-1.6792,-1.6657,-1.5346,-1.3827,-1.2142,-1.1658,-1.0944,-1.0133,-1.1504,-1.3142,-1.4987,-1.7048,-1.9242,-2.1455,0.0,-2.3158,0.0,0.0,0.0,0.0,-3.102,-3.3237,-3.45,-3.5231,-3.55,-3.5288,0.0,-3.3449,0.0,0.0,0.0,0.0,0.0,0.0,0.0,0.0,0.0,0.0,0.0,0.0,0.0,0.0,0.0,-2.5038,0.0,0.0,0.0,0.0,0.0,0.0,0.0,0.0,0.0,0.0,0.0,0.0,0.0,0.0,0.0,0.0,0.0,0.0,0.0,0.0,-3.007,-3.1536,-3.2545,-3.3159,-3.334,-3.4087,-3.4334,-3.4031,-3.4353,-3.4431,-3.4318,-3.4442,-3.4563,-3.4735,-3.5221,-3.5512,-3.5694,-3.608,-3.6238,-3.6253,-3.6566,-3.6894,-3.7229,-3.7446,-3.8109,-3.8919,-3.8919,-3.8829,-3.8707,-1.5703,-1.5564,-1.5575,-1.6171,-1.6601,-1.7749,-2.0279,-2.3113,-2.4962,-2.4962,-2.5712,-2.6755,-2.8088,-2.6909,0.0,0.0,-2.6818,-2.501,0.0,0.0,-2.1947,-2.137,-2.0065,-1.9161,-1.8757,-1.6657,-1.4849,-1.3392,-1.2293,-1.1427,-1.0848,-1.2332,-1.414,-1.6234,-1.8392,-2.0989,-2.3721,0.0,-2.4259,-2.5491,-2.587,-2.6942,-2.8659,-3.1737,-3.3987,-3.55,-3.55,-3.55,-3.5269,-3.3757,-3.3256,0.0,-3.2987,0.0,0.0,0.0,0.0,0.0,-2.8929,0.0,0.0,0.0,0.0,0.0,0.0,0.0,0.0,0.0,0.0,0.0,0.0,0.0,0.0,0.0,0.0,0.0,0.0,0.0,0.0,0.0,0.0,0.0,0.0,0.0,0.0,0.0,0.0,0.0,-3.0452,-3.1695,-3.2594,-3.3086,-3.3983,-3.4429,-3.4345,-3.4645,-3.4764,-3.4694,-3.4764,-3.4917,-3.5105,-3.5182,-3.5312,-3.5498,-3.5636,-3.5673,-3.5719,-3.61,-3.6356,-3.6483,-3.6567,-3.7349,-3.8465,-3.8613,-3.8685,-3.8704,-1.6484,-1.5977,-1.5409,-1.5437,-1.6776,-1.8698,-2.1177,-2.3033,-2.4149,-2.4149,0.0,0.0,0.0,0.0,0.0,0.0,0.0,-2.8242,-2.6582,0.0,-2.4014,-2.3975,-2.1581,-2.0615,0.0,-1.8157,-1.6022,-1.5115,-1.3467,-1.2644,-1.2623,-1.3462,-1.4363,-1.5385,-1.875,-2.1216,-2.2951,-2.4538,-2.6659,-2.8876,-2.8126,-2.9775,-3.2718,0.0,-3.3987,-3.55,-3.55,0.0,0.0,-3.4449,-3.4167,0.0,0.0,0.0,0.0,0.0,0.0,0.0,0.0,0.0,0.0,-2.8268,0.0,0.0,0.0,0.0,-2.7109,0.0,0.0,0.0,0.0,0.0,-2.3486,-2.2631,0.0,0.0,0.0,0.0,0.0,0.0,0.0,0.0,0.0,0.0,0.0,0.0,0.0,0.0,-2.9445,-2.9681,-3.0857,-3.3305,-3.3663,-3.4099,-3.4684,-3.4954,-3.4954,-3.4694,-3.4963,-3.5096,-3.5105,-3.5369,-3.5493,-3.5486,-3.5226,-3.5126,-3.5126,-3.5136,-3.5458,-3.5943,-3.6207,-3.6493,-3.6838,-3.7358,-3.8043,-3.875,-1.6758,-1.6934,-1.6933,-1.6366,-1.673,-1.8121,-2.1138,-2.3519,0.0,0.0,0.0,0.0,0.0,-3.0891,-3.1218,0.0,0.0,-3.0333,-2.9192,-2.7544,0.0,0.0,0.0,-2.2932,0.0,0.0,-1.7738,-1.6849,-1.4596,-1.3788,-1.4349,-1.4036,-1.4959,-1.6965,-1.9269,-2.1846,0.0,0.0,0.0,0.0,0.0,-3.091,-3.2968,0.0,0.0,-3.55,-3.55,-3.55,0.0,-3.5154,-3.468,-3.4244,-3.4526,-3.3641,-3.2487,-3.2487,-3.191,0.0,0.0,0.0,-3.1859,-2.9242,0.0,0.0,0.0,0.0,0.0,0.0,0.0,0.0,0.0,0.0,-2.3904,-2.3616,-2.2651,-2.1562,0.0,0.0,0.0,0.0,0.0,0.0,0.0,0.0,0.0,0.0,0.0,0.0,0.0,-2.9217,-3.0433,-3.1132,-3.3054,-3.4091,-3.4089,-3.4944,-3.5312,-3.5223,-3.5312,-3.5369,-3.5369,-3.5453,-3.55,-3.5493,-3.5215,-3.5105,-3.5105,-3.5105,-3.5214,-3.538,-3.5479,-3.5893,-3.6503,-3.7038,-3.7305,-3.7487,-1.7734,-1.7832,-1.7812,-1.7266,0.0,-1.9438,-2.2146,0.0,0.0,0.0,-2.8917,0.0,-3.2666,0.0,-3.2699,0.0,-3.3199,-3.1833,-3.0044,-2.9506,0.0,-2.7486,-2.6433,0.0,0.0,0.0,0.0,-1.9042,-1.6823,-1.5876,-1.6113,-1.5251,-1.5901,-1.7855,-1.9542,-2.2007,-2.4979,-2.6443,-2.7736,0.0,0.0,-3.1872,0.0,0.0,-3.4737,0.0,0.0,-3.55,-3.55,-3.55,-3.5141,-3.4757,-3.5327,-3.4526,-3.3353,-3.3353,-3.2776,-3.2006,-3.1442,-3.2083,0.0,0.0,-3.0448,0.0,-2.764,0.0,0.0,0.0,0.0,0.0,0.0,0.0,-2.4432,-2.4149,-2.2893,-2.1562,0.0,0.0,0.0,0.0,0.0,0.0,0.0,0.0,-2.324,-2.4432,0.0,0.0,0.0,0.0,-2.9697,-3.0122,-3.2192,-3.3511,-3.3945,-3.4676,-3.5192,-3.55,-3.55,-3.55,-3.55,-3.55,-3.55,-3.5493,-3.5312,-3.5239,-3.5239,-3.5239,-3.519,-3.5105,-3.5105,-3.5368,-3.5818,-3.6436,-3.6817,-3.7126,-1.9375,-1.8769,0.0,0.0,-2.0285,0.0,0.0,0.0,-2.811,0.0,-2.959,-3.1255,-3.2864,-3.3038,-3.3365,-3.4186,-3.4263,0.0,-2.9569,-3.0852,0.0,0.0,-2.8324,-2.8382,-2.6813,0.0,0.0,0.0,-1.9944,-1.8694,-1.7917,-1.7057,-1.7137,-1.8033,-1.9635,0.0,-2.4281,-2.6819,-2.889,-3.0538,-3.141,-3.2737,-3.4205,-3.4244,0.0,-3.55,-3.55,-3.55,-3.55,-3.55,-3.55,-3.55,-3.55,-3.493,-3.4263,-3.4205,-3.3603,-3.2949,-3.291,-3.2929,-3.2776,-3.1968,0.0,0.0,0.0,0.0,-2.9808,0.0,0.0,0.0,0.0,0.0,0.0,-2.4298,-2.3432,-2.2293,0.0,0.0,0.0,0.0,0.0,0.0,0.0,-2.1773,-2.1731,-2.4885,-2.2942,-2.3062,0.0,0.0,0.0,-3.0212,-3.1192,-3.2468,-3.4071,-3.4167,-3.4622,-3.5442,-3.5481,-3.55,-3.55,-3.55,-3.55,-3.55,-3.55,-3.55,-3.55,-3.55,-3.5354,-3.5113,-3.5113,-3.4963,-3.4829,-3.5572,-3.6529,-3.7583,-2.0391,-2.1094,-2.1992,0.0,-2.2753,-2.31,0.0,0.0,0.0,0.0,-3.144,-3.3118,-3.4723,-3.4919,-3.499,-3.5148,-3.5173,0.0,0.0,0.0,0.0,-3.1314,-2.9935,-2.925,-2.9429,-2.5977,0.0,-2.4409,0.0,-1.9318,-1.9694,-1.8259,-1.8009,-1.8868,-2.0527,-2.2314,-2.4281,-2.6819,-2.9236,-3.1448,-3.2256,-3.3237,0.0,0.0,-3.5308,-3.55,-3.55,-3.55,-3.55,-3.55,-3.55,-3.55,-3.55,-3.5346,-3.5045,-3.4398,-3.4052,-3.3718,-3.3083,-3.3372,-3.3667,-3.2814,-3.2583,-3.2256,0.0,0.0,0.0,0.0,0.0,0.0,0.0,0.0,0.0,-2.5135,-2.4298,-2.3394,0.0,0.0,0.0,0.0,0.0,0.0,0.0,-2.1431,-2.2254,-2.2462,-2.3067,0.0,0.0,0.0,0.0,-2.8506,-3.0602,-3.191,-3.2333,-3.359,-3.4321,-3.4545,-3.5192,-3.55,-3.55,-3.55,-3.55,-3.55,-3.55,-3.55,-3.55,-3.55,-3.5453,-3.541,-3.541,-3.5361,-3.5293,-3.5299,-3.5976,-3.7041,-2.1894,0.0,0.0,-2.4941,0.0,0.0,-2.6107,0.0,0.0,-3.0436,-3.217,0.0,-3.4449,-3.5202,-3.5626,-3.559,-3.5585,0.0,-3.3834,0.0,0.0,-3.2503,-3.1852,-3.1367,-3.1066,-2.8057,0.0,-2.545,0.0,-2.0142,-1.9854,-1.855,-1.8184,-1.8701,-2.0762,-2.2388,-2.3789,-2.7046,-2.9679,-3.1775,-3.2583,0.0,0.0,-3.5308,-3.55,-3.55,-3.55,-3.55,-3.55,-3.55,-3.55,-3.55,-3.55,-3.55,-3.5404,-3.4911,-3.4776,-3.4661,-3.418,-3.4391,-3.4641,-3.416,-3.4045,-3.3718,-3.2506,-3.2295,-3.2102,0.0,0.0,0.0,0.0,0.0,0.0,-2.4966,-2.4086,0.0,0.0,0.0,0.0,0.0,0.0,0.0,0.0,-2.0643,-2.1504,-2.1,-2.2216,0.0,0.0,0.0,0.0,0.0,-2.9621,-3.0929,-3.1698,-3.2641,-3.3468,-3.4205,-3.4699,-3.5135,-3.55,-3.55,-3.55,-3.55,-3.55,-3.55,-3.55,-3.55,-3.55,-3.55,-3.55,-3.55,-3.5486,-3.532,-3.5656,-3.6308,0.0,0.0,0.0,0.0,0.0,0.0,0.0,-2.8965,0.0,-3.1029,0.0,-3.384,-3.389,-3.5094,-3.5934,-3.6041,0.0,-3.5243,-3.3793,-3.5071,-3.4838,-3.2494,-3.376,-3.3796,-3.2269,-3.0372,0.0,0.0,0.0,-2.0914,-1.9203,-1.8377,-1.8008,-1.8105,-2.0669,0.0,0.0,-2.7542,-3.0183,0.0,-3.2743,-3.4058,-3.5515,-3.5515,-3.5515,-3.5534,-3.5534,-3.5502,-3.55,-3.55,-3.55,-3.55,-3.55,-3.55,-3.55,-3.55,-3.5423,-3.5327,-3.5327,-3.5327,-3.5327,-3.5327,-3.5423,-3.5077,-3.3449,-3.2526,-3.2006,-3.1891,-3.0006,0.0,0.0,0.0,0.0,0.0,0.0,0.0,0.0,0.0,0.0,0.0,0.0,0.0,0.0,0.0,-2.0365,-2.0158,0.0,0.0,0.0,0.0,0.0,0.0,-2.8684,0.0,-3.1506,0.0,-3.2429,-3.3878,-3.3975,-3.4487,-3.5327,-3.5327,-3.5385,-3.55,-3.55,-3.55,-3.55,-3.55,-3.55,-3.55,-3.55,-3.55,-3.55,-3.55,-3.55,-3.5615,0.0,0.0,0.0,0.0,0.0,-3.1269,-3.2344,-3.2519,-3.2871,-3.3866,-3.5526,-3.683,-3.742,-3.716,-3.7181,-3.779,-3.7196,0.0,0.0,0.0,0.0,-3.5087,-3.4733,-3.4406,-3.404,-3.1044,-2.8918,0.0,-2.3743,-2.0946,-1.9257,-1.8398,-1.8008,-1.8105,-2.0669,0.0,-2.7207,-2.8659,0.0,-3.2769,-3.3694,-3.4665,-3.5574,-3.5574,-3.5626,-3.5652,-3.5652,-3.5595,-3.55,-3.55,-3.55,-3.55,-3.55,-3.55,-3.55,-3.55,-3.4988,-3.443,-3.443,-3.443,-3.443,-3.443,-3.4968,-3.5231,-3.4199,-3.3859,-3.3564,-3.2833,-3.1814,-3.0948,-3.0673,0.0,0.0,0.0,0.0,0.0,0.0,0.0,0.0,0.0,0.0,0.0,0.0,0.0,0.0,0.0,0.0,0.0,0.0,0.0,0.0,0.0,0.0,0.0,0.0,0.0,0.0,-3.2141,-3.2814,-3.3583,-3.443,-3.443,-3.4814,-3.55,-3.55,-3.55,-3.55,-3.55,-3.55,-3.55,-3.55,-3.55,-3.55,-3.55,-3.55,-3.5615,0.0,0.0,0.0,0.0,0.0,0.0,0.0,-3.5527,0.0,-3.5449,-3.6094,-3.6757,-3.7122,-3.7629,-3.8074,-3.8429,-3.8076,-3.7647,-3.7196,-3.7157,-3.6767,-3.5887,-3.5512,0.0,-3.4601,-3.2178,-3.0035,-2.8255,-2.4409,-2.1658,-1.9961,-1.9082,-1.8437,-1.8125,-2.1139,-2.4323,0.0,0.0,0.0,-3.2507,-3.3867,-3.4917,-3.565,-3.565,-3.5663,-3.5707,-3.5707,-3.5663,-3.5605,-3.5568,-3.5558,-3.5546,-3.5508,-3.55,-3.55,-3.55,-3.5192,-3.4873,-3.4922,-3.4905,-3.4777,-3.4369,-3.4532,-3.4603,-3.3718,-3.3228,-3.2952,-3.2946,-3.1943,-3.0807,-2.9888,-2.8736,0.0,0.0,0.0,0.0,0.0,0.0,0.0,0.0,0.0,0.0,0.0,0.0,0.0,0.0,0.0,0.0,0.0,0.0,0.0,0.0,0.0,0.0,0.0,0.0,0.0,-3.1698,-3.2083,-3.2949,-3.4205,-3.4205,-3.468,-3.55,-3.55,-3.55,-3.55,-3.55,-3.55,-3.55,-3.55,-3.55,-3.55,-3.55,-3.55,-3.5558,0.0,-3.2871,0.0,0.0,-3.5391,0.0,0.0,-3.8027,-3.8594,-3.7031,-3.6836,-3.6894,-3.707,-3.8164,-3.8945,-3.9141,-3.8984,-3.8574,-3.7891,-3.7676,-3.7187,-3.6309,-3.6094,-3.5684,-3.498,-3.3496,-3.1465,0.0,0.0,-2.3027,-2.1113,-2.0059,-1.9492,-1.9492,0.0,0.0,0.0,0.0,-3.1568,-3.258,-3.4155,-3.5171,-3.5732,-3.5732,-3.5741,-3.5758,-3.5758,-3.5758,-3.5744,-3.569,-3.5635,-3.5611,-3.5534,-3.5522,-3.5509,-3.5494,-3.5373,-3.5258,-3.5308,-3.5292,-3.5052,-3.4249,-3.4133,-3.3942,-3.2902,-3.2222,-3.1943,-3.24,-3.1439,-3.024,-2.9332,-2.8792,0.0,0.0,0.0,0.0,0.0,0.0,0.0,0.0,0.0,0.0,0.0,0.0,0.0,0.0,0.0,0.0,0.0,0.0,0.0,0.0,0.0,0.0,-2.9088,0.0,-3.0731,0.0,-3.1429,-3.2295,-3.3917,-3.3917,-3.4507,-3.55,-3.55,-3.55,-3.55,-3.55,-3.55,-3.55,-3.55,-3.55,-3.55,-3.55,-3.55,-3.55,0.0,0.0,0.0,0.0,0.0,0.0,0.0,-3.9844,-4.0605,-3.9668,-3.9531,-3.9844,-4.0625,-4.0156,-4.0098,-4.0898,-4.0234,-3.9746,-3.9668,-3.8926,-3.8086,-3.7226,-3.6426,-3.5957,-3.5879,-3.4941,-3.3203,0.0,0.0,0.0,-2.2832,-2.123,-2.168,-2.3848,0.0,0.0,0.0,-3.1519,-3.2857,-3.4357,-3.5351,-3.5818,-3.5877,-3.5877,-3.5919,-3.5975,-3.5975,-3.5975,-3.5954,-3.5885,-3.5791,-3.5675,-3.5611,-3.559,-3.5582,-3.5528,-3.4974,-3.4414,-3.4429,-3.4419,-3.4226,-3.3417,-3.3761,-3.3871,-3.2276,-3.1899,-3.1696,-3.098,-3.0707,-3.0338,-2.9521,-2.9904,-2.9823,0.0,0.0,0.0,0.0,0.0,0.0,0.0,0.0,0.0,0.0,0.0,0.0,0.0,0.0,0.0,0.0,0.0,0.0,0.0,0.0,-2.8299,-2.9088,-2.9967,0.0,-3.0519,-3.0519,-3.1404,-3.3026,-3.3026,-3.393,-3.55,-3.55,-3.55,-3.55,-3.55,-3.55,-3.55,-3.55,-3.55,-3.55,-3.55,-3.55,-3.55,0.0,0.0,0.0,0.0,0.0,0.0,0.0,-4.0742,-4.1074,-4.0723,-4.0684,-4.0801,-4.1152,-4.0898,-4.082,-4.1172,-4.0879,-4.0469,-3.9922,-3.957,-3.8769,-3.7363,-3.6973,-3.6543,-3.6016,-3.5156,-3.3945,0.0,0.0,0.0,0.0,-2.4453,-2.4766,0.0,0.0,-2.9332,-3.1695,-3.3063,-3.4036,-3.4708,-3.5597,-3.5951,-3.5951,-3.5951,-3.5974,-3.5996,-3.5996,-3.5996,-3.5996,-3.5973,-3.5893,-3.5799,-3.5698,-3.5663,-3.5655,-3.5626,-3.5396,-3.5154,-3.523,-3.5207,-3.4828,-3.3546,-3.3437,-3.3188,-3.1464,-3.1123,-3.1073,-3.0724,-3.0665,-3.0559,-3.0186,-2.9986,-2.9802,0.0,0.0,0.0,0.0,0.0,0.0,0.0,0.0,0.0,0.0,0.0,0.0,0.0,0.0,-1.7823,-2.0207,0.0,0.0,-2.5044,0.0,-2.8049,-2.8376,-2.9712,-3.0404,-3.0404,-3.0404,-3.1019,-3.2199,-3.2679,-3.3853,-3.55,-3.55,-3.55,-3.55,-3.55,-3.55,-3.55,-3.55,-3.55,-3.55,-3.55,-3.55,-3.55,-3.87,0.0,-3.8452,0.0,-3.9724,-3.9765,-4.0954,-4.1171,-4.1191,-4.1191,-4.1191,-4.1191,-4.1191,-4.1191,-4.1191,-4.1191,-4.1191,-4.0937,-4.0312,-4.0039,-3.9355,-3.8125,-3.7812,0.0,-3.6777,-3.5918,-3.5039,-3.416,-3.1855,0.0,0.0,-2.793,0.0,0.0,-3.0098,-3.1328,-3.3008,-3.4199,-3.4844,-3.5137,-3.5742,-3.5996,-3.5996,-3.5996,-3.5996,-3.5996,-3.5996,-3.5996,-3.5996,-3.5996,-3.5973,-3.5914,-3.5783,-3.5761,-3.5755,-3.5713,-3.5723,-3.5766,-3.5834,-3.5802,-3.5419,-3.4008,-3.3446,-3.2836,-3.1359,-3.0877,-3.0768,-3.0768,-3.0768,-3.0742,-3.0691,-3.0219,-2.9844,0.0,0.0,0.0,0.0,0.0,0.0,0.0,-2.5135,-2.4815,0.0,0.0,0.0,0.0,0.0,-1.8117,-2.0978,0.0,0.0,0.0,0.0,0.0,0.0,0.0,-3.0404,-3.0404,-3.0404,-3.0865,-3.1737,-3.2795,-3.4083,-3.55,-3.55,-3.55,-3.55,-3.55,-3.55,-3.55,-3.55,-3.55,-3.55,-3.55,-3.55,-3.55,-3.9428,-3.9622,-3.9904,-4.0664,-4.1005,-4.1131,-4.1023,-4.1106,-4.1191,-4.1191,-4.1191,-4.1191,-4.1191,-4.1191,-4.1191,-4.1191,-4.1191,-4.1191,-4.1172,-4.0371,-3.9883,0.0,0.0,-3.8574,-3.8574,-3.7715,-3.6836,-3.5976,0.0,0.0,-3.2129,-3.125,-3.1309,-3.2148,-3.2168,-3.3105,-3.4668,-3.4687,-3.5195,-3.5996,-3.5996,-3.5996,-3.5996,-3.5996,-3.5996,-3.5996,-3.5996,-3.5996,-3.5996,-3.5996,-3.5996,-3.5995,-3.5914,-3.5901,-3.5873,-3.5749,-3.5799,-3.5871,-3.5749,-3.5802,-3.5676,-3.4723,-3.389,-3.3069,-3.2178,-3.1419,-3.0898,-3.0898,-3.0898,-3.0898,-3.0898,-3.0898,-3.0292,-2.8518,0.0,0.0,0.0,0.0,0.0,0.0,-2.4135,-2.3795,-2.5527,0.0,0.0,0.0,0.0,0.0,0.0,0.0,0.0,-2.6676,-2.7492,0.0,-2.9088,-2.9967,-3.0404,-3.0404,-3.0404,-3.0865,-3.1756,-3.341,-3.4661,-3.55,-3.55,-3.55,-3.55,-3.55,-3.55,-3.55,-3.55,-3.55,-3.55,-3.55,-3.55,-3.55,-4.0299,-4.0403,-4.0523,-4.0766,-4.087,-4.093,-4.0992,-4.1048,-4.1102,-4.1191,-4.1191,-4.1191,-4.1191,-4.1191,-4.1191,0.0,-4.1191,-4.1191,0.0,-4.0937,-4.0527,-3.9922,-3.9629,-3.9219,-3.8613,-3.832,-3.7754,-3.6894,0.0,0.0,0.0,-3.2734,-3.3066,-3.3906,-3.3906,-3.4531,-3.5586,-3.5586,-3.5742,-3.5996,-3.5996,-3.6367,-3.6894,-3.6894,-3.6894,-3.6894,-3.6894,-3.6504,-3.5996,-3.5996,-3.5996,-3.5996,-3.5974,-3.5973,-3.5952,-3.5926,-3.593,-3.5952,-3.5926,-3.5949,-3.5757,-3.4853,-3.3997,-3.3141,-3.2321,-3.1503,-3.0898,-3.0898,-3.0898,-3.0898,-3.0898,-3.0898,-3.0527,-2.9334,0.0,0.0,0.0,0.0,0.0,0.0,0.0,-2.5096,0.0,-2.3633,0.0,0.0,0.0,0.0,0.0,0.0,0.0,0.0,-2.7241,0.0,-2.9148,-2.9993,-3.0404,-3.0404,-3.0451,-3.1207,-3.2607,-3.3094,-3.4103,-3.5507,-3.5552,-3.5579,-3.5579,-3.5579,-3.5579,-3.5568,-3.5528,-3.55,-3.55,-3.55,-3.55,-3.55,-4.063,-4.0699,-4.0854,-4.1128,-4.0975,-4.0922,-4.1317,-4.1159,-4.1026,-4.1106,-4.1171,-4.1191,-4.1191,-4.115,0.0,-4.1191,-4.1191,0.0,-4.1191,-4.1191,-4.0957,-4.041,-4.0391,-4.0137,-3.959,0.0,0.0,-3.8281,-3.707,-3.6094,-3.5351,-3.5019,-3.5332,-3.6152,-3.582,-3.5976,-3.6484,-3.6484,-3.6484,-3.6523,-3.6836,-3.7305,-3.7793,-3.7793,-3.7793,-3.7793,-3.7793,-3.7441,-3.6973,-3.6973,-3.6973,-3.6914,-3.6582,-3.6484,-3.6426,-3.6094,-3.5996,-3.5996,-3.5973,-3.5975,-3.5859,-3.5289,-3.451,-3.3594,-3.2461,-3.1523,-3.0898,-3.0898,-3.0898,-3.0898,-3.0898,-3.0898,-3.0508,-2.9316,0.0,-2.7871,0.0,0.0,0.0,0.0,0.0,0.0,0.0,-2.5019,0.0,0.0,0.0,0.0,0.0,0.0,0.0,-2.6467,-2.7812,0.0,-2.9729,-3.0219,-3.0487,-3.0487,-3.0528,-3.1405,-3.2992,-3.2952,-3.3882,-3.5547,-3.5588,-3.5616,-3.5644,-3.5644,-3.5644,-3.563,-3.5568,-3.554,-3.554,-3.554,-3.554,-3.5534,-4.0573,-4.0693,0.0,0.0,-4.1362,0.0,-4.1974,-4.1544,-4.1161,-4.1189,-4.1241,-4.1289,-4.1289,-4.1119,-4.1052,-4.1171,0.0,0.0,0.0,-4.1191,-4.1191,-4.1191,-4.1191,0.0,-4.1191,-4.041,-3.9961,-3.9902,-3.8203,-3.7812,-3.8574,-3.7773,-3.7812,-3.8555,-3.7754,-3.7383,-3.7383,-3.7383,-3.7383,-3.7461,-3.8262,-3.8633,-3.8691,-3.8691,-3.8691,-3.8691,-3.8691,-3.8652,-3.8594,-3.8594,-3.8594,-3.8457,-3.7656,-3.7344,-3.7129,-3.6269,-3.5996,-3.5995,-3.5917,-3.5949,-3.5995,-3.5916,-3.5305,-3.4258,-3.2578,-3.1562,-3.0976,-3.0918,-3.0898,-3.0898,-3.0898,-3.0898,-3.0332,-2.8574,-2.8301,-2.7695,-2.5957,0.0,0.0,0.0,0.0,0.0,0.0,-2.6523,-2.666,0.0,0.0,0.0,0.0,0.0,-2.6599,-2.8158,-2.8994,-2.98,-3.0592,-3.0606,-3.0606,-3.0611,-3.0664,-3.151,-3.3021,-3.3074,-3.4023,-3.5606,-3.5611,-3.5666,-3.5713,-3.5713,-3.5713,-3.5707,-3.5635,-3.5606,-3.5606,-3.5606,-3.5606,-3.5621,0.0,0.0,-4.1794,-4.2651,-4.2665,-4.2637,-4.2886,-4.2784,-4.2747,-4.2951,-4.2426,-4.2055,-4.2109,-4.1451,-4.1,-4.1031,-4.0955,-4.0947,-4.1049,-4.1051,-4.1083,-4.1191,-4.1191,-4.1191,-4.1191,-4.0996,-4.0566,-3.9902,-3.8828,-3.8398,-3.8594,-3.8398,-3.8398,-3.8594,-3.8379,-3.8281,-3.8281,-3.8281,-3.8281,-3.8301,-3.8516,-3.9004,-3.959,-3.959,-3.959,-3.959,-3.959,-3.916,-3.8594,-3.8594,-3.8594,-3.8555,-3.8359,-3.7832,-3.7129,-3.6269,-3.5996,-3.5996,-3.5975,-3.5995,-3.5996,-3.5975,-3.5331,-3.4258,-3.2578,-3.2031,-3.1699,-3.1035,-3.0898,-3.0898,-3.0898,-3.0898,-3.0332,-2.8574,-2.8301,-2.7695,-2.5957,0.0,0.0,0.0,-2.6289,-2.6699,-2.6699,-2.6875,-2.6914,0.0,0.0,0.0,0.0,0.0,-2.8534,-2.828,-2.906,-2.986,-3.0679,-3.0633,-3.0633,-3.0679,-3.1298,-3.2163,-3.3239,-3.3855,-3.4703,-3.5675,-3.578,-3.5831,-3.5845,-3.5845,-3.5845,-3.5838,-3.5726,-3.5671,-3.5671,-3.5671,-3.5671,-3.5675,-4.2297,-4.2393,-4.2662,-4.3508,-4.3335,-4.3242,-4.3631,-4.3427,-4.3249,-4.3396,-4.3117,-4.2885,-4.2852,-4.2395,-4.1929,-4.1494,-4.1054,-4.0824,-4.0908,-4.0911,-4.095,-4.1002,-4.1078,-4.1105,-4.1105,-4.1171,-4.0976,-4.0488,-3.9629,-3.9394,-3.9785,-3.9375,-3.9414,-3.9766,-3.9375,-3.9199,-3.9199,-3.9199,-3.9199,-3.9238,-3.9629,-4.0078,-4.0488,-4.0488,-4.0488,-4.0488,-4.0488,-4.0195,-3.9785,-3.9785,-3.9785,-3.9726,-3.9316,-3.8867,-3.8242,-3.6973,-3.6309,-3.5996,-3.5996,-3.5996,-3.5996,-3.5996,-3.5332,-3.4453,-3.3555,-3.2754,-3.207,-3.1582,-3.1172,-3.0898,-3.0898,-3.0566,-2.9863,-2.8516,-2.7969,-2.7246,-2.5898,-2.6035,0.0,-2.6289,-2.7051,-2.7598,-2.7598,-2.7949,-2.8027,-2.7617,0.0,0.0,-2.7637,-2.9258,-2.9785,-2.8926,-2.9703,-3.0344,-3.0793,-3.0757,-3.0757,-3.0793,-3.1637,-3.2484,-3.334,-3.4155,-3.5,-3.5799,-3.5871,-3.5913,-3.5947,-3.5947,-3.5947,-3.5944,-3.5823,-3.5797,-3.5797,-3.5797,-3.5797,-3.5802,-4.3258,-4.3278,-4.3547,-4.4355,-4.3932,-4.3701,-4.4393,-4.3959,-4.3563,-4.3595,-4.3687,-4.3708,-4.3614,-4.3465,-4.3044,-4.2252,-4.1548,-4.1047,-4.0792,-4.0773,-4.0781,-4.0797,-4.0911,-4.0964,-4.0964,-4.108,-4.1149,-4.1149,-4.0428,-4.0448,-4.1151,-4.0429,-4.0488,-4.1172,-4.043,-4.0098,-4.0098,-4.0098,-4.0098,-4.0156,-4.0898,-4.1191,-4.1191,-4.1191,-4.1191,-4.1191,-4.1191,-4.1191,-4.1191,-4.1191,-4.1191,-4.1074,-4.0332,-4.0019,-3.9609,-3.8125,-3.707,-3.6348,-3.6074,-3.5996,-3.5996,-3.5996,-3.5449,-3.4863,-3.4726,-3.3594,-3.2539,-3.2402,-3.1699,-3.1094,-3.1094,-3.0371,-2.9473,-2.8457,-2.7793,-2.6992,-2.5859,0.0,-2.7148,-2.7012,-2.7891,-2.8496,-2.8496,-2.918,-2.9355,-2.873,-2.9941,0.0,0.0,-3.0098,-3.0566,-2.9824,-3.0508,-3.0898,-3.0898,-3.0898,-3.0898,-3.0918,-3.1914,-3.2711,-3.3352,-3.4348,-3.5228,-3.5911,-3.5911,-3.5948,-3.5996,-3.5996,-3.5996,-3.5996,-3.5942,-3.5911,-3.5911,-3.5911,-3.5911,-3.5917,-4.397,-4.4105,-4.4393,-4.5248,-4.5287,-4.5248,-4.5383,-4.5293,-4.526,-4.537,-4.4782,-4.4406,-4.45,-4.3732,-4.3175,-4.3034,-4.285,-4.2167,-4.0804,-4.0713,-4.0747,-4.0793,-4.0813,-4.0824,-4.0824,-4.0857,-4.0864,-4.0864,-4.0849,-4.0909,-4.1028,-4.1013,-4.1074,-4.1191,-4.1055,-4.0996,-4.0996,-4.0996,-4.0996,-4.1016,-4.1152,-4.1191,-4.1191,-4.1191,-4.1191,-4.1191,-4.1191,-4.1191,-4.1191,-4.1191,-4.1191,-4.1172,-4.1035,-4.0488,-3.9844,-3.957,-3.8887,-3.7871,-3.6406,-3.5996,-3.5996,-3.5996,-3.5898,-3.5605,-3.4863,-3.4492,-3.4101,-3.3379,-3.2578,-3.1992,-3.1992,-3.1289,-3.0176,-2.8555,-2.8809,-2.8379,0.0,0.0,-2.7832,-2.709,-2.8418,-2.9394,-2.9394,-2.9512,-2.9844,-3.0449,-3.0059,-3.0019,-3.0469,-3.0742,-3.084,-3.0703,-3.082,-3.0898,-3.0898,-3.0898,-3.0898,-3.0918,-3.2461,-3.3262,-3.3436,-3.5058,-3.5859,-3.5976,-3.5976,-3.5996,-3.5996,-3.5996,-3.5996,-3.5996,-3.5995,-3.5976,-3.5976,-3.5976,-3.5976,-3.5995,-4.494,-4.4998,-4.5133,-4.5537,-4.5594,-4.5594,-4.5594,-4.5594,-4.561,-4.5677,-4.5406,-4.5202,-4.5189,-4.4834,-4.4375,-4.3851,-4.3758,-4.3242,-4.208,-4.1984,-4.2007,-4.2047,-4.1665,-4.1238,-4.0817,-4.0797,-4.0797,-4.0797,-4.0864,-4.0883,-4.0883,-4.0957,-4.099,-4.099,-4.099,-4.099,-4.099,-4.099,-4.099,-4.0992,-4.1056,-4.1082,-4.1103,-4.1171,-4.1191,-4.1191,-4.1191,-4.1191,-4.1191,-4.1191,-4.1191,-4.1191,-4.1191,-4.0918,-4.0508,-4.0039,-3.8945,-3.7715,-3.6914,-3.6367,-3.5996,-3.5996,-3.5996,-3.5898,-3.5488,-3.5039,-3.459,-3.418,-3.3437,-3.2715,-3.2285,-3.1484,-3.0488,-2.9219,-2.8945,0.0,0.0,-2.8203,-2.8848,-2.8457,-2.9512,-3.0293,-3.0293,-3.0293,-3.0469,-3.0879,-3.0527,-3.0488,-3.0879,-3.0898,-3.0898,-3.0898,-3.0898,-3.0898,-3.0898,-3.0898,-3.0898,-3.0918,-3.2598,-3.3398,-3.3457,-3.5215,-3.5996,-3.5996,-3.5996,-3.5996,-3.5996,-3.5996,-3.5996,-3.5996,-3.5996,-3.5996,-3.5996,-3.5996,-3.5996,-3.5996,-4.5594,-4.5594,-4.5594,-4.5594,-4.5594,-4.5594,-4.5594,-4.5594,-4.5594,-4.5594,-4.5685,-4.5715,-4.5612,-4.5685,-4.5445,-4.466,-4.4605,-4.4335,-4.372,-4.3682,-4.3508,-4.3124,-4.2558,-4.1975,-4.1349,-4.1335,-4.1238,-4.1024,-4.1057,-4.0974,-4.0779,-4.0785,-4.0797,-4.0797,-4.0797,-4.0797,-4.0797,-4.0797,-4.0797,-4.0805,-4.0914,-4.0964,-4.1019,-4.1106,-4.1171,-4.1191,-4.1191,-4.1191,-4.1191,-4.1191,-4.1191,-4.1191,-4.1191,-4.1191,-4.1055,-4.0369,-3.9058,-3.7767,-3.7402,-3.6816,-3.625,-3.6055,-3.5996,-3.5996,-3.5996,-3.5488,-3.5,-3.5,-3.4316,-3.3516,-3.2891,-3.207,-3.1133,-3.0078,0.0,0.0,0.0,-2.9176,-2.976,-2.9608,-3.033,-3.0878,-3.0898,-3.0898,-3.0898,-3.0898,-3.0898,-3.0898,-3.0898,-3.0898,-3.0898,-3.0898,-3.0898,-3.0898,-3.0898,-3.0898,-3.0996,-3.1211,-3.2695,-3.3516,-3.375,-3.5293,-3.5996,-3.5996,-3.5996,-3.5996,-3.5996,-3.5996,-3.5996,-3.5996,-3.5996,-3.5996,-3.5996,-3.5996,-3.5996,-3.5996,-4.5594,-4.5594,-4.5594,-4.5594,-4.5594,-4.5594,-4.5594,-4.5594,-4.5594,-4.5594,-4.5612,-4.5612,-4.5594,-4.5612,-4.5573,-4.5518,-4.5498,-4.5479,-4.5421,-4.5421,-4.4729,-4.3162,-4.3044,-4.3002,-4.2934,-4.2934,-4.2529,-4.1721,-4.1854,-4.1509,-4.0721,-4.077,-4.0797,-4.0797,-4.0797,-4.0797,-4.0797,-4.0797,-4.0797,-4.0797,-4.0809,-4.088,-4.0996,-4.1019,-4.1082,-4.1191,-4.1191,-4.1191,-4.1191,-4.1191,-4.1191,-4.1191,-4.1191,-4.1191,-4.1152,-4.0974,-4.0218,-3.9114,-3.769,-3.7246,-3.7012,-3.6191,-3.5996,-3.5996,-3.5996,-3.5957,-3.5898,-3.5898,-3.5215,-3.459,-3.4531,-3.3809,-3.2695,-3.1074,0.0,0.0,-2.8548,-2.9546,-3.0273,-2.9581,-3.021,-3.0769,-3.0898,-3.0898,-3.0898,-3.0898,-3.0898,-3.0898,-3.0898,-3.0898,-3.0898,-3.0898,-3.0898,-3.0898,-3.0898,-3.0898,-3.1309,-3.2109,-3.2988,-3.3828,-3.4648,-3.5566,-3.5996,-3.5996,-3.5996,-3.5996,-3.5996,-3.5996,-3.5996,-3.5996,-3.5996,-3.5996,-3.5996,-3.5996,-3.5996,-3.5996,-4.5594,-4.5594,-4.5594,-4.5594,-4.5594,-4.5594,-4.5594,-4.5594,-4.5594,-4.5594,-4.5594,-4.5594,-4.5594,-4.5594,-4.5594,-4.5594,-4.5594,-4.5594,-4.5594,-4.5594,-4.5075,-4.3893,-4.3835,-4.3605,-4.3104,-4.3104,-4.2931,-4.2604,-4.2665,-4.2502,-4.2193,-4.2207,-4.2221,-4.2221,-4.2221,-4.2221,-4.2221,-4.2221,-4.2221,-4.2228,-4.2269,-4.232,-4.2368,-4.2459,-4.2571,-4.2615,-4.1978,-4.1816,-4.1802,-4.1254,-4.1078,-4.1082,-4.1171,-4.1191,-4.1171,-4.1049,-4.0694,-4.0108,-3.9023,-3.7947,-3.703,-3.6701,-3.6277,-3.5944,-3.5944,-3.5973,-3.5996,-3.5996,-3.5742,-3.5332,-3.4805,-3.441,-3.3755,-3.2582,0.0,-3.179,-3.1354,-3.0909,-3.0692,-3.0967,-3.0812,-3.072,-3.077,-3.0858,-3.0898,-3.0898,-3.0898,-3.0898,-3.0898,-3.0898,-3.0898,-3.0898,-3.0898,-3.0898,-3.0898,-3.0898,-3.1348,-3.2207,-3.3027,-3.3867,-3.4726,-3.5605,-3.5996,-3.5996,-3.5996,-3.5996,-3.5996,-3.5996,-3.5996,-3.5996,-3.5996,-3.5996,-3.5996,-3.5996,-3.5996,-3.5996,-4.5594,-4.5594,-4.5594,-4.5594,-4.5594,-4.5594,-4.5594,-4.5594,-4.5594,-4.5594,-4.5594,-4.5594,-4.5594,-4.5594,-4.5594,-4.5594,-4.5594,-4.5594,-4.5594,-4.5594,-4.5325,-4.472,-4.4701,-4.4451,-4.3893,-4.3893,-4.3739,-4.347,-4.347,-4.3355,-4.3104,-4.3104,-4.3104,-4.3104,-4.3104,-4.3104,-4.3104,-4.3104,-4.3104,-4.3094,-4.3156,-4.3182,-4.3221,-4.3299,-4.3412,-4.3448,-4.2763,-4.2571,-4.2543,-4.1958,-4.1568,-4.1362,-4.1459,-4.1283,-4.1014,-4.0928,-4.0805,-4.0586,-4.0038,-3.883,-3.7603,-3.7121,-3.6618,-3.6168,-3.5897,-3.5916,-3.5973,-3.5973,-3.5995,-3.5801,-3.5193,-3.5041,-3.4724,-3.3826,-3.3102,-3.2769,-3.3095,-3.2082,-3.1457,-3.1836,-3.1373,-3.0945,-3.0691,-3.0757,-3.0811,-3.0837,-3.0837,-3.0858,-3.0898,-3.0898,-3.0898,-3.0898,-3.0898,-3.1035,-3.1309,-3.1035,-3.1465,-3.2578,-3.3144,-3.4004,-3.5137,-3.5723,-3.5996,-3.5996,-3.5996,-3.5996,-3.5996,-3.5996,-3.5996,-3.5996,-3.5996,-3.5996,-3.5996,-3.5996,-3.5996,-3.5996,-4.5594,-4.5594,-4.5594,-4.5594,-4.5594,-4.5594,-4.5594,-4.5594,-4.5594,-4.5594,-4.5594,-4.5594,-4.5594,-4.5594,-4.5594,-4.5594,-4.5594,-4.5594,-4.5594,-4.5594,-4.5594,-4.5594,-4.5594,-4.5594,-4.5594,-4.5594,-4.519,-4.4316,-4.4316,-4.3893,-4.3124,-4.3124,-4.3124,-4.3124,-4.3124,-4.3124,-4.3124,-4.3124,-4.3124,-4.3124,-4.3124,-4.3165,-4.3221,-4.3221,-4.3297,-4.3426,-4.3406,-4.3406,-4.3406,-4.3406,-4.2827,-4.2112,-4.2092,-4.1451,-4.0697,-4.0697,-4.0603,-4.0496,-4.0496,-3.9919,-3.894,-3.7392,-3.7019,-3.6766,-3.5917,-3.5802,-3.5901,-3.5901,-3.5948,-3.5975,-3.591,-3.5901,-3.5591,-3.4659,-3.4387,-3.3998,-3.3132,-3.2943,-3.2625,-3.1893,-3.1811,-3.1491,-3.0691,-3.0603,-3.0636,-3.0711,-3.0714,-3.0767,-3.0898,-3.0918,-3.0918,-3.0918,-3.0918,-3.1328,-3.2207,-3.1348,-3.1758,-3.3418,-3.3418,-3.4316,-3.5996,-3.5996,-3.5996,-3.5996,-3.5996,-3.5996,-3.5996,-3.5996,-3.5996,-3.5996,-3.5996,-3.5996,-3.5996,-3.5996,-3.5996,-3.5996,-4.5594,-4.5594,-4.5594,-4.5594,-4.5594,-4.5594,-4.5594,-4.5594,-4.5594,-4.5594,-4.5594,-4.5594,-4.5594,-4.5594,-4.5594,-4.5594,-4.5594,-4.5594,-4.5594,-4.5594,-4.5594,-4.5594,-4.5594,-4.5594,-4.5594,-4.5594,-4.5479,-4.521,-4.521,-4.5094,-4.4863,-4.4863,-4.4863,-4.4863,-4.4863,-4.4863,-4.4863,-4.4863,-4.4863,-4.4863,-4.4863,-4.4878,-4.4869,-4.4869,-4.4979,-4.4994,-4.4271,-4.4098,-4.4081,-4.3474,-4.3081,-4.2773,-4.2261,-4.1451,-4.0697,-4.0697,-4.0603,-4.0496,-4.0496,-4.0323,-3.9903,-3.8871,-3.7782,-3.6867,-3.6595,-3.6141,-3.5761,-3.5761,-3.578,-3.5788,-3.5766,-3.5728,-3.5592,-3.532,-3.4687,-3.4352,-3.4706,-3.3686,-3.3044,-3.344,-3.2492,-3.1921,-3.2253,-3.1264,-3.1117,-3.2358,-3.1896,-3.1579,-3.1665,-3.1667,-3.1966,-3.2637,-3.2656,-3.2773,-3.3047,-3.2226,-3.2656,-3.4316,-3.4316,-3.4902,-3.5996,-3.5996,-3.5996,-3.5996,-3.5996,-3.5996,-3.5996,-3.5996,-3.5996,-3.5996,-3.5996,-3.5996,-3.5996,-3.5996,-3.5996,-3.5996,-4.5594,-4.5594,-4.5594,-4.5594,-4.5594,-4.5594,-4.5594,-4.5594,-4.5594,-4.5594,-4.5594,-4.5594,-4.5594,-4.5594,-4.5594,-4.5594,-4.5594,-4.5594,-4.5594,-4.5594,-4.5594,-4.5594,-4.5594,-4.5594,-4.5594,-4.5594,-4.5594,-4.5594,-4.5594,-4.5594,-4.5594,-4.5594,-4.5594,-4.5594,-4.5594,-4.5594,-4.5594,-4.5594,-4.5594,-4.5594,-4.5594,-4.5594,-4.5594,-4.5594,-4.566,-4.5638,-4.5021,-4.4869,-4.4861,-4.4325,-4.3919,-4.3489,-4.2743,-4.1879,-4.1138,-4.1138,-4.0836,-4.0496,-4.0496,-4.0496,-4.0381,-3.99,-3.8805,-3.7758,-3.741,-3.6735,-3.6168,-3.6168,-3.5912,-3.5693,-3.5671,-3.5626,-3.559,-3.5568,-3.5072,-3.4911,-3.5423,-3.4596,-3.4007,-3.4186,-3.3342,-3.2794,-3.2943,-3.2087,-3.1956,-3.3041,-3.2674,-3.2427,-3.2474,-3.2476,-3.2725,-3.3297,-3.3317,-3.3492,-3.3826,-3.3356,-3.3643,-3.4707,-3.4707,-3.5156,-3.5996,-3.5996,-3.5996,-3.5996,-3.5996,-3.5996,-3.5996,-3.5996,-3.5996,-3.5996,-3.5996,-3.5996,-3.5996,-3.5996,-3.5996,-3.5996,-4.5586,-4.5594,-4.5594,-4.5594,-4.5594,-4.5594,-4.5594,-4.5594,-4.5594,-4.5594,-4.5594,-4.5594,-4.5594,-4.5594,-4.5594,-4.5594,-4.5594,-4.5594,-4.5594,-4.5594,-4.5594,-4.5594,-4.5594,-4.5594,-4.5594,-4.5594,-4.5594,-4.5594,-4.5594,-4.5594,-4.5594,-4.5594,-4.5594,-4.5594,-4.5594,-4.5594,-4.5594,-4.5594,-4.5594,-4.5594,-4.5594,-4.5594,-4.5594,-4.5594,-4.5594,-4.5594,-4.5594,-4.5594,-4.5594,-4.5594,-4.5017,-4.4162,-4.3431,-4.2604,-4.1904,-4.1808,-4.1239,-4.0593,-4.0516,-4.0496,-4.0496,-4.0496,-3.9958,-3.9188,-3.8315,-3.7533,-3.6978,-3.69,-3.6303,-3.5745,-3.5616,-3.559,-3.5566,-3.5508,-3.55,-3.55,-3.55,-3.55,-3.5212,-3.441,-3.4244,-3.3917,-3.3199,-3.3122,-3.3081,-3.2991,-3.318,-3.3292,-3.3299,-3.3299,-3.3345,-3.341,-3.341,-3.3803,-3.4607,-3.4607,-3.4679,-3.4784,-3.4784,-3.5214,-3.5975,-3.5975,-3.5976,-3.5996,-3.5996,-3.5996,-3.5996,-3.5996,-3.5996,-3.5996,-3.5996,-3.5996,-3.5996,-3.5996,-3.5996,-3.5996,-4.5559,-4.5594,-4.5594,-4.5594,-4.5594,-4.5594,-4.5594,-4.5594,-4.5594,-4.5594,-4.5594,-4.5594,-4.5594,-4.5594,-4.5594,-4.5594,-4.5594,-4.5594,-4.5594,-4.5594,-4.5594,-4.5594,-4.5594,-4.5594,-4.5594,-4.5594,-4.5594,-4.5594,-4.5594,-4.5594,-4.5594,-4.5594,-4.5594,-4.5594,-4.5594,-4.5594,-4.5594,-4.5594,-4.5594,-4.5594,-4.5594,-4.5594,-4.5594,-4.5594,-4.5594,-4.5594,-4.5594,-4.5594,-4.5594,-4.5594,-4.5017,-4.4259,-4.4085,-4.3489,-4.2681,-4.2,-4.1681,-4.1373,-4.0689,-4.0496,-4.0496,-4.0496,-4.0362,-4.0035,-3.9207,-3.8363,-3.7564,-3.6889,-3.6588,-3.6299,-3.5644,-3.5522,-3.5528,-3.5507,-3.55,-3.55,-3.55,-3.55,-3.5423,-3.5231,-3.4622,-3.4391,-3.4885,-3.4942,-3.4385,-3.3011,-3.3587,-3.4003,-3.4051,-3.4061,-3.4395,-3.5136,-3.5155,-3.5256,-3.5431,-3.5431,-3.5451,-3.5482,-3.5482,-3.5582,-3.5777,-3.5777,-3.5823,-3.5916,-3.5916,-3.5948,-3.5996,-3.5996,-3.5996,-3.5996,-3.5996,-3.5996,-3.5996,-3.5996,-3.5996,-3.5996,-4.5522,-4.5594,-4.5559,-4.54,-4.5352,-4.5352,-4.5352,-4.5352,-4.5419,-4.5577,-4.5594,-4.555,-4.539,-4.5504,-4.5594,-4.5594,-4.5594,-4.5594,-4.5594,-4.5594,-4.5594,-4.5594,-4.5594,-4.5594,-4.5594,-4.5594,-4.5594,-4.5594,-4.5594,-4.5594,-4.5594,-4.5594,-4.5594,-4.5594,-4.5594,-4.5594,-4.5594,-4.5594,-4.5594,-4.5594,-4.5594,-4.5594,-4.5594,-4.5594,-4.5594,-4.5594,-4.5594,-4.5594,-4.5594,-4.5594,-4.5306,-4.4921,-4.4921,-4.4355,-4.3585,-4.3124,-4.272,-4.2239,-4.1354,-4.1123,-4.1027,-4.0593,-4.0496,-4.04,-3.9977,-3.9227,-3.8488,-3.8027,-3.7603,-3.7065,-3.6231,-3.6077,-3.5942,-3.5558,-3.55,-3.55,-3.55,-3.55,-3.55,-3.55,-3.5103,-3.5007,-3.5462,-3.55,-3.5115,-3.4212,-3.4564,-3.4835,-3.4876,-3.4863,-3.5096,-3.5596,-3.5601,-3.5601,-3.5601,-3.5601,-3.5601,-3.5601,-3.5679,-3.5707,-3.5707,-3.5707,-3.5749,-3.5805,-3.5805,-3.5823,-3.5868,-3.5868,-3.5868,-3.5868,-3.5868,-3.5868,-3.5868,-3.5868,-3.5899,-3.595,-4.5448,-4.5513,-4.541,-4.5074,-4.5,-4.5,-4.5,-4.5,-4.5107,-4.5381,-4.5429,-4.5332,-4.5033,-4.5263,-4.5429,-4.5429,-4.5485,-4.5513,-4.5513,-4.5568,-4.5594,-4.5594,-4.5594,-4.5594,-4.5594,-4.5594,-4.5594,-4.5594,-4.5594,-4.5594,-4.5594,-4.5594,-4.5594,-4.5594,-4.5594,-4.5594,-4.5594,-4.5594,-4.5594,-4.5594,-4.5594,-4.5594,-4.5594,-4.5594,-4.5594,-4.5594,-4.5594,-4.5594,-4.5594,-4.5594,-4.5594,-4.5594,-4.5594,-4.5094,-4.4489,-4.4335,-4.3835,-4.3124,-4.2258,-4.1904,-4.1643,-4.0893,-4.0612,-4.0496,-4.0496,-3.9977,-3.9477,-3.9323,-3.8719,-3.7969,-3.7084,-3.6923,-3.6654,-3.5846,-3.5712,-3.5654,-3.5519,-3.55,-3.55,-3.55,-3.55,-3.55,-3.55,-3.55,-3.55,-3.55,-3.55,-3.55,-3.55,-3.55,-3.55,-3.55,-3.55,-3.55,-3.55,-3.55,-3.55,-3.5507,-3.5616,-3.5675,-3.5675,-3.5675,-3.5663,-3.5682,-3.5682,-3.5689,-3.5707,-3.5707,-3.5707,-3.5707,-3.5707,-3.5707,-3.5707,-3.5707,-3.5775,-3.5907,-4.5096,-4.518,-4.5063,-4.4739,-4.4657,-4.4657,-4.4657,-4.4657,-4.4682,-4.472,-4.4751,-4.4707,-4.467,-4.4707,-4.4751,-4.4751,-4.4988,-4.518,-4.518,-4.5438,-4.5594,-4.5594,-4.5594,-4.5594,-4.5594,-4.5594,-4.5594,-4.5594,-4.5594,-4.5594,-4.5594,-4.5594,-4.5594,-4.5594,-4.5594,-4.5594,-4.5594,-4.5594,-4.5594,-4.5594,-4.5594,-4.5594,-4.5594,-4.5594,-4.5594,-4.5594,-4.5594,-4.5594,-4.5594,-4.5594,-4.5594,-4.5594,-4.5594,-4.5518,-4.5287,-4.4509,-4.422,-4.3951,-4.3143,-4.2374,-4.1769,-4.1662,-4.1066,-4.0496,-4.0496,-4.0419,-4.015,-3.9438,-3.9207,-3.8854,-3.7988,-3.7815,-3.7546,-3.6673,-3.6538,-3.6288,-3.5596,-3.55,-3.55,-3.55,-3.55,-3.55,-3.55,-3.55,-3.55,-3.55,-3.55,-3.55,-3.55,-3.55,-3.55,-3.55,-3.55,-3.55,-3.55,-3.55,-3.55,-3.55,-3.5509,-3.5534,-3.5534,-3.5534,-3.5556,-3.5616,-3.5616,-3.5642,-3.5707,-3.5707,-3.5707,-3.5707,-3.5707,-3.5707,-3.5707,-3.5707,-3.5775,-3.5877,-4.4745,-4.4825,-4.4707,-4.4318,-4.4261,-4.4261,-4.4261,-4.4261,-4.435,-4.4567,-4.4593,-4.4514,-4.4276,-4.4261,-4.4364,-4.458,-4.4739,-4.4896,-4.5085,-4.5232,-4.541,-4.5586,-4.5594,-4.5594,-4.5594,-4.5594,-4.5594,-4.5594,-4.5594,-4.5594,-4.5594,-4.5594,-4.5594,-4.5594,-4.5594,-4.5594,-4.5594,-4.5594,-4.5594,-4.5594,-4.5594,-4.5594,-4.5594,-4.5594,-4.5594,-4.5594,-4.5594,-4.5594,-4.5594,-4.5594,-4.5594,-4.5594,-4.5594,-4.5594,-4.5518,-4.5152,-4.5037,-4.4836,-4.3989,-4.3489,-4.297,-4.2019,-4.1508,-4.1104,-4.0612,-4.0496,-4.04,-4.0035,-3.9977,-3.9727,-3.8873,-3.8719,-3.843,-3.7565,-3.743,-3.7142,-3.6288,-3.6173,-3.6,-3.5558,-3.55,-3.55,-3.55,-3.55,-3.55,-3.55,-3.55,-3.55,-3.55,-3.55,-3.55,-3.55,-3.55,-3.55,-3.55,-3.55,-3.55,-3.55,-3.55,-3.55,-3.55,-3.55,-3.5528,-3.554,-3.554,-3.5562,-3.5585,-3.5585,-3.5585,-3.5585,-3.5585,-3.5585,-3.5595,-3.563,-3.5686,-3.5725]},{"header":{"parameterUnit":"m.s-1","parameterCategory":1,"la1":30.6,"la2":28.766,"lo1":-90.7593,"lo2":-88.6598,"dy":0.0162,"dx":0.0183,"nx":116,"ny":114,"refTime":"2024-06-23T00:00:00:Z","depth":0,"parameterNumber":3,"parameterNumberName":"V-component_of_WINDS"},"data":[0.0,0.0,0.0,0.0,0.0,0.0,0.0,0.0,0.0,0.0,0.0,0.0,0.0,0.0,0.0,0.0,0.0,0.0,0.0,0.0,0.0,0.0,0.0,0.0,0.0,0.0,0.0,0.0,0.0,0.0,0.0,0.0,0.0,0.0,0.0,0.0,0.0,0.0,0.0,0.0,0.0,0.0,0.0,0.0,0.0,0.0,0.0,0.0,0.0,0.0,0.0,0.0,0.0,0.0,0.0,0.0,0.0,0.0,0.0,0.0,0.0,0.0,0.0,0.0,0.0,0.0,0.0,0.0,0.0,0.0,0.0,0.0,0.0,0.0,0.0,0.0,0.0,0.0,0.0,0.0,0.0,0.0,0.0,0.0,0.0,0.0,0.0,0.0,0.0,0.0,0.0,0.0,0.0,0.0,0.0,0.0,0.0,0.0,0.0,0.0,0.0,0.0,0.0,0.0,0.0,0.0,0.0,0.0,0.0,0.0,0.0,0.0,0.0,0.0,0.0,0.0,0.0,0.0,0.0,0.0,0.0,0.0,0.0,0.0,0.0,0.0,0.0,0.0,0.0,0.0,0.0,0.0,0.0,0.0,0.0,0.0,0.0,0.0,0.0,0.0,0.0,0.0,0.0,0.0,0.0,0.0,0.0,0.0,0.0,0.0,0.0,0.0,0.0,0.0,0.0,0.0,0.0,0.0,0.0,0.0,0.0,0.0,0.0,0.0,0.0,0.0,0.0,0.0,0.0,0.0,0.0,0.0,0.0,0.0,0.0,0.0,0.0,0.0,0.0,0.0,0.0,0.0,0.0,0.0,0.0,0.0,0.0,0.0,0.0,0.0,0.0,0.0,0.0,0.0,0.0,0.0,0.0,0.0,0.0,0.0,0.0,0.0,0.0,0.0,0.0,0.0,0.0,0.0,0.0,0.0,0.0,0.0,0.0,0.0,0.0,0.0,0.0,0.0,0.0,0.0,0.0,0.0,0.0,0.0,0.0,0.0,0.0,0.0,0.0,0.0,0.0,0.0,0.0,0.0,0.0,0.0,0.0,0.0,0.0,0.0,0.0,0.0,0.0,0.0,0.0,0.0,0.0,0.0,0.0,0.0,0.0,0.0,0.0,0.0,0.0,0.0,0.0,0.0,0.0,0.0,0.0,0.0,0.0,0.0,0.0,0.0,0.0,0.0,0.0,0.0,0.0,0.0,0.0,0.0,0.0,0.0,0.0,0.0,0.0,0.0,0.0,0.0,0.0,0.0,0.0,0.0,0.0,0.0,0.0,0.0,0.0,0.0,0.0,0.0,0.0,0.0,0.0,0.0,0.0,0.0,0.0,0.0,0.0,0.0,0.0,0.0,0.0,0.0,0.0,0.0,0.0,0.0,0.0,0.0,0.0,0.0,0.0,0.0,0.0,0.0,0.0,0.0,0.0,0.0,0.0,0.0,0.0,0.0,0.0,0.0,0.0,0.0,0.0,0.0,0.0,0.0,0.0,0.0,0.0,0.0,0.0,0.0,0.0,0.0,0.0,0.0,0.0,0.0,0.0,0.0,0.0,0.0,0.0,0.0,0.0,0.0,0.0,0.0,0.0,0.0,0.0,0.0,0.0,0.0,0.0,0.0,0.0,0.0,0.0,0.0,0.0,0.0,0.0,0.0,0.0,0.0,0.0,0.0,0.0,0.0,0.0,0.0,0.0,0.0,0.0,0.0,0.0,0.0,0.0,0.0,0.0,0.0,0.0,0.0,0.0,0.0,0.0,0.0,0.0,0.0,0.0,0.0,0.0,0.0,0.0,0.0,0.0,0.0,0.0,0.0,0.0,0.0,0.0,0.0,0.0,0.0,0.0,0.0,0.0,0.0,0.0,0.0,0.0,0.0,0.0,0.0,0.0,0.0,0.0,0.0,0.0,0.0,0.0,0.0,0.0,0.0,0.0,0.0,0.0,0.0,0.0,0.0,0.0,0.0,0.0,0.0,0.0,0.0,0.0,0.0,0.0,0.0,0.0,0.0,0.0,0.0,0.0,0.0,0.0,0.0,0.0,0.0,0.0,0.0,0.0,0.0,0.0,0.0,0.0,0.0,0.0,0.0,0.0,0.0,0.0,0.0,0.0,0.0,0.0,0.0,0.0,0.0,0.0,0.0,0.0,0.0,0.0,0.0,0.0,0.0,0.0,0.0,0.0,0.0,0.0,0.0,0.0,0.0,0.0,0.0,0.0,0.0,0.0,0.0,0.0,0.0,0.0,0.0,0.0,0.0,0.0,0.0,0.0,0.0,0.0,0.0,0.0,0.0,0.0,0.0,0.0,0.0,0.0,0.0,0.0,0.0,0.0,0.0,0.0,0.0,0.0,0.0,0.0,0.0,0.0,0.0,0.0,0.0,0.0,0.0,0.0,0.0,0.0,0.0,0.0,0.0,0.0,0.0,0.0,0.0,0.0,0.0,0.0,0.0,0.0,0.0,0.0,0.0,0.0,0.0,0.0,0.0,0.0,0.0,0.0,0.0,0.0,0.0,0.0,0.0,0.0,0.0,0.0,0.0,0.0,0.0,0.0,0.0,0.0,0.0,0.0,0.0,0.0,0.0,0.0,0.0,0.0,0.0,0.0,0.0,0.0,0.0,0.0,0.0,0.0,0.0,0.0,0.0,0.0,0.0,0.0,0.0,0.0,0.0,0.0,0.0,0.0,0.0,0.0,0.0,0.0,0.0,0.0,0.0,0.0,0.0,0.0,0.0,0.0,0.0,0.0,0.0,0.0,0.0,0.0,0.0,0.0,0.0,0.0,0.0,0.0,0.0,0.0,0.0,0.0,0.0,0.0,0.0,0.0,0.0,0.0,0.0,0.0,0.0,0.0,0.0,0.0,0.0,0.0,0.0,0.0,0.0,0.0,0.0,0.0,0.0,0.0,0.0,0.0,0.0,0.0,0.0,0.0,0.0,0.0,0.0,0.0,0.0,0.0,0.0,0.0,0.0,0.0,0.0,0.0,0.0,0.0,0.0,0.0,0.0,0.0,0.0,0.0,0.0,0.0,0.0,0.0,0.0,0.0,0.0,0.0,0.0,0.0,0.0,0.0,0.0,0.0,0.0,0.0,0.0,0.0,0.0,0.0,0.0,0.0,0.0,0.0,0.0,0.0,0.0,0.0,0.0,0.0,0.0,0.0,0.0,0.0,0.0,0.0,0.0,0.0,0.0,0.0,0.0,0.0,0.0,0.0,0.0,0.0,0.0,0.0,0.0,0.0,0.0,0.0,0.0,0.0,0.0,0.0,0.0,0.0,0.0,0.0,0.0,0.0,0.0,0.0,0.0,0.0,0.0,0.0,0.0,0.0,0.0,0.0,0.0,0.0,0.0,0.0,0.0,0.0,0.0,0.0,0.0,0.0,0.0,0.0,0.0,0.0,0.0,0.0,0.0,0.0,0.0,0.0,0.0,0.0,0.0,0.0,0.0,0.0,0.0,0.0,0.0,0.0,0.0,0.0,0.0,0.0,0.0,0.0,0.0,0.0,0.0,0.0,0.0,0.0,0.0,0.0,0.0,0.0,0.0,0.0,0.0,0.0,0.0,0.0,0.0,0.0,0.0,0.0,0.0,0.0,0.0,0.0,0.0,0.0,0.0,0.0,0.0,0.0,0.0,0.0,0.0,0.0,0.0,0.0,0.0,0.0,0.0,0.0,0.0,0.0,0.0,0.0,0.0,0.0,0.0,0.0,0.0,0.0,0.0,0.0,0.0,0.0,0.0,0.0,0.0,0.0,0.0,0.0,0.0,0.0,0.0,0.0,0.0,0.0,0.0,0.0,0.0,0.0,0.0,0.0,0.0,0.0,0.0,0.0,0.0,0.0,0.0,0.0,0.0,0.0,0.0,0.0,0.0,0.0,0.0,0.0,0.0,0.0,0.0,0.0,0.0,0.0,0.0,0.0,0.0,0.0,0.0,0.0,0.0,0.0,0.0,0.0,0.0,0.0,0.0,0.0,0.0,0.0,0.0,0.0,0.0,0.0,0.0,0.0,0.0,0.0,0.0,0.0,0.0,0.0,0.0,0.0,0.0,0.0,0.0,0.0,0.0,0.0,0.0,0.0,0.0,0.0,0.0,0.0,0.0,0.0,0.0,0.0,0.0,0.0,0.0,0.0,0.0,0.0,0.0,0.0,0.0,0.0,0.0,0.0,0.0,0.0,0.0,0.0,0.0,0.0,0.0,0.0,0.0,0.0,0.0,0.0,0.0,0.0,0.0,0.0,0.0,0.0,0.0,0.0,0.0,0.0,0.0,0.0,0.0,0.0,0.0,0.0,0.0,0.0,0.0,0.0,0.0,0.0,0.0,0.0,0.0,0.0,0.0,0.0,0.0,0.0,0.0,0.0,0.0,0.0,0.0,0.0,0.0,0.0,0.0,0.0,0.0,0.0,0.0,0.0,0.0,0.0,0.0,0.0,0.0,0.0,0.0,0.0,0.0,0.0,0.0,0.0,0.0,0.0,0.0,0.0,0.0,0.0,0.0,0.0,0.0,0.0,0.0,0.0,0.0,0.0,0.0,0.0,0.0,0.0,0.0,0.0,0.0,0.0,0.0,0.0,0.0,0.0,0.0,0.0,0.0,0.0,0.0,0.0,0.0,0.0,0.0,0.0,0.0,0.0,0.0,0.0,0.0,0.0,0.0,0.0,0.0,0.0,0.0,0.0,0.0,0.0,0.0,0.0,0.0,0.0,0.0,0.0,0.0,0.0,0.0,0.0,0.0,0.0,0.0,0.0,0.0,0.0,0.0,0.0,0.0,0.0,0.0,0.0,0.0,0.0,0.0,0.0,0.0,0.0,0.0,0.0,0.0,0.0,0.0,0.0,0.0,0.0,0.0,0.0,0.0,0.0,0.0,0.0,0.0,0.0,0.0,0.0,0.0,0.0,0.0,0.0,0.0,0.0,0.0,0.0,0.0,0.0,0.0,0.0,0.0,0.0,0.0,0.0,0.0,0.0,0.0,0.0,0.0,0.0,0.0,0.0,0.0,0.0,0.0,0.0,0.0,0.0,0.0,0.0,0.0,0.0,0.0,0.0,0.0,0.0,0.0,0.0,0.0,0.0,0.0,0.0,0.0,0.0,0.0,0.0,0.0,0.0,0.0,0.0,0.0,0.0,0.0,0.0,0.0,0.0,0.0,0.0,0.0,0.0,0.0,0.0,0.0,0.0,0.0,0.0,0.0,0.0,0.0,0.0,0.0,0.0,0.0,0.0,0.0,0.0,0.0,0.0,0.0,0.0,0.0,0.0,0.0,0.0,0.0,0.0,0.0,0.0,0.0,0.0,0.0,0.0,0.0,0.0,0.0,0.0,0.0,0.0,0.0,0.0,0.0,0.0,0.0,0.0,0.0,0.0,0.0,0.0,0.0,0.0,0.0,0.0,0.0,0.0,0.0,0.0,0.0,0.0,0.0,0.0,0.0,0.0,0.0,0.0,0.0,0.0,0.0,0.0,0.0,0.0,0.0,0.0,0.0,0.0,0.0,0.0,0.0,0.0,0.0,0.0,0.0,0.0,0.0,0.0,0.0,0.0,0.0,0.0,0.0,0.0,0.0,0.0,0.0,0.0,0.0,0.0,0.0,0.0,0.0,0.0,0.0,0.0,0.0,0.0,0.0,0.0,0.0,0.0,0.0,0.0,0.0,0.0,0.0,0.0,0.0,0.0,0.0,0.0,0.0,0.0,0.0,0.0,0.0,0.0,0.0,0.0,0.0,0.0,0.0,0.0,0.0,0.0,0.0,0.0,0.0,0.0,0.0,0.0,0.0,0.0,0.0,0.0,0.0,0.0,0.0,0.0,0.0,0.0,0.0,0.0,0.0,0.0,0.0,0.0,0.0,0.0,0.0,0.0,0.0,0.0,0.0,0.0,0.0,0.0,0.0,0.0,0.0,0.0,0.0,0.0,0.0,0.0,0.0,0.0,0.0,0.0,0.0,0.0,0.0,0.0,0.0,0.0,0.0,0.0,0.0,0.0,0.0,0.0,0.0,0.0,0.0,0.0,0.0,0.0,0.0,0.0,0.0,0.0,0.0,0.0,0.0,0.0,0.0,0.0,0.0,0.0,0.0,0.0,0.0,0.0,0.0,-1.8879,0.0,0.0,0.0,0.0,0.0,0.0,0.0,0.0,0.0,0.0,0.0,0.0,0.0,0.0,0.0,0.0,0.0,0.0,0.0,0.0,0.0,0.0,0.0,0.0,-0.752,-0.8125,-0.8314,-0.8324,-0.8422,-0.8678,-0.8682,-0.8779,-0.8994,-0.9004,-0.9004,-0.9004,-0.9004,-0.9102,-0.9289,-0.9718,-1.0244,-1.0858,-1.0869,-1.042,-0.9619,0.0,0.0,0.0,0.0,0.0,0.0,0.0,0.0,0.0,0.0,0.0,0.0,0.0,0.0,0.0,0.0,0.0,0.0,0.0,0.0,0.0,0.0,0.0,0.0,0.0,0.0,0.0,0.0,0.0,0.0,0.0,0.0,0.0,0.0,0.0,0.0,0.0,0.0,0.0,0.0,0.0,0.0,0.0,0.0,0.0,0.0,0.0,0.0,0.0,0.0,0.0,0.0,0.0,0.0,0.0,0.0,0.0,0.0,0.0,0.0,0.0,0.0,0.0,0.0,0.0,0.0,0.0,0.0,0.0,0.0,0.0,-2.0686,0.0,0.0,0.0,0.0,0.0,0.0,0.0,0.0,0.0,0.0,0.0,0.0,0.0,0.0,0.0,0.0,0.0,0.0,0.0,0.0,0.0,-0.6599,-0.7148,-0.7925,-0.859,-0.9055,-0.9043,-0.9072,-0.9219,-0.915,-0.915,-0.9228,-0.9228,-0.9228,-0.9228,-0.9297,-0.9523,-0.9952,-1.0625,-1.1582,-1.2769,-1.3154,-1.2582,-1.1183,-1.089,0.0,0.0,0.0,0.0,0.0,0.0,0.0,0.0,0.0,0.0,0.0,0.0,0.0,0.0,0.0,0.0,0.0,0.0,0.0,0.0,0.0,0.0,0.0,0.0,0.0,0.0,0.0,0.0,0.0,0.0,0.0,0.0,0.0,0.0,0.0,0.0,0.0,0.0,0.0,0.0,0.0,0.0,0.0,0.0,0.0,0.0,0.0,0.0,0.0,0.0,0.0,0.0,0.0,0.0,0.0,0.0,0.0,0.0,0.0,0.0,0.0,0.0,0.0,0.0,-2.5863,-2.7046,-2.7718,-2.8037,-2.7876,-2.4978,-2.3851,-2.3865,0.0,0.0,0.0,0.0,0.0,0.0,0.0,0.0,0.0,0.0,0.0,0.0,0.0,0.0,0.0,0.0,0.0,0.0,0.0,0.0,-0.6706,-0.753,-0.8086,-0.8708,-0.9464,-0.9201,-0.9316,-1.0087,-0.9737,-0.9698,-1.0117,-1.0136,-1.0136,-1.0136,-1.0469,-1.0869,-1.133,-1.2871,-1.4065,-1.4962,-1.5049,-1.4961,-1.4668,-1.3218,-1.2744,-1.3008,0.0,0.0,0.0,0.0,0.0,0.0,0.0,0.0,0.0,0.0,0.0,0.0,0.0,0.0,0.0,0.0,0.0,0.0,0.0,0.0,0.0,0.0,0.0,0.0,0.0,0.0,0.0,0.0,0.0,0.0,0.0,0.0,0.0,0.0,0.0,0.0,0.0,0.0,0.0,0.0,0.0,-1.3168,-1.3704,0.0,0.0,0.0,0.0,0.0,0.0,0.0,0.0,0.0,0.0,0.0,0.0,0.0,0.0,-2.5552,-2.6534,-2.7693,-2.9025,-2.7854,-2.7954,-2.9171,-2.8192,-2.7739,-2.7716,-2.7262,0.0,-2.6716,-2.5977,0.0,0.0,0.0,0.0,0.0,0.0,0.0,0.0,0.0,0.0,0.0,0.0,0.0,0.0,0.0,0.0,0.0,0.0,0.0,0.0,0.0,-0.9043,-0.9813,-1.0645,-1.0781,-1.0741,-1.0645,-1.0684,-1.0606,-1.0312,-1.0303,-1.041,-1.0625,-1.1076,-1.1868,-1.3008,-1.4492,-1.5537,-1.6132,-1.6406,-1.6641,-1.6836,-1.6094,-1.5186,-1.416,-1.3105,0.0,0.0,0.0,0.0,0.0,0.0,0.0,0.0,0.0,0.0,0.0,0.0,0.0,0.0,0.0,0.0,0.0,0.0,0.0,0.0,0.0,0.0,0.0,0.0,0.0,0.0,0.0,0.0,0.0,0.0,0.0,0.0,0.0,0.0,0.0,0.0,0.0,0.0,0.0,-1.29,-1.4385,-1.4777,-1.5098,-1.5098,0.0,0.0,0.0,0.0,0.0,0.0,0.0,0.0,0.0,-2.4511,-2.4705,-2.5599,-2.7433,-2.7931,-2.8763,-2.9831,-2.9229,-2.9397,-3.0217,-2.9621,-2.939,-2.9368,-2.909,-2.874,-2.8257,-2.6932,-2.5998,-2.5281,0.0,0.0,0.0,0.0,0.0,-2.2603,0.0,0.0,0.0,0.0,0.0,0.0,0.0,0.0,0.0,0.0,0.0,0.0,-0.9228,-1.0117,-1.0978,-1.1871,-1.21,-1.1979,-1.1445,-1.1428,-1.1134,-1.0469,-1.0439,-1.0586,-1.0878,-1.1768,-1.3125,-1.4933,-1.6035,-1.6846,-1.736,-1.7715,-1.8037,-1.834,-1.834,-1.7324,-1.5547,-1.457,-1.3408,-1.2162,0.0,0.0,0.0,0.0,0.0,0.0,0.0,0.0,0.0,0.0,0.0,0.0,0.0,0.0,0.0,0.0,0.0,0.0,0.0,0.0,0.0,0.0,0.0,0.0,0.0,0.0,0.0,0.0,0.0,0.0,0.0,0.0,0.0,0.0,0.0,0.0,0.0,-1.4199,-1.5439,-1.5859,-1.6999,-1.7438,0.0,0.0,0.0,0.0,0.0,0.0,-2.3648,-2.3374,-2.4268,-2.6761,-2.6367,-2.7017,-2.8977,-2.8668,-2.9031,-3.0089,-2.9469,-2.9521,-3.0187,-2.9905,-2.9759,-2.9737,-2.9381,-2.9091,-2.8844,-2.7455,-2.7207,-2.7459,-2.5338,-2.4953,-2.5512,-2.4888,-2.4708,-2.4877,0.0,0.0,0.0,0.0,0.0,0.0,0.0,0.0,0.0,0.0,0.0,-0.8835,-1.0097,-1.1007,-1.19,-1.2758,-1.2461,-1.2359,-1.2778,-1.1631,-1.0918,-1.0879,-1.0879,-1.0889,-1.0908,-1.2915,-1.503,-1.7217,-1.7686,-1.834,-1.916,-1.918,-1.9199,-1.9219,-1.9219,-1.8711,-1.7764,-1.6506,-1.5186,-1.387,-1.2613,0.0,0.0,0.0,0.0,0.0,0.0,0.0,0.0,0.0,0.0,0.0,0.0,0.0,0.0,0.0,0.0,0.0,0.0,0.0,0.0,0.0,0.0,0.0,0.0,0.0,0.0,0.0,0.0,0.0,0.0,0.0,0.0,0.0,0.0,0.0,0.0,0.0,0.0,-1.7227,-1.9322,0.0,0.0,0.0,0.0,-2.3087,-2.37,-2.4718,-2.6321,-2.6975,-2.7822,-2.899,-2.9409,-2.993,-3.0559,-2.9357,-2.9428,-3.0637,-2.8285,-2.7764,-2.8883,-2.7683,-2.7206,-2.7155,-2.7186,-2.7552,-2.8242,-2.8438,-2.8566,-2.8591,-2.7247,-2.7136,-2.7662,-2.7016,-2.6765,-2.6754,0.0,0.0,0.0,-0.6076,-0.6085,-0.6165,-0.6376,-0.6511,-0.6813,-0.7452,-0.8488,-0.9552,-1.0576,-1.1741,-1.2778,-1.3613,-1.3519,-1.3266,-1.2925,-1.2178,-1.1736,-1.1736,-1.1484,-1.2005,-1.3369,-1.4952,-1.6424,-1.7793,-1.8486,-1.9131,-1.9697,-1.9697,-1.9844,-2.0155,-2.0155,-1.9785,-1.9131,-1.7578,-1.6349,-1.5244,-1.3682,-1.233,0.0,0.0,0.0,0.0,0.0,0.0,0.0,0.0,0.0,0.0,0.0,0.0,0.0,0.0,0.0,0.0,0.0,0.0,0.0,0.0,0.0,0.0,0.0,0.0,0.0,0.0,0.0,0.0,0.0,0.0,0.0,0.0,0.0,0.0,0.0,0.0,0.0,-1.9353,-2.0419,0.0,0.0,-2.1435,-2.2594,-2.4165,-2.4764,-2.5955,-2.8176,-2.7744,-2.7906,-2.893,-2.8372,-2.8246,-2.8747,-2.8319,-2.846,-2.9126,-2.8232,-2.8085,-2.8483,-2.8032,-2.7842,-2.7822,-2.7549,-2.7592,-2.7843,-2.7667,-2.7989,-2.8587,-2.7728,-2.7536,-2.7753,-2.7495,-2.6966,-2.6373,-0.5991,-0.6103,0.0,-0.6327,-0.6336,-0.6472,-0.6874,-0.6936,-0.728,-0.8248,-0.9224,-1.0215,-1.1229,-1.252,-1.3525,-1.4055,-1.4104,-1.387,-1.334,-1.2603,-1.2203,-1.2203,-1.2227,-1.3257,-1.54,-1.6436,-1.751,-1.8652,-1.9219,-1.9717,-2.0137,-2.0137,-2.0283,-2.0605,-2.0605,-2.0449,-2.0049,-1.8779,-1.7568,-1.6427,-1.5117,-1.3994,-1.2944,0.0,0.0,0.0,0.0,0.0,0.0,0.0,0.0,0.0,0.0,0.0,0.0,0.0,0.0,0.0,0.0,0.0,0.0,0.0,0.0,0.0,0.0,0.0,0.0,0.0,0.0,0.0,0.0,0.0,0.0,0.0,0.0,0.0,0.0,0.0,-2.0055,-2.0703,-2.1878,-2.255,-2.2441,-2.3286,-2.4543,-2.6162,-2.6148,-2.6957,-2.8979,-2.8091,-2.7788,-2.842,-2.7756,-2.7588,-2.7881,-2.7881,-2.8018,-2.8291,-2.8291,-2.8291,-2.8291,-2.8291,-2.8291,-2.8281,-2.7998,-2.7855,-2.7699,-2.7353,-2.7551,-2.7996,-2.7469,-2.7409,-2.7619,-2.7168,-2.6564,-2.5931,-0.6165,-0.6206,-0.6289,-0.6535,-0.6582,-0.6769,-0.7315,-0.7275,-0.7838,-0.9654,-1.012,-1.0781,-1.2067,-1.3334,-1.4094,-1.4104,-1.4094,-1.4085,-1.4085,-1.2905,-1.2223,-1.2262,-1.311,-1.46,-1.6697,-1.7207,-1.8252,-1.9912,-1.9922,-2.0146,-2.0605,-2.0605,-2.0605,-2.0605,-2.0605,-2.0605,-2.0576,-2.0117,-1.8975,-1.7422,-1.6943,-1.5996,-1.4766,0.0,0.0,0.0,0.0,0.0,0.0,0.0,0.0,0.0,0.0,0.0,0.0,0.0,0.0,0.0,0.0,0.0,0.0,0.0,0.0,0.0,0.0,0.0,0.0,0.0,0.0,0.0,0.0,0.0,0.0,0.0,0.0,0.0,-1.8221,-2.0509,-2.2032,-2.137,-2.3693,-2.5213,-2.4849,-2.6531,-2.8055,-2.9019,-2.806,-2.7769,-2.8713,-2.8073,-2.7728,-2.7738,-2.8086,-2.8291,-2.8291,-2.8291,-2.8291,-2.8291,-2.8291,-2.8291,-2.8291,-2.8291,-2.8291,-2.8291,-2.8291,-2.8057,-2.7738,-2.7738,-2.7432,-2.6992,-2.6562,-2.6889,-2.7421,-2.6159,-2.5693,-2.5625,-0.6189,-0.6354,-0.6413,-0.6147,-0.6213,-0.6493,-0.7024,-0.6996,-0.7579,-0.9429,-1.0029,-1.0781,-1.2067,-1.3071,-1.3773,-1.4075,-1.3831,-1.3656,-1.3656,-1.2749,-1.2623,-1.3549,-1.502,-1.6385,-1.7637,-1.8389,-1.9141,-1.9912,-2.0234,-2.0488,-2.0605,-2.0605,-2.0605,-2.0605,-2.0605,-2.0605,-2.0595,-2.0478,-1.9932,-1.9102,-1.7744,-1.6992,-1.6465,0.0,0.0,0.0,0.0,0.0,0.0,0.0,0.0,0.0,0.0,0.0,0.0,0.0,0.0,0.0,0.0,0.0,0.0,0.0,0.0,0.0,0.0,0.0,0.0,0.0,0.0,0.0,0.0,0.0,0.0,0.0,0.0,-2.2198,-2.1199,-2.2555,-2.3525,-2.3118,-2.4029,-2.4764,-2.4999,-2.5762,-2.6526,-2.7094,-2.7152,-2.7381,-2.7948,-2.7796,-2.7803,-2.8115,-2.8232,-2.8291,-2.8291,-2.8291,-2.8291,-2.8291,-2.8291,-2.8291,-2.8291,-2.8291,-2.8291,-2.8291,-2.8291,-2.8223,-2.8125,-2.8125,-2.7871,-2.7412,-2.668,-2.6557,-2.6645,-2.5947,-2.5693,-2.5674,-0.6345,-0.65,-0.6474,-0.6088,-0.6121,-0.6415,-0.7034,-0.6942,-0.7597,-0.9808,-1.0223,-1.085,-1.2344,-1.3105,-1.3578,-1.3821,-1.3627,-1.3506,-1.3506,-1.3178,-1.349,-1.4591,-1.6141,-1.7402,-1.8217,-1.9111,-1.9756,-2.0185,-2.0478,-2.0605,-2.0605,-2.0605,-2.0605,-2.0605,-2.0605,-2.0605,-2.0605,-2.0605,-2.0458,-2.0078,-1.8916,-1.8232,-1.7734,-1.6113,-1.5352,-1.5079,-1.4248,-1.3545,-1.3003,-1.3003,0.0,0.0,0.0,0.0,0.0,0.0,0.0,0.0,0.0,0.0,0.0,0.0,0.0,0.0,0.0,0.0,0.0,0.0,0.0,0.0,0.0,0.0,0.0,0.0,-2.3565,-2.4436,-2.3634,-2.423,-2.4619,-2.4356,-2.4541,-2.4932,-2.5557,-2.5859,-2.626,-2.6875,-2.7148,-2.7471,-2.791,-2.793,-2.8047,-2.8281,-2.8467,-2.8467,-2.8291,-2.8467,-2.8467,-2.8291,-2.8291,-2.8291,-2.8291,-2.8291,-2.8291,0.0,-2.8291,-2.8291,-2.8291,-2.8291,-2.8144,0.0,0.0,0.0,0.0,0.0,-2.5693,-2.5693,-0.6543,-0.6599,-0.6509,-0.6218,-0.6212,-0.6454,-0.7102,-0.6996,-0.7756,-1.0323,-1.0446,-1.0948,-1.2651,-1.3184,-1.3437,-1.3437,-1.3437,-1.3477,-1.3574,-1.3987,-1.466,-1.5596,-1.6846,-1.792,-1.8724,-1.957,-2.0176,-2.0605,-2.0605,-2.0605,-2.0605,-2.0605,-2.0605,-2.0605,-2.0605,-2.0605,-2.0605,-2.0605,-2.0605,-2.0566,-2.0146,-1.9465,-1.8646,-1.7793,-1.7217,-1.6726,-1.5849,-1.504,-1.4387,-1.4338,0.0,0.0,0.0,0.0,0.0,0.0,0.0,0.0,0.0,0.0,0.0,0.0,0.0,0.0,0.0,0.0,0.0,0.0,0.0,0.0,0.0,0.0,0.0,0.0,-2.5401,-2.5714,-2.5565,-2.5438,-2.5302,-2.5112,-2.5165,-2.5469,-2.6309,-2.6435,-2.6797,-2.766,-2.7767,-2.79,-2.8271,0.0,0.0,0.0,0.0,-2.876,-2.8437,-2.8809,-2.8779,-2.8359,-2.8359,-2.834,-2.8291,-2.8291,-2.8291,-2.8291,-2.8291,-2.8291,-2.8291,-2.8291,-2.8262,-2.8144,-2.7324,-2.6758,-2.6338,-2.5849,-2.5693,0.0,-0.6543,-0.6599,-0.6457,-0.6036,-0.6224,-0.6477,-0.6556,-0.6843,-0.7709,-0.9592,-1.0116,-1.0811,-1.2184,-1.2744,-1.3023,-1.3023,-1.3023,-1.3291,-1.3938,-1.4708,-1.5713,-1.6953,-1.7891,-1.8754,-1.9648,-2.0176,-2.0517,-2.0605,-2.0605,-2.0605,-2.0605,-2.0605,-2.0605,-2.0605,-2.0605,-2.0605,-2.0605,-2.0605,-2.0605,-2.0595,-2.0507,-2.0127,-1.9541,-1.834,-1.7842,-1.7613,-1.6755,-1.6336,-1.6141,-1.5811,-1.5352,-1.4775,-1.388,-1.3174,0.0,0.0,0.0,0.0,0.0,0.0,0.0,0.0,0.0,0.0,0.0,0.0,0.0,0.0,0.0,0.0,0.0,0.0,0.0,-2.5693,-2.5713,-2.5684,-2.6351,-2.5716,-2.5154,-2.5096,-2.5391,-2.581,-2.6338,-2.6699,-2.7109,-2.7679,-2.7978,-2.8203,-2.8291,-2.8291,0.0,-2.8789,-2.8877,-2.9053,-2.9381,-2.9404,-2.9228,-2.8799,0.0,0.0,-2.8291,-2.8291,-2.8291,-2.8291,-2.8291,-2.8291,-2.8291,-2.8291,-2.8096,-2.7734,-2.7217,-2.6758,-2.6338,-2.5849,-2.5693,-2.5693,-0.6582,-0.6599,-0.6448,-0.5984,-0.6236,-0.6479,-0.641,-0.6797,-0.77,-0.9369,-0.9806,-1.0449,-1.1748,-1.2113,-1.224,-1.224,-1.2651,-1.333,-1.4394,-1.5264,-1.623,-1.7334,-1.8398,-1.916,-1.959,-2.0273,-2.0605,-2.0605,-2.0605,-2.0605,-2.0605,-2.0605,-2.0605,-2.0605,-2.0605,-2.0605,-2.0605,-2.0605,-2.0605,-2.0605,-2.0605,-2.0478,-2.0127,-1.9053,-1.8516,-1.8208,-1.7564,-1.7067,-1.6668,-1.6475,-1.6103,-1.5586,-1.4736,-1.4316,-1.3936,0.0,0.0,0.0,0.0,0.0,0.0,0.0,0.0,0.0,0.0,0.0,0.0,0.0,0.0,-2.0136,-2.2181,0.0,-2.4887,-2.5743,-2.5947,-2.6044,-2.5908,-2.5625,-2.54,-2.54,-2.5605,-2.5937,-2.6641,-2.6894,-2.7285,-2.793,-2.8174,-2.8291,-2.8291,-2.8496,-2.8701,-2.8916,-2.9336,-2.956,-2.9626,-2.9785,-2.956,-2.8916,-2.8916,-2.8701,-2.8291,-2.8291,-2.8291,-2.8291,-2.8291,-2.8291,-2.8291,-2.8291,-2.8164,-2.7939,-2.751,-2.6953,-2.6338,-2.5849,-2.5693,-2.5693,-0.6517,-0.6517,-0.6411,-0.607,-0.632,-0.6552,-0.6536,-0.692,-0.7729,-0.9182,-0.9513,-1.004,-1.1234,-1.1508,-1.1636,-1.1702,-1.2514,-1.357,-1.4824,-1.5743,-1.6652,-1.7578,-1.8691,-1.9326,-1.9404,-2.0204,-2.0605,-2.0605,-2.0605,-2.0605,-2.0605,-2.0605,-2.0605,-2.0605,-2.0605,-2.0605,-2.0605,-2.0605,-2.0605,-2.0605,-2.0605,-2.0605,-2.0507,-1.9609,-1.9072,-1.8646,-1.8096,-1.736,-1.6687,-1.6599,-1.6309,-1.585,-1.5155,-1.5078,-1.5019,-1.3678,-1.3369,0.0,0.0,0.0,0.0,0.0,0.0,0.0,0.0,0.0,-1.7748,-1.9199,-2.0487,-2.1718,-2.3143,-2.4505,-2.5426,-2.5544,-2.6024,-2.6093,-2.5328,-2.5508,-2.5693,-2.5693,-2.5693,-2.6025,-2.6934,-2.7012,-2.7373,-2.8223,-2.8291,-2.833,-2.8408,-2.874,-2.8994,-2.916,-2.9834,-3.0078,-2.9824,-3.0166,-2.9941,-2.917,-2.9082,-2.8828,-2.8408,-2.833,-2.8291,-2.8291,-2.8291,-2.8291,-2.8291,-2.8291,-2.8291,-2.8252,-2.7885,-2.7297,-2.6572,-2.6055,-2.5762,-2.5693,-0.6245,-0.6245,-0.6279,-0.6411,-0.6628,-0.6823,-0.6992,-0.7369,-0.7846,-0.8463,-0.9153,-0.9815,-1.0391,-1.1145,-1.1741,-1.2096,-1.2939,-1.3984,-1.5254,-1.6132,-1.7174,-1.8403,-1.9004,-1.9463,-1.9834,-2.0361,-2.0605,-2.0605,-2.0605,-2.0605,-2.0605,-2.0605,-2.0605,-2.0605,-2.0605,-2.0605,-2.0605,-2.0605,-2.0605,-2.0605,-2.0605,-2.0605,-2.0507,-1.9609,-1.9258,-1.9062,-1.7881,-1.7148,-1.6638,-1.6279,-1.585,-1.5469,-1.5371,-1.5117,-1.4814,-1.4629,-1.4062,-1.3721,-1.4717,-1.5634,-1.6531,-1.7373,-1.7363,-1.7881,0.0,0.0,-2.0175,-2.2311,-2.3322,-2.4094,-2.5121,-2.5334,-2.5565,-2.5947,-2.5609,-2.5348,-2.5605,-2.5654,-2.5693,-2.5693,-2.5693,-2.6025,-2.6934,-2.7012,-2.7373,-2.8223,-2.8291,-2.8457,-2.8828,-2.8896,-2.9268,-3.0029,-3.0146,-3.0371,-3.0742,-3.0791,-3.0557,-3.0049,-2.9678,-2.9268,-2.8838,-2.8467,-2.8291,-2.8291,-2.8291,-2.8291,-2.8291,-2.8291,-2.8291,-2.8252,-2.7885,-2.766,-2.7422,-2.6611,-2.6074,-2.5693,-0.6025,-0.5898,-0.5984,-0.6574,-0.6746,-0.6878,-0.7071,-0.7447,-0.7866,-0.8336,-0.8682,-0.916,-0.9834,-1.0469,-1.1115,-1.1777,-1.2402,-1.3393,-1.4951,-1.5859,-1.6807,-1.7861,-1.8799,-1.9365,-1.9541,-2.0253,-2.0605,-2.0605,-2.0605,-2.0605,-2.0605,-2.0605,-2.0605,-2.0605,-2.0605,-2.0605,-2.0605,-2.0605,-2.0605,-2.0605,-2.0605,-2.0449,-2.0098,-1.9228,-1.8603,-1.8076,-1.7285,-1.6553,0.0,-1.5039,-1.5061,-1.5235,-1.4336,-1.4563,-1.5049,-1.4551,-1.4687,-1.5332,-1.6833,-1.7525,-1.8013,-1.8906,-1.9375,-2.0019,-2.1543,-2.1455,-2.1468,-2.29,-2.3388,-2.3689,-2.4051,-2.4506,-2.4872,0.0,-2.532,-2.5527,-2.5664,-2.5518,-2.5352,-2.5352,-2.5352,-2.5791,-2.6904,-2.7012,-2.7373,-2.8223,-2.8291,-2.8476,-2.8896,-2.916,-2.957,-3.0176,-3.0459,-3.0693,-3.0889,-3.0889,-3.0654,-3.0195,-3.0019,-2.958,-2.8916,-2.874,-2.8525,-2.8291,-2.8291,-2.8291,-2.8291,-2.8291,-2.8291,-2.8271,-2.8096,-2.7933,-2.7611,-2.6699,-2.6269,-2.6084,-0.5958,-0.5827,-0.5941,-0.6734,-0.6884,-0.6974,-0.7221,-0.7515,-0.7827,-0.8154,-0.8424,-0.8877,-0.9698,-1.0098,-1.0596,-1.134,-1.1904,-1.2837,-1.4336,-1.5371,-1.631,-1.7168,-1.8311,-1.9043,-1.9277,-2.001,-2.0488,-2.0605,-2.0605,-2.0605,-2.0605,-2.0605,-2.0605,-2.0605,-2.0605,-2.0605,-2.0605,-2.0605,-2.0537,-2.0429,-2.0429,-2.0127,-1.9648,-1.8754,-1.7794,-1.685,-1.627,-1.5492,-1.463,-1.3649,-1.3894,-1.442,-1.3433,-1.3988,-1.4981,-1.4746,-1.5664,-1.6992,-1.8018,-1.8685,-1.9346,-2.005,-2.0898,-2.1658,-2.2139,-2.2236,-2.2402,-2.2974,-2.3091,-2.3091,-2.3091,-2.3695,-2.4277,-2.4394,-2.5059,-2.5547,-2.5674,-2.5352,-2.5165,-2.5234,-2.5194,-2.5537,-2.6728,-2.6846,-2.7197,-2.8057,-2.8125,-2.8408,-2.9062,-2.9404,-2.9824,-3.0371,-3.0713,-3.0889,-3.0889,-3.0889,-3.0723,-3.0391,-3.0264,-2.9805,-2.9092,-2.8848,-2.8584,-2.8291,-2.8291,-2.8291,-2.8291,-2.8291,-2.8291,-2.8291,-2.8291,-2.8105,-2.7787,-2.6875,-2.6484,-2.6328,-0.6097,-0.6191,-0.6372,-0.6986,-0.7093,-0.7227,-0.7618,-0.7695,-0.7705,-0.7715,-0.8451,-0.9316,-1.0185,-1.0293,-1.0479,-1.0868,-1.1706,-1.2584,-1.3486,-1.4727,-1.58,-1.6687,-1.7588,-1.8437,-1.9268,-1.9707,-2.0137,-2.0605,-2.0605,-2.0605,-2.0605,-2.0605,-2.0605,-2.0605,-2.0605,-2.0605,-2.0605,-2.0605,-2.0322,-1.9932,-1.9932,-1.9678,-1.9209,-1.835,-1.7073,-1.5624,-1.4772,-1.3917,-1.3068,-1.2389,-1.2348,-1.2651,-1.2978,-1.3576,-1.4387,-1.5674,-1.7217,-1.8354,-1.7627,-1.8971,-2.0654,-2.1074,-2.1836,-2.2588,-2.2964,-2.3052,-2.3062,-2.3091,-2.3091,-2.3091,-2.3091,-2.3506,-2.3945,-2.4346,-2.4795,-2.5244,-2.5625,-2.5352,-2.5225,-2.5615,-2.5332,-2.5468,0.0,-2.6406,-2.6768,-2.7669,-2.7738,-2.8286,-2.9482,-2.956,-2.9971,-3.084,-3.0889,-3.0889,-3.0889,-3.0889,-3.0889,-3.0859,-3.041,-2.9971,-2.9521,-2.8691,-2.8301,-2.8291,-2.8291,-2.8291,-2.8291,-2.8291,-2.8291,-2.8291,-2.8291,-2.8281,-2.8174,-2.7314,-2.6738,-2.6328,-0.5843,-0.5933,-0.6179,-0.6956,-0.71,-0.7232,-0.7637,-0.7695,-0.7817,-0.8125,-0.888,0.0,0.0,0.0,0.0,0.0,-1.1445,-1.2181,-1.3037,-1.4287,-1.5254,-1.58,-1.6973,-1.7861,-1.8428,-1.8812,-1.9277,-1.9754,-1.9754,-1.9754,-1.9754,-1.9754,-1.9754,-1.9754,-1.9754,-1.9754,-1.9754,-1.9754,-1.9795,-1.9863,-1.926,-1.8948,-1.8689,-1.7182,-1.5689,-1.4275,0.0,-1.2215,-1.189,-1.0905,-1.1442,-1.2401,-1.1783,-1.2731,-1.4416,-1.6045,-1.7324,-1.8408,-1.9294,-2.0488,-2.1543,-2.1973,-2.2467,-2.2916,-2.3062,-2.3091,-2.3091,-2.3091,-2.2877,-2.2682,-2.2682,-2.3066,-2.3496,-2.3935,-2.46,-2.5225,-2.5625,-2.5557,-2.5459,-2.5312,-2.543,0.0,0.0,0.0,0.0,-2.765,-2.7718,-2.8276,-2.9558,-2.9626,-2.998,-3.0859,-3.0889,-3.0889,-3.0889,-3.0889,-3.0889,-3.0879,-3.0137,-2.9551,-2.9121,-2.8555,-2.8291,-2.8291,-2.8291,-2.8291,-2.8291,-2.8291,-2.8291,-2.8291,-2.8291,-2.8125,-2.7803,-2.7226,-2.6748,-2.6328,-0.5929,-0.6144,-0.6497,-0.7197,-0.731,0.0,0.0,0.0,0.0,0.0,0.0,0.0,0.0,0.0,0.0,0.0,0.0,-1.1663,-1.2387,-1.3502,-1.4355,-1.4903,-1.5918,-1.6728,-1.7305,-1.7578,-1.8008,-1.8603,-1.8603,-1.8682,-1.8828,-1.8828,-1.8828,-1.8828,-1.8828,-1.8828,-1.8828,-1.8828,-1.8906,-1.8909,-1.7946,-1.747,-1.7173,-1.544,-1.3987,0.0,-1.1454,-1.0965,-1.0769,-1.0037,-1.0835,-1.2079,-1.1722,-1.3296,-1.5547,-1.6785,-1.7867,-1.9033,-2.0615,-2.1455,-2.2021,-2.2598,-2.2896,-2.3091,-2.3091,-2.3091,-2.3013,-2.2711,-2.248,-2.2246,-2.208,-2.2233,-2.2711,-2.3643,-2.4258,-2.4932,-2.584,-2.5693,-2.5566,-2.5742,-2.5752,-2.5742,0.0,0.0,0.0,-2.7393,-2.763,-2.8276,-2.9558,-2.9626,-2.998,-3.0859,-3.0889,-3.0889,-3.0889,-3.0889,-3.081,-3.0635,-2.9912,-2.9336,-2.8906,-2.8486,-2.8291,-2.8291,-2.8291,-2.8291,-2.8291,-2.8291,-2.8291,-2.8291,-2.8291,-2.8037,-2.7669,-2.7178,-2.6748,-2.6328,-0.6328,-0.6787,-0.7236,0.0,0.0,0.0,0.0,0.0,0.0,0.0,0.0,0.0,0.0,0.0,0.0,0.0,0.0,0.0,-1.1504,-1.235,-1.3207,-1.4007,-1.4447,-1.5079,-1.5946,-1.5996,-1.6385,-1.7252,-1.7275,-1.748,-1.7881,-1.7881,-1.7881,-1.7881,-1.7881,-1.7881,-1.7871,-1.7847,-1.7623,-1.7243,-1.6034,-1.5372,-1.4885,-1.3329,-1.2024,-1.1035,-1.0599,-1.0193,-0.9821,-0.9851,-1.068,-1.1889,-1.2968,-1.5205,-1.751,-1.7969,-1.8994,-2.0264,-2.1543,-2.1924,-2.2139,-2.2896,-2.3091,-2.3091,-2.3062,-2.3042,-2.2789,-2.1992,-2.1787,-2.1621,-2.1142,0.0,-2.1697,-2.3389,-2.375,-2.4414,-2.6113,-2.5674,-2.5625,0.0,0.0,0.0,0.0,0.0,0.0,-2.7051,0.0,-2.8276,-2.9558,-2.9626,-2.998,-3.0859,-3.0889,-3.0889,-3.0889,-3.0889,-3.0644,-3.0156,-2.9756,-2.9326,-2.8877,-2.8476,-2.8291,-2.8291,-2.8291,-2.8291,-2.8291,-2.8291,-2.8291,-2.8291,-2.8291,-2.8027,-2.764,-2.7168,-2.6738,-2.6299,0.0,0.0,0.0,0.0,0.0,0.0,0.0,0.0,0.0,0.0,0.0,0.0,0.0,0.0,0.0,0.0,0.0,0.0,-1.0507,-1.1481,-1.2407,-1.3168,-1.2932,-1.3279,-1.436,-1.4399,-1.463,-1.5172,-1.5667,-1.5967,-1.6074,-1.6074,-1.6074,-1.6074,-1.6074,-1.6074,-1.6044,-1.5536,-1.5752,-1.6266,-1.4327,-1.3957,-1.4363,-1.2414,-1.1235,-1.0586,-1.0066,-0.9851,-0.9888,-1.0538,-1.229,-1.4441,-1.5866,-1.7019,-1.8057,-1.9121,-2.0127,-2.1005,-2.1709,-2.2344,-2.2828,-2.3042,-2.3091,-2.3013,-2.2701,-2.2432,-2.1953,-2.1124,-2.0391,-1.9814,-1.9338,-2.0088,0.0,-2.1758,-2.3223,0.0,-2.5693,-2.626,0.0,-2.6973,0.0,-2.7129,-2.7021,-2.7314,0.0,0.0,-2.765,-2.8276,-2.9558,-2.9626,-2.998,-3.0859,-3.0889,-3.0889,-3.0889,-3.0889,-3.0498,-2.9726,-2.9675,-2.918,-2.8447,-2.834,-2.8291,-2.8291,-2.8291,-2.8291,-2.8291,-2.8291,-2.8291,-2.8291,-2.8291,-2.7832,-2.7168,-2.7051,-2.6543,-2.584,0.0,0.0,0.0,0.0,0.0,0.0,0.0,0.0,0.0,0.0,0.0,0.0,0.0,0.0,0.0,0.0,0.0,0.0,0.0,-1.0485,-1.1039,-1.1773,-1.1498,-1.1719,-1.2474,-1.2622,-1.2981,-1.3578,-1.4072,-1.4478,-1.4825,-1.4825,-1.4825,-1.4825,-1.4825,-1.4825,-1.4797,-1.4099,-1.4201,0.0,0.0,-1.2137,-1.2498,-1.0848,-1.0006,-0.9707,-0.9425,-1.0211,-1.1587,-1.3062,-1.4807,-1.6598,-1.7838,-1.8643,-1.9346,-2.0459,-2.1133,-2.165,-2.2275,-2.2783,-2.3091,-2.3091,-2.3091,-2.2886,-2.2087,-2.1768,-2.1133,-1.9539,-1.8936,-1.8477,-1.7656,-1.8721,0.0,0.0,0.0,0.0,-2.5508,-2.6318,-2.6885,0.0,-2.7519,0.0,-2.7578,-2.7793,-2.7939,0.0,-2.7939,-2.8418,-2.9567,-2.9626,-2.998,-3.0859,-3.0889,-3.0889,-3.0889,-3.0693,-3.0244,-2.9626,-2.9375,-2.8935,-2.8291,-2.8291,-2.8291,-2.8291,0.0,-2.8291,-2.8291,-2.8291,-2.8291,-2.8291,-2.8291,-2.7773,-2.7012,-2.7012,-2.6475,-2.5693,0.0,0.0,0.0,0.0,0.0,0.0,0.0,0.0,0.0,-0.9111,-0.8713,0.0,0.0,0.0,0.0,0.0,0.0,0.0,0.0,0.0,-0.9509,-1.0273,-1.0212,-1.0327,-1.078,-1.0996,-1.1485,-1.2261,-1.26,-1.3111,-1.3797,-1.3886,-1.3938,-1.3938,-1.3938,-1.3886,-1.3744,-1.3085,-1.2788,-1.2654,-1.0949,-1.0321,-1.029,0.0,-0.8883,-0.8831,-0.9008,-1.0912,-1.3717,-1.5951,-1.7379,-1.8418,-1.9346,-2.0214,-2.1026,-2.1807,-2.2051,-2.2207,-2.2896,-2.3091,-2.3091,-2.3091,-2.3052,-2.2682,-2.1395,-2.0976,-2.0147,-1.7715,-1.7412,-1.7236,-1.6134,-1.7305,-1.8896,-2.0224,0.0,-2.3682,-2.5362,-2.6074,-2.6709,-2.7611,-2.7767,-2.7891,-2.8262,-2.8291,-2.8291,-2.8291,-2.8291,-2.8643,-2.9443,-2.9482,-2.9863,-3.0693,-3.0713,-3.0713,-3.0713,-3.0312,-2.9902,-2.9482,-2.9101,-2.8701,-2.8291,-2.8291,-2.8291,-2.8291,0.0,0.0,-2.8291,-2.8291,-2.8291,-2.8291,-2.8291,-2.7773,-2.7012,-2.7012,-2.6475,-2.5693,0.0,0.0,0.0,0.0,0.0,0.0,0.0,-0.8672,-0.918,-0.998,-0.9654,-0.9431,-0.9611,-0.9478,0.0,0.0,0.0,0.0,0.0,0.0,0.0,-0.9791,-0.9145,-0.9385,-1.078,-1.0298,-1.0407,-1.109,-1.1708,-1.2047,-1.2207,-1.2828,-1.3096,-1.3096,-1.3096,-1.2769,-1.2147,-1.149,-1.1208,-1.108,-0.9671,-0.942,-0.9896,-0.9706,0.0,0.0,-1.0064,-1.1613,-1.3521,-1.5915,-1.7974,-1.9805,-2.1045,-2.1777,-2.2275,-2.273,-2.2877,-2.2906,-2.3052,-2.3091,-2.3091,-2.3091,-2.2838,-2.2285,-2.0977,-1.9853,-1.852,-1.6711,-1.5821,-1.5273,-1.5077,-1.6426,-1.8018,-1.9333,-2.126,-2.3223,-2.4941,-2.5879,-2.6709,0.0,-2.7969,-2.8213,-2.8281,0.0,0.0,0.0,0.0,0.0,-2.9004,-2.9033,-2.9268,-2.9785,-2.9861,-2.9861,-2.9861,-2.9717,-2.9463,-2.9033,-2.8955,-2.8701,-2.8291,-2.8291,-2.8291,-2.8291,0.0,0.0,-2.8291,-2.8291,-2.8291,-2.8291,-2.8291,-2.7773,-2.7012,-2.7012,-2.6475,-2.5693,0.0,0.0,0.0,0.0,0.0,0.0,-0.8896,-0.9182,-0.9717,-1.0821,-1.0476,-1.0049,-0.9826,-0.8848,-0.8239,0.0,0.0,0.0,0.0,0.0,0.0,-0.8528,-0.8279,-0.8591,-0.9534,-0.9511,-0.9756,-1.0287,0.0,-1.1633,-1.1814,0.0,0.0,-1.2905,-1.2905,-1.2476,-1.1765,-1.1091,-1.0593,-1.0185,-0.9211,-0.8982,-0.9309,-0.9666,0.0,0.0,-1.044,-1.1555,-1.2934,-1.525,-1.7291,-1.9228,-2.0996,-2.1992,-2.2549,-2.2711,-2.2925,-2.3091,-2.3091,-2.3091,-2.3091,-2.3091,-2.2656,-2.1728,-1.9961,-1.874,-1.7363,-1.5186,-1.458,-1.4316,-1.3903,-1.541,0.0,-1.7822,-1.9756,-2.1836,-2.3789,-2.501,0.0,-2.7197,-2.79,-2.8291,0.0,0.0,0.0,0.0,0.0,0.0,-2.8896,-2.9131,-2.9355,-2.956,-2.9626,-2.9626,-2.9626,-2.9346,-2.9121,-2.8916,-2.8701,-2.8486,-2.8291,-2.8291,-2.8291,-2.8291,0.0,0.0,-2.8291,-2.8291,-2.8291,-2.8271,-2.8057,-2.7578,-2.6982,-2.6768,-2.6289,-2.5693,0.0,0.0,0.0,0.0,0.0,0.0,-0.9398,-0.9689,-1.0234,-1.1555,-1.1034,-1.0423,-1.0098,-0.8396,-0.7574,0.0,0.0,0.0,0.0,0.0,0.0,0.0,0.0,-0.8111,-0.8614,0.0,0.0,0.0,0.0,0.0,0.0,0.0,0.0,0.0,0.0,0.0,-1.1341,-1.0813,-1.0192,0.0,0.0,-0.8804,0.0,0.0,0.0,0.0,0.0,-1.1114,-1.2142,-1.4345,-1.5865,-1.7288,-1.9537,-2.1132,-2.2256,-2.2353,-2.2676,-2.2984,-2.3071,-2.3091,-2.3091,-2.3091,-2.2432,-2.1201,-1.9121,-1.7842,-1.6416,-1.4004,-1.3675,-1.3691,-1.3125,-1.449,-1.5889,-1.658,-1.8334,-2.04,-2.2526,-2.4062,-2.541,0.0,-2.7637,0.0,0.0,0.0,0.0,0.0,0.0,0.0,0.0,-2.9111,-2.9297,-2.9297,-2.9297,-2.9297,-2.9297,-2.8955,-2.8779,-2.8779,-2.8447,-2.8291,-2.8291,-2.8291,-2.8291,-2.8291,0.0,0.0,0.0,-2.8291,-2.8242,-2.8125,-2.7793,-2.7344,-2.6836,-2.6514,-2.6113,-2.5693,0.0,0.0,0.0,0.0,0.0,0.0,-0.9398,-0.9971,-1.0693,-1.1979,-1.1154,-1.0283,-0.995,-0.8869,-0.7903,0.0,0.0,0.0,0.0,0.0,0.0,0.0,0.0,0.0,0.0,0.0,0.0,0.0,0.0,0.0,0.0,0.0,0.0,0.0,0.0,0.0,0.0,-0.9917,0.0,0.0,0.0,0.0,0.0,0.0,0.0,0.0,0.0,-1.0334,-1.1232,-1.3256,-1.3636,-1.3737,-1.6287,-1.9046,-2.1385,-2.1826,-2.2236,-2.2613,-2.2994,-2.3091,-2.3091,-2.3091,-2.2165,-2.0791,-1.9098,-1.7406,-1.5703,-1.3877,-1.3232,-1.3096,-1.3389,-1.389,-1.4816,-1.6434,-1.7837,-1.9475,-2.1689,-2.3428,-2.4971,-2.6289,0.0,0.0,0.0,0.0,0.0,0.0,0.0,0.0,0.0,-2.8389,-2.8408,-2.8408,-2.8408,-2.8408,-2.8408,-2.8369,-2.835,-2.835,-2.831,-2.8291,-2.8291,-2.8291,-2.8291,-2.8291,0.0,0.0,0.0,-2.8291,-2.8066,-2.7767,-2.7738,-2.7168,-2.6435,-2.6396,-2.6113,-2.5693,0.0,0.0,0.0,0.0,0.0,0.0,-0.9084,-0.9319,-0.9922,-1.1389,-1.0549,-0.9754,-0.962,-0.8686,-0.7774,-0.7068,0.0,0.0,0.0,0.0,0.0,0.0,0.0,0.0,0.0,0.0,0.0,0.0,0.0,0.0,0.0,0.0,0.0,0.0,0.0,0.0,0.0,0.0,0.0,0.0,0.0,0.0,0.0,0.0,0.0,0.0,0.0,0.0,-1.0383,-1.1589,-1.2155,-1.2615,-1.4066,-1.5917,-1.791,-1.977,-2.0996,-2.1853,-2.2535,-2.2906,-2.3091,-2.3091,-2.1973,-2.0381,-1.8662,-1.6924,-1.5186,-1.3486,-1.3023,-1.2954,-1.3096,-1.3477,-1.415,-1.5361,-1.6201,-1.7549,-1.998,-2.1582,-2.3271,0.0,0.0,0.0,0.0,0.0,0.0,0.0,0.0,0.0,0.0,-2.8291,-2.8291,-2.8291,-2.8291,-2.8291,-2.8291,-2.8291,-2.8291,-2.8291,-2.8291,-2.8291,-2.8291,-2.8291,-2.8291,-2.8291,0.0,0.0,0.0,-2.8018,-2.7812,-2.7669,-2.71,-2.6689,-2.6357,-2.6094,-2.584,-2.5693,0.0,0.0,0.0,0.0,0.0,-0.7669,-0.8621,-0.8678,-0.9149,-1.0616,-0.9914,-0.9258,-0.9258,-0.836,-0.7622,-0.7194,-0.7053,0.0,0.0,0.0,0.0,0.0,0.0,0.0,0.0,0.0,-0.9008,-0.8804,0.0,0.0,0.0,0.0,0.0,0.0,0.0,0.0,0.0,0.0,0.0,0.0,0.0,0.0,0.0,0.0,0.0,0.0,0.0,0.0,0.0,0.0,0.0,-1.1279,-1.2164,-1.3161,-1.469,-1.7952,-1.9746,-2.0839,-2.1865,-2.2399,-2.2773,-2.2773,-2.1465,-1.9813,-1.8184,-1.6475,-1.4775,-1.3228,-1.2905,-1.2905,-1.2905,-1.3125,-1.3564,-1.4297,-1.4971,-1.623,-1.8584,-2.0216,0.0,0.0,0.0,0.0,0.0,0.0,0.0,0.0,0.0,0.0,0.0,0.0,-2.8291,-2.8291,-2.8291,-2.8291,-2.8291,-2.8291,-2.8291,-2.8291,-2.8291,-2.8291,-2.8291,-2.8291,-2.8291,0.0,0.0,0.0,0.0,-2.7836,-2.7571,-2.7226,-2.6631,-2.6309,-2.6162,-2.5801,-2.5693,-2.5693,0.0,0.0,0.0,0.0,0.0,-0.6891,-0.804,-0.8206,-0.8618,-0.9757,-0.9313,-0.8912,-0.8912,-0.8075,-0.7491,-0.7484,-0.7194,0.0,0.0,0.0,0.0,0.0,0.0,0.0,0.0,0.0,-0.9465,-0.8804,-1.0141,-1.0466,0.0,0.0,0.0,0.0,0.0,0.0,0.0,0.0,0.0,0.0,0.0,0.0,-0.9814,0.0,0.0,0.0,0.0,0.0,0.0,0.0,0.0,0.0,0.0,-1.1163,-1.2384,-1.673,-1.8633,-1.959,-2.0859,-2.1562,-2.1894,-2.1894,-2.0586,-1.8965,-1.7686,-1.6075,-1.4424,-1.3169,-1.2905,-1.2905,-1.2905,-1.2905,-1.3027,-1.3447,-1.4552,-1.6025,-1.7783,-1.9835,0.0,0.0,0.0,0.0,0.0,0.0,0.0,0.0,0.0,0.0,0.0,0.0,-2.8291,-2.8291,-2.8291,-2.8291,-2.8291,-2.8291,-2.8291,-2.8291,-2.8291,-2.8291,-2.8291,-2.8291,0.0,0.0,0.0,0.0,0.0,-2.7718,-2.7168,-2.6396,-2.6396,-2.6123,-2.5693,-2.5693,-2.5693,-2.5693,0.0,0.0,0.0,0.0,0.0,0.0,-0.7024,-0.7198,-0.7603,-0.8414,-0.799,-0.7767,-0.8182,-0.7786,-0.7513,-0.7513,-0.7194,0.0,0.0,0.0,0.0,0.0,0.0,0.0,0.0,-0.8748,-0.9008,-0.8804,-0.9692,-1.0244,-1.0491,-1.0686,-1.13,0.0,0.0,0.0,0.0,0.0,0.0,0.0,0.0,-1.1484,-1.185,0.0,0.0,0.0,0.0,0.0,0.0,0.0,0.0,0.0,0.0,0.0,0.0,-1.3244,-1.566,-1.7485,-1.722,-1.8055,-1.891,-1.8627,-1.7894,-1.6919,-1.5626,-1.5051,-1.4295,-1.2513,-1.2559,-1.2905,-1.2905,-1.2905,-1.3424,-1.5028,-1.5625,-1.667,-1.8984,0.0,0.0,0.0,0.0,0.0,0.0,0.0,0.0,0.0,0.0,0.0,0.0,0.0,-2.8291,-2.8291,-2.8291,-2.8291,-2.8291,-2.8291,-2.8291,-2.8291,-2.8291,-2.8291,-2.8281,-2.7998,0.0,0.0,0.0,0.0,0.0,-2.6904,-2.6631,-2.6357,-2.6064,-2.581,-2.5693,-2.5693,-2.5693,-2.5693,0.0,0.0,0.0,0.0,0.0,0.0,-0.6223,-0.6335,-0.6637,-0.7185,-0.7017,-0.7026,-0.7513,-0.7415,-0.7363,-0.75,-0.7194,0.0,0.0,0.0,0.0,0.0,0.0,0.0,-0.8462,-0.8847,-0.9278,-0.9823,-1.0229,-1.0665,-1.1045,-1.0821,-1.1192,-1.2024,-1.0226,0.0,0.0,0.0,0.0,0.0,-1.1266,-1.1708,-1.2024,0.0,0.0,0.0,0.0,0.0,0.0,0.0,0.0,0.0,0.0,0.0,0.0,0.0,-1.2904,-1.4747,-1.4813,-1.5629,-1.645,-1.6206,-1.5851,-1.5331,-1.4403,-1.4232,-1.3917,-1.2507,-1.2584,-1.2905,-1.2905,-1.2905,-1.3394,-1.4882,-1.54,-1.6457,0.0,0.0,0.0,0.0,0.0,0.0,0.0,0.0,0.0,0.0,0.0,0.0,0.0,0.0,-2.7812,-2.7812,-2.8125,-2.8291,-2.8291,-2.8291,-2.8291,-2.8291,-2.8135,-2.8057,-2.8047,0.0,0.0,0.0,0.0,0.0,0.0,-2.6494,-2.6299,-2.6113,-2.5791,-2.5693,-2.5693,-2.5693,-2.5693,-2.5693,0.0,0.0,0.0,0.0,0.0,0.0,0.0,-0.5695,-0.582,-0.6122,-0.6378,-0.664,-0.6906,-0.696,-0.7101,-0.7397,-0.7168,0.0,0.0,0.0,0.0,0.0,0.0,0.0,-0.9259,-0.932,-0.9988,-1.1298,-1.1403,-1.1419,-1.1393,-1.0863,-1.069,-1.0778,-0.9494,-0.9206,0.0,0.0,0.0,0.0,-1.0788,-1.0805,0.0,0.0,0.0,0.0,0.0,0.0,0.0,0.0,0.0,0.0,0.0,0.0,0.0,0.0,0.0,0.0,0.0,-1.4024,-1.4393,-1.4367,-1.4233,-1.4037,-1.3676,-1.3509,0.0,-1.291,-1.2847,-1.291,-1.2924,-1.2934,-1.3135,-1.3656,-1.4457,-1.5781,0.0,0.0,0.0,0.0,0.0,0.0,0.0,0.0,0.0,0.0,0.0,0.0,0.0,0.0,0.0,-2.7012,-2.7793,-2.8203,-2.8203,-2.8203,-2.8203,-2.8203,-2.7803,-2.7669,-2.7607,0.0,0.0,0.0,0.0,0.0,0.0,-2.6338,-2.6103,-2.5693,-2.5693,-2.5693,-2.5693,-2.5693,-2.5693,-2.5693,0.0,0.0,0.0,0.0,0.0,0.0,0.0,0.0,0.0,0.0,-0.5878,-0.6032,-0.6345,-0.6579,-0.672,0.0,0.0,0.0,0.0,0.0,0.0,0.0,0.0,0.0,-0.8232,-0.8497,-0.8894,-0.9448,-1.0314,-1.0678,-1.0605,-1.1264,-1.1445,-1.1155,-1.0329,-0.9615,0.0,0.0,0.0,0.0,-1.0585,-1.0673,0.0,0.0,0.0,0.0,-0.8591,-0.8502,0.0,0.0,0.0,0.0,0.0,0.0,0.0,0.0,-0.9241,-0.9512,-0.9913,0.0,-1.141,-1.1032,-1.1186,-1.1436,0.0,-1.2139,-1.2621,-1.2138,-1.2501,-1.2949,-1.3104,-1.3265,-1.3978,-1.5862,-1.6788,-1.8125,0.0,0.0,0.0,0.0,0.0,0.0,0.0,0.0,0.0,0.0,0.0,0.0,0.0,0.0,0.0,-2.7012,-2.7217,-2.7314,-2.7314,-2.7314,-2.7314,-2.7314,-2.7217,-2.7168,-2.7148,0.0,0.0,0.0,0.0,0.0,-2.584,-2.584,-2.5781,-2.5693,-2.5693,-2.5693,-2.5693,-2.5693,-2.5693,-2.5693,0.0,0.0,0.0,0.0,0.0,0.0,0.0,0.0,0.0,0.0,-0.5631,-0.5778,-0.595,-0.6352,-0.6606,0.0,0.0,0.0,0.0,0.0,0.0,0.0,0.0,-0.7625,-0.8351,-0.8527,-0.9101,-1.0045,-1.0767,-1.1095,-1.1048,-1.1312,-1.1217,-1.0805,-0.997,-0.9319,0.0,0.0,0.0,-0.984,-1.0192,0.0,0.0,0.0,0.0,0.0,-0.8231,-0.8257,0.0,-0.8583,-0.8899,-0.9263,0.0,0.0,0.0,0.0,-0.9035,-0.8804,-0.8804,-0.9466,-1.0057,-0.9803,-1.0185,-1.0617,-1.0724,-1.127,-1.1738,-1.1785,-1.2129,-1.2582,-1.3212,-1.3755,-1.4628,-1.6323,-1.7546,0.0,0.0,0.0,0.0,0.0,0.0,0.0,0.0,0.0,0.0,0.0,0.0,0.0,0.0,0.0,0.0,0.0,-2.6376,-2.6621,-2.7012,-2.7012,-2.7012,-2.7012,-2.6816,-2.6728,-2.6709,0.0,0.0,0.0,0.0,0.0,-2.5693,-2.5693,-2.5693,-2.5693,-2.5693,-2.5693,-2.5693,-2.5693,-2.5693,-2.5664,0.0,0.0,0.0,0.0,0.0,0.0,0.0,0.0,0.0,0.0,0.0,0.0,0.0,0.0,0.0,0.0,0.0,0.0,0.0,0.0,0.0,0.0,-0.7,-0.7556,-0.8734,-0.8749,-0.951,-1.1098,-1.1532,-1.1671,-1.1567,-1.1143,-1.0666,-1.0082,-0.9198,-0.8804,-0.8831,0.0,-0.964,-0.9658,-0.971,0.0,0.0,0.0,0.0,0.0,0.0,0.0,0.0,-0.8315,-0.8889,-0.9585,-0.9533,0.0,0.0,0.0,0.0,0.0,-0.8838,-0.9305,-0.9713,-0.9586,-1.0093,-1.0645,-1.0797,-1.0909,-1.1183,-1.1995,-1.2145,-1.2473,-1.3552,-1.447,0.0,-1.6287,0.0,0.0,0.0,0.0,0.0,0.0,0.0,0.0,0.0,0.0,0.0,0.0,0.0,0.0,0.0,0.0,0.0,0.0,-2.5693,-2.6035,-2.6807,-2.6816,-2.6816,-2.6816,-2.6465,-2.6289,-2.6279,-2.5908,0.0,0.0,0.0,0.0,-2.5693,-2.5693,-2.5693,-2.5693,-2.5693,-2.5693,-2.5684,-2.5615,-2.5586,-2.5566,0.0,0.0,0.0,0.0,0.0,0.0,0.0,0.0,0.0,0.0,0.0,0.0,0.0,0.0,0.0,0.0,0.0,0.0,0.0,0.0,0.0,-0.7,-0.7,-0.733,-0.8028,-0.8041,-0.8427,-0.9209,-1.0439,-1.0708,-1.0049,-1.0872,-1.0567,-0.9363,-0.8965,-0.8804,-0.8811,-0.891,-0.8956,-0.8988,0.0,0.0,0.0,0.0,0.0,0.0,0.0,0.0,0.0,-0.7909,-0.8263,-0.8566,-0.8282,0.0,0.0,0.0,0.0,0.0,-0.8944,-0.957,-0.9873,-0.9125,-0.9584,-1.0403,-1.1208,-1.1562,-1.2112,-1.3467,-1.3741,-1.3975,-1.4713,-1.572,-1.6737,0.0,0.0,0.0,0.0,0.0,0.0,0.0,0.0,0.0,0.0,0.0,0.0,0.0,0.0,0.0,0.0,0.0,0.0,0.0,0.0,-2.5752,-2.5888,-2.5888,-2.5888,-2.5888,-2.582,-2.5791,-2.5791,-2.5713,-2.5693,0.0,0.0,-2.5693,-2.5693,-2.5693,-2.5693,-2.5693,-2.5693,-2.5693,-2.5645,-2.5312,-2.5166,-2.5107,0.0,0.0,0.0,0.0,0.0,0.0,0.0,0.0,0.0,0.0,0.0,0.0,0.0,0.0,0.0,0.0,0.0,0.0,0.0,0.0,-0.7073,-0.7255,-0.7261,-0.7475,-0.7899,-0.8218,-0.8585,-0.9011,-0.9986,-1.0292,-0.9913,-1.0264,-0.9924,-0.8978,-0.8871,-0.8804,-0.8798,-0.8644,-0.8571,-0.8576,0.0,0.0,0.0,0.0,0.0,0.0,0.0,0.0,0.0,0.0,-0.8013,-0.8375,-0.8216,0.0,0.0,0.0,0.0,0.0,-0.8617,-0.9171,-0.9557,-0.9345,-1.006,-1.1104,-1.2297,-1.2403,-1.2726,-1.4309,-1.4638,-1.4844,-1.5504,0.0,-1.836,0.0,0.0,0.0,0.0,0.0,0.0,0.0,0.0,0.0,0.0,0.0,0.0,0.0,0.0,0.0,0.0,0.0,0.0,0.0,0.0,0.0,-2.5693,-2.5693,-2.5693,-2.5693,-2.5693,-2.5693,-2.5693,-2.5693,-2.5693,0.0,0.0,-2.5693,-2.5693,-2.5693,-2.5596,-2.5323,-2.4678,-2.4641,-2.5,-2.4795,-2.4188,-2.3494,0.0,0.0,0.0,0.0,0.0,0.0,0.0,0.0,0.0,0.0,0.0,0.0,0.0,0.0,0.0,0.0,0.0,0.0,0.0,-0.68,-0.7054,-0.737,-0.7524,-0.7722,-0.8005,-0.8544,-0.8918,-0.9211,-0.973,-0.998,-0.9877,-0.9686,-0.9265,-0.8704,-0.8704,-0.8664,-0.8591,-0.8363,-0.827,-0.8243,0.0,0.0,0.0,0.0,0.0,0.0,0.0,0.0,0.0,0.0,0.0,0.0,0.0,0.0,0.0,-0.827,-0.8056,-0.7912,-0.8444,-0.8851,-0.9231,-0.9766,-1.0627,-1.1773,-1.347,-1.3534,-1.38,-1.5689,-1.5987,-1.6109,0.0,-1.8144,0.0,0.0,0.0,0.0,0.0,0.0,0.0,0.0,0.0,0.0,0.0,0.0,0.0,0.0,0.0,0.0,0.0,0.0,0.0,0.0,0.0,0.0,-2.5382,-2.5382,-2.5479,-2.5693,-2.5693,-2.5635,-2.5586,-2.5586,-2.5527,-2.5382,-2.5083,-2.4977,-2.4929,-2.4677,-2.4382,-2.3984,-2.3057,-2.3003,-2.34,-2.34,-2.2539,-2.1551,0.0,0.0,0.0,0.0,0.0,0.0,0.0,0.0,0.0,0.0,0.0,0.0,0.0,0.0,0.0,0.0,0.0,0.0,0.0,-0.6626,-0.6754,-0.702,-0.7572,-0.8012,-0.8362,-0.8651,-0.8918,-0.9211,-0.9559,-0.9573,-0.9271,-0.9251,-0.8938,-0.8435,-0.8435,-0.825,-0.7965,-0.7945,-0.7939,-0.7912,-0.7645,0.0,0.0,0.0,0.0,0.0,0.0,0.0,0.0,0.0,0.0,0.0,0.0,0.0,-0.7939,-0.7939,-0.7742,-0.7765,-0.8845,-0.8984,-0.9105,-1.0251,-1.0828,-1.1766,-1.4229,-1.5045,-1.5995,-1.8498,-1.866,-1.8504,-1.8984,-2.0146,0.0,0.0,0.0,0.0,0.0,0.0,0.0,0.0,0.0,0.0,0.0,0.0,0.0,0.0,0.0,0.0,0.0,0.0,0.0,0.0,0.0,0.0,-2.4512,-2.4512,-2.4922,-2.5693,-2.5693,-2.5518,-2.5117,-2.5117,-2.4893,-2.4419,-2.3317,-2.2837,-2.2742,-2.1613,-2.1165,-2.1092,-2.0987,-2.076,-2.0394,-2.0394,-2.0113,-1.9675,0.0,0.0,0.0,0.0,0.0,0.0,0.0,0.0,0.0,0.0,0.0,0.0,0.0,0.0,0.0,0.0,0.0,0.0,0.0,-0.6386,-0.672,-0.6986,-0.7422,-0.7789,-0.8096,-0.8711,-0.9104,-0.9211,-0.9539,-0.9532,-0.9211,-0.9211,-0.8904,-0.8409,-0.8564,-0.8484,-0.8196,-0.7985,-0.7905,-0.7866,-0.7388,-0.7188,0.0,0.0,0.0,0.0,0.0,0.0,0.0,0.0,-0.7337,-0.7511,-0.7625,-0.7776,-0.7905,-0.7905,-0.7709,-0.7672,-0.8477,-0.8858,-0.9244,-1.008,-1.0985,-1.2357,-1.5088,-1.6114,-1.7255,-1.9928,-2.0323,-2.0264,-2.0469,0.0,0.0,0.0,0.0,0.0,0.0,0.0,0.0,0.0,0.0,0.0,0.0,0.0,0.0,0.0,0.0,0.0,0.0,0.0,0.0,0.0,0.0,0.0,0.0,-2.3653,-2.3429,-2.3794,-2.4525,-2.4824,-2.4668,-2.4668,-2.4142,-2.3271,-2.2793,-2.217,-2.144,-2.1002,-2.0629,-2.0348,-2.0077,-1.8933,-1.7613,-1.914,-1.916,-1.8503,0.0,0.0,0.0,0.0,0.0,0.0,0.0,0.0,0.0,0.0,0.0,0.0,0.0,0.0,0.0,0.0,0.0,0.0,-0.5688,-0.6092,-0.644,-0.6734,-0.7121,-0.7428,-0.7619,-0.8492,-0.8984,-0.9078,-0.9399,-0.9392,-0.9078,-0.9078,-0.8844,-0.8409,-0.8584,-0.8504,-0.8216,-0.7909,-0.7782,-0.7719,-0.7206,-0.7,0.0,0.0,0.0,0.0,0.0,0.0,0.0,0.0,-0.7235,-0.7377,-0.7571,-0.7689,-0.7779,-0.7879,-0.7849,-0.7886,-0.8402,-0.8798,-0.9264,-1.006,-1.0964,-1.2428,-1.532,-1.6373,-1.7482,-2.0026,-2.042,-2.0287,-2.0245,0.0,0.0,0.0,0.0,0.0,0.0,0.0,0.0,0.0,0.0,0.0,0.0,0.0,0.0,0.0,0.0,0.0,0.0,0.0,0.0,0.0,0.0,0.0,0.0,-2.203,-2.1611,-2.1611,-2.2455,-2.2935,-2.3019,-2.3019,-2.2528,-2.1611,-2.1237,-2.057,-1.9812,-1.9375,-1.9043,-1.8715,-1.8435,-1.7296,-1.6015,-1.7708,-1.7809,-1.7217,0.0,0.0,0.0,0.0,0.0,0.0,0.0,0.0,0.0,0.0,0.0,0.0,0.0,0.0,0.0,0.0,0.0,0.0,-0.5674,-0.5694,-0.5845,-0.6176,-0.6707,-0.7,-0.7,-0.7903,-0.8536,-0.8804,-0.9064,-0.9058,-0.8804,-0.8804,-0.8651,-0.8395,-0.8402,-0.821,-0.7879,-0.7625,-0.7491,-0.7464,-0.7141,-0.7,-0.7,0.0,0.0,0.0,0.0,0.0,0.0,0.0,-0.7268,-0.7106,-0.7706,-0.7715,-0.7551,-0.7812,-0.8136,-0.8462,-0.8724,-0.8811,-0.9098,-1.0298,-1.0821,-1.1806,-1.4808,-1.5771,-1.6599,-1.8675,-1.8715,-1.838,-1.8251,-1.8294,0.0,0.0,0.0,0.0,0.0,0.0,0.0,0.0,0.0,0.0,0.0,0.0,0.0,0.0,0.0,0.0,0.0,0.0,0.0,0.0,0.0,0.0,0.0,-1.9497,-1.9497,-1.9497,-1.9488,-1.9678,-2.011,-2.011,-1.9873,-1.9405,-1.8234,-1.7684,-1.7598,-1.6339,-1.5784,-1.5784,-1.5784,-1.5784,-1.5784,-1.5784,-1.5784,-1.5784,0.0,0.0,0.0,0.0,0.0,0.0,0.0,0.0,0.0,0.0,0.0,0.0,0.0,0.0,0.0,0.0,0.0,0.0,-0.542,-0.5598,-0.5734,-0.5845,-0.6406,-0.672,-0.672,-0.741,-0.8013,-0.8529,-0.8591,-0.8591,-0.8529,-0.8529,-0.8343,-0.8059,-0.8497,-0.8277,-0.7638,-0.7736,-0.7669,-0.7464,-0.7141,-0.7,-0.7,0.0,0.0,0.0,0.0,0.0,0.0,0.0,0.0,0.0,-0.7213,-0.7499,-0.7769,-0.7642,-0.7993,-0.8415,-0.8502,-0.9105,-0.986,-1.0452,-1.1563,-1.2815,-1.3903,-1.5208,-1.6828,-1.8933,-1.8998,-1.8655,-1.8611,0.0,0.0,0.0,0.0,0.0,0.0,0.0,0.0,0.0,0.0,0.0,0.0,0.0,0.0,0.0,0.0,0.0,0.0,0.0,0.0,0.0,0.0,0.0,0.0,0.0,-1.8226,-1.8234,-1.735,-1.7846,-1.9699,-1.9699,-1.9144,-1.8234,-1.787,-1.7178,-1.6339,-1.5967,-1.5784,-1.5784,-1.5784,-1.5784,-1.5784,-1.5784,-1.5784,-1.5784,0.0,0.0,0.0,0.0,0.0,0.0,0.0,0.0,0.0,0.0,-0.5097,-0.5293,0.0,0.0,0.0,0.0,0.0,0.0,-0.5293,-0.5461,-0.5591,-0.5694,-0.6166,-0.66,-0.6948,-0.7189,-0.7468,-0.7836,-0.8083,-0.8196,-0.8203,-0.8342,-0.8301,-0.813,-0.8597,-0.8444,-0.7859,-0.7879,-0.7749,-0.7464,-0.7141,-0.7,-0.7,0.0,0.0,0.0,0.0,0.0,0.0,0.0,0.0,0.0,-0.6887,-0.716,-0.7506,-0.7348,-0.7832,-0.8476,-0.8824,-0.9492,-1.0327,-1.1243,-1.2268,-1.3253,-1.4135,-1.5156,-1.6344,-1.7743,-1.772,-1.7477,-1.7614,0.0,0.0,0.0,0.0,0.0,0.0,0.0,0.0,0.0,0.0,0.0,0.0,0.0,0.0,0.0,0.0,0.0,0.0,0.0,0.0,0.0,0.0,0.0,0.0,0.0,0.0,-1.6943,-1.6157,-1.656,-1.8033,-1.8033,-1.7623,-1.6943,-1.6943,-1.6527,-1.5784,-1.5784,-1.5784,-1.5784,-1.5784,-1.5784,-1.5784,-1.5784,-1.5784,-1.5784,0.0,0.0,-0.3474,-0.3495,0.0,0.0,0.0,0.0,0.0,-0.4753,-0.5031,-0.5246,0.0,0.0,0.0,-0.523,-0.5198,-0.5198,0.0,-0.523,-0.5365,-0.5648,-0.6003,-0.6592,-0.743,-0.7134,-0.6973,-0.7,-0.7552,-0.7826,-0.7832,-0.8183,-0.8362,-0.8375,-0.8637,-0.8577,-0.8261,-0.7939,-0.7655,-0.7365,-0.7081,-0.696,-0.696,-0.696,0.0,0.0,0.0,0.0,0.0,0.0,0.0,0.0,-0.668,-0.6787,-0.7,-0.6966,-0.7622,-0.8543,-0.9372,-0.9873,-1.0568,-1.2315,-1.2844,-1.338,-1.4983,-1.5378,-1.5478,-1.5718,0.0,-1.5518,0.0,0.0,0.0,0.0,0.0,0.0,0.0,0.0,0.0,0.0,0.0,0.0,0.0,0.0,0.0,0.0,0.0,0.0,0.0,0.0,0.0,0.0,0.0,0.0,0.0,0.0,0.0,0.0,-1.5784,-1.5784,-1.5784,-1.5784,-1.5784,-1.5784,-1.5784,-1.5784,-1.5784,-1.5784,-1.5784,-1.5784,-1.5784,-1.5784,-1.5784,-1.5784,-1.5784,-1.5784,0.0,0.0,-0.3255,-0.3464,0.0,0.0,0.0,0.0,-0.3832,-0.4415,-0.4637,-0.489,-0.5261,-0.4969,0.0,-0.4746,-0.4457,-0.4409,-0.473,-0.4746,-0.4937,-0.5371,-0.5914,-0.6479,-0.7101,-0.6834,-0.6794,-0.7,-0.7133,-0.72,-0.7206,-0.7746,-0.8005,-0.8012,-0.8337,-0.8036,-0.7286,-0.7219,-0.6914,-0.6492,-0.6633,-0.668,-0.668,-0.668,-0.668,0.0,0.0,0.0,0.0,0.0,0.0,0.0,-0.668,-0.6787,-0.696,-0.6747,-0.7321,-0.8145,-0.8818,-0.9713,-1.0807,-1.2078,-1.3273,-1.4302,-1.4961,-1.5237,-1.5478,-1.5718,-1.5731,0.0,0.0,0.0,0.0,0.0,0.0,0.0,0.0,0.0,0.0,0.0,0.0,0.0,0.0,0.0,0.0,0.0,0.0,0.0,0.0,0.0,0.0,0.0,0.0,0.0,-1.5784,-1.5784,-1.5784,0.0,-1.5784,-1.5784,-1.5784,-1.5784,-1.5784,-1.5784,-1.5784,-1.5784,-1.5784,-1.5784,-1.5784,-1.5784,-1.5784,-1.5784,-1.5784,-1.5784,-1.5784,-1.5784,0.0,0.0,0.0,0.0,0.0,0.0,0.0,0.0,-0.3443,-0.3824,-0.4296,-0.4698,-0.4938,-0.4746,0.0,0.0,-0.4231,-0.4091,-0.4296,-0.4489,-0.4784,-0.5181,-0.5627,-0.5914,-0.5997,-0.5704,-0.5793,-0.6282,-0.6282,-0.6616,-0.7241,-0.7692,-0.7985,-0.815,-0.8328,-0.7973,-0.7228,-0.706,-0.6687,-0.6209,-0.6357,-0.6405,-0.6405,-0.6405,-0.6405,-0.6405,-0.6405,0.0,0.0,0.0,0.0,0.0,0.0,0.0,-0.6787,-0.6633,-0.7121,-0.7929,-0.8951,-0.9909,-1.0975,-1.2545,-1.3734,-1.4596,-1.4941,-1.5122,-1.5231,-1.5384,0.0,0.0,0.0,0.0,0.0,0.0,0.0,0.0,0.0,0.0,0.0,0.0,0.0,0.0,0.0,0.0,0.0,0.0,0.0,0.0,0.0,0.0,0.0,0.0,0.0,0.0,-1.5784,-1.5784,-1.5784,-1.5784,-1.5784,-1.5784,-1.5784,-1.5784,-1.5784,-1.5784,-1.5784,-1.5784,-1.5784,-1.5784,-1.5784,-1.5784,-1.5784,-1.5784,-1.5784,-1.5784,-1.5784,-1.5784,0.0,0.0,0.0,0.0,0.0,0.0,0.0,0.0,0.0,-0.3281,-0.3931,-0.4403,-0.4489,-0.4402,-0.4342,0.0,0.0,0.0,-0.3837,-0.4258,-0.4647,-0.4958,-0.5185,-0.5189,-0.4896,-0.4577,-0.4792,-0.5562,-0.5473,-0.6183,-0.7651,-0.7836,-0.809,-0.8395,-0.8342,-0.798,-0.739,-0.7021,-0.654,-0.6048,-0.6095,-0.6115,-0.6115,-0.6115,-0.6115,-0.6115,-0.6115,-0.6115,-0.6169,-0.6492,0.0,0.0,0.0,0.0,-0.6526,-0.6453,-0.6874,-0.7625,-0.8965,-0.9983,-1.1129,-1.3006,-1.3893,-1.4436,-1.4683,-1.4861,-1.4928,-1.4928,0.0,0.0,0.0,0.0,0.0,0.0,0.0,0.0,0.0,0.0,0.0,0.0,0.0,0.0,0.0,0.0,0.0,0.0,0.0,0.0,0.0,0.0,0.0,0.0,0.0,-1.5784,-1.5784,-1.5784,-1.5784,-1.5784,-1.5784,-1.5784,-1.5784,-1.5784,-1.5784,-1.5784,-1.5784,-1.5784,-1.5784,-1.5784,-1.5784,-1.5784,-1.5784,-1.5784,-1.5784,-1.5784,-1.5784,-1.5784,0.0,0.0,0.0,0.0,0.0,0.0,0.0,0.0,0.0,0.0,-0.3398,-0.3621,-0.4037,-0.3614,-0.3292,-0.3292,-0.2927,-0.285,-0.3205,0.0,0.0,-0.4487,-0.4524,-0.4653,-0.4896,-0.4577,-0.4868,-0.5851,-0.5377,-0.6222,-0.8275,-0.8005,-0.809,-0.8389,-0.8103,-0.7626,-0.7026,-0.6526,-0.5967,-0.5434,-0.5671,-0.5772,-0.5772,-0.5772,-0.5772,-0.5772,-0.5772,-0.5772,-0.5858,-0.6406,-0.6606,0.0,0.0,0.0,0.0,-0.5905,-0.6246,-0.6881,-0.7591,-0.934,-1.1243,-1.2583,-1.332,-1.3726,-1.3773,0.0,-1.4583,0.0,0.0,0.0,0.0,0.0,0.0,0.0,0.0,0.0,0.0,0.0,0.0,0.0,0.0,0.0,0.0,0.0,0.0,0.0,0.0,0.0,0.0,0.0,-1.5784,-1.5784,-1.5784,0.0,-1.5784,-1.5784,-1.5784,-1.5784,-1.5784,-1.5784,-1.5784,-1.5784,-1.5784,-1.5784,-1.5784,-1.5784,-1.5784,-1.5784,-1.5784,-1.5784,-1.5784,-1.5784,-1.5784,-1.5784,-1.5784,-1.5784,0.0,0.0,0.0,0.0,0.0,0.0,0.0,0.0,0.0,0.0,0.0,-0.3296,-0.3579,-0.3306,-0.3106,-0.3106,-0.2631,-0.2517,-0.2961,-0.3304,0.0,-0.3674,-0.3744,-0.3744,-0.3664,-0.3517,-0.3972,-0.5059,-0.4825,-0.5805,-0.7886,-0.7885,-0.835,-0.9112,-0.8624,-0.8065,-0.7459,-0.674,-0.6077,-0.5518,-0.5484,-0.5765,-0.6152,-0.5658,-0.5778,-0.6139,-0.5645,-0.5471,-0.5574,-0.6171,-0.6365,-0.6364,-0.6236,0.0,0.0,0.0,-0.6012,-0.6673,-0.8076,-0.9579,-1.1062,-1.2241,-1.2819,-1.3233,-1.3527,-1.3806,0.0,0.0,0.0,0.0,0.0,0.0,0.0,0.0,0.0,0.0,0.0,0.0,0.0,0.0,0.0,0.0,0.0,0.0,0.0,0.0,0.0,0.0,0.0,-1.5745,-1.5784,-1.5784,-1.5784,0.0,-1.5784,-1.5784,-1.5784,-1.5784,-1.5784,-1.5784,-1.5784,-1.5784,-1.5784,-1.5784,-1.5784,-1.5784,-1.5784,-1.5784,-1.5784,-1.5784,-1.5784,-1.5784,-1.5784,-1.5784,-1.5784,-1.5784,0.0,0.0,0.0,0.0,0.0,0.0,0.0,0.0,0.0,0.0,0.0,-0.3005,-0.3131,0.0,0.0,0.0,-0.2434,-0.2316,-0.2695,0.0,0.0,0.0,-0.3071,-0.3,-0.2654,-0.2654,-0.3158,-0.4167,-0.4288,-0.5414,-0.7468,-0.7745,-0.8532,-0.9688,-0.9072,-0.8458,-0.7852,-0.7047,-0.6446,-0.6007,-0.5812,-0.6112,-0.664,-0.6146,-0.6219,-0.6527,-0.594,-0.5581,-0.5494,-0.6102,-0.6256,-0.6177,0.0,0.0,0.0,0.0,0.0,-0.6232,-0.822,-0.9325,-1.0204,-1.1343,-1.2024,-1.2589,0.0,0.0,0.0,0.0,0.0,0.0,0.0,0.0,0.0,0.0,0.0,0.0,0.0,0.0,0.0,0.0,0.0,0.0,0.0,0.0,0.0,0.0,0.0,0.0,-1.5291,-1.5491,-1.5611,-1.5611,-1.5611,-1.5611,-1.5611,-1.5611,-1.5611,-1.5611,-1.5611,-1.5611,-1.5611,-1.5611,-1.5651,-1.5678,-1.5751,-1.5784,-1.5784,-1.5784,-1.5784,-1.5784,-1.5784,-1.5784,-1.5784,-1.5784,-1.5784,-1.5784,0.0,0.0,0.0,0.0,0.0,0.0,0.0,0.0,0.0,0.0,0.0,-0.2587,-0.2712,-0.2437,-0.2249,-0.2249,-0.2096,-0.207,-0.2228,0.0,0.0,0.0,-0.2662,0.0,-0.2515,-0.2511,-0.285,-0.3545,-0.3999,-0.5276,-0.733,-0.7719,-0.8532,-0.9688,-0.9072,-0.8458,-0.7866,-0.7246,-0.696,-0.6933,-0.692,-0.694,-0.704,-0.7566,-0.7286,-0.6618,-0.6841,-0.6379,0.0,0.0,0.0,0.0,-0.5683,-0.5366,-0.5009,0.0,0.0,0.0,-0.7062,-0.7809,-0.8325,-0.9526,-1.0661,-1.1577,0.0,0.0,0.0,0.0,0.0,0.0,0.0,0.0,0.0,0.0,0.0,0.0,0.0,0.0,0.0,0.0,0.0,0.0,0.0,0.0,0.0,0.0,0.0,0.0,-1.5028,-1.5042,-1.5055,-1.5055,-1.5055,-1.5055,-1.5055,-1.5055,-1.5055,-1.5055,-1.5055,-1.5055,-1.5055,-1.5055,-1.5157,-1.5431,-1.5712,-1.5784,-1.5784,-1.5784,-1.5784,-1.5784,-1.5784,-1.5784,-1.5784,-1.5784,-1.5784,-1.5784,0.0,0.0,0.0,0.0,0.0,0.0,0.0,0.0,0.0,0.0,0.0,0.0,0.0,-0.24,-0.2197,-0.2197,-0.1995,0.0,0.0,0.0,0.0,0.0,-0.2471,-0.2585,-0.263,-0.2549,-0.274,-0.3235,-0.3406,-0.4211,-0.557,-0.61,-0.6893,-0.7866,-0.8514,-0.8691,-0.8418,-0.7642,-0.733,-0.733,-0.733,-0.7649,-0.8125,-0.7965,-0.8053,-0.8208,-0.7741,0.0,0.0,0.0,0.0,0.0,-0.6311,-0.5814,-0.518,-0.4266,-0.4565,-0.5371,-0.6236,-0.7179,-0.8145,-0.9124,-0.9963,-1.0729,-1.143,0.0,0.0,0.0,0.0,0.0,0.0,0.0,0.0,0.0,0.0,0.0,0.0,0.0,0.0,0.0,0.0,0.0,0.0,0.0,0.0,0.0,0.0,0.0,-1.4676,-1.4863,-1.5008,-1.5008,-1.5008,-1.5008,-1.5008,-1.5008,-1.5008,-1.5008,-1.5008,-1.5008,-1.5008,-1.5008,-1.5068,-1.5169,-1.5224,-1.5484,-1.5764,-1.5625,-1.5658,-1.5784,-1.5784,-1.5784,-1.5784,-1.5784,-1.5784,-1.5784,0.0,0.0,0.0,-0.1943,0.0,-0.187,-0.187,-0.187,-0.195,-0.2177,0.0,0.0,0.0,0.0,-0.2275,-0.22,-0.1992,-0.187,-0.187,-0.1954,0.0,0.0,0.0,-0.2506,-0.253,-0.2447,-0.2528,-0.2792,-0.3007,-0.352,-0.4348,-0.5036,-0.5723,-0.6401,-0.725,-0.8061,-0.8758,-0.8087,-0.7852,-0.7953,-0.8023,-0.8417,-0.8924,-0.8931,-0.9064,-0.9183,0.0,0.0,0.0,0.0,0.0,0.0,-0.6503,-0.5498,-0.4451,-0.392,-0.4281,-0.4935,-0.5309,-0.6157,-0.7195,0.0,0.0,-0.9459,0.0,0.0,0.0,0.0,0.0,0.0,0.0,0.0,0.0,0.0,0.0,0.0,0.0,0.0,0.0,0.0,0.0,0.0,0.0,0.0,0.0,0.0,0.0,0.0,-1.4376,-1.4563,-1.4713,-1.4713,-1.4713,-1.4713,-1.4713,-1.4713,-1.4713,-1.4713,-1.4713,-1.4713,-1.4713,-1.4713,-1.4767,-1.481,-1.4754,-1.5003,-1.5524,-1.5331,-1.5364,-1.5538,-1.5538,-1.5598,-1.5685,-1.5685,-1.5698,-1.5784,-0.1963,-0.2259,-0.2431,-0.2234,-0.209,-0.2005,-0.2005,-0.2005,-0.2059,-0.2197,0.0,0.0,0.0,0.0,0.0,-0.2231,-0.208,-0.2002,-0.1999,-0.1995,-0.1992,-0.1999,-0.2318,-0.2399,-0.2221,-0.2197,-0.2197,-0.2197,-0.2783,-0.3308,-0.3764,-0.4618,-0.5173,-0.5456,-0.5327,-0.6551,-0.8678,-0.8444,-0.851,-0.8831,-0.9078,-0.9211,-0.9377,-1.0548,-1.0321,0.0,-0.9946,-0.9408,0.0,-0.8746,0.0,0.0,-0.6145,-0.4307,-0.2813,-0.3179,-0.3449,-0.3743,0.0,0.0,0.0,0.0,0.0,0.0,0.0,0.0,0.0,0.0,0.0,0.0,0.0,0.0,0.0,0.0,0.0,0.0,0.0,0.0,0.0,0.0,0.0,0.0,0.0,0.0,0.0,0.0,0.0,-1.4075,-1.4088,-1.4088,-1.4088,-1.4088,-1.4088,-1.4088,-1.4088,-1.4088,-1.4088,-1.4088,-1.4088,-1.4088,-1.4088,-1.4088,-1.4242,-1.4489,-1.4208,-1.4409,-1.4981,-1.4988,-1.5001,-1.5008,-1.5008,-1.5182,-1.5384,-1.5384,-1.5565,-1.5758,-0.1662,-0.2013,-0.2272,-0.2204,-0.2177,-0.2147,-0.2147,-0.2147,-0.2214,0.0,0.0,0.0,-0.2692,-0.2675,-0.2589,-0.2434,-0.2245,-0.21,-0.2005,-0.1906,-0.1892,-0.1992,-0.2181,-0.2327,-0.2421,-0.2279,-0.2197,-0.2197,-0.2267,-0.237,-0.251,-0.2989,-0.364,-0.4412,-0.4471,-0.5266,-0.6561,-0.6587,-0.744,-0.8798,-0.8664,-0.9252,0.0,0.0,0.0,0.0,0.0,-1.0705,-1.018,0.0,-0.8699,-0.7731,0.0,-0.4243,-0.3579,-0.325,-0.3645,-0.4229,-0.4479,0.0,0.0,0.0,0.0,0.0,0.0,0.0,0.0,0.0,0.0,0.0,0.0,0.0,0.0,0.0,0.0,0.0,0.0,0.0,0.0,0.0,0.0,0.0,0.0,0.0,0.0,0.0,0.0,-1.382,-1.4075,-1.4088,-1.4088,-1.4088,-1.4088,-1.4088,-1.4088,-1.4088,-1.4088,-1.4088,-1.4088,-1.4088,-1.4088,-1.4088,-1.4128,-1.4202,-1.4122,-1.4175,-1.4349,-1.4556,-1.477,-1.5008,-1.5008,-1.5062,-1.5129,-1.5129,-1.5182,-1.5204,-0.1617,-0.2069,-0.2427,-0.2475,-0.245,-0.243,-0.2479,-0.245,-0.2476,0.0,0.0,0.0,-0.2859,-0.292,-0.2873,-0.2679,-0.2506,-0.2319,-0.2093,-0.1964,-0.1889,-0.1913,-0.2097,-0.2251,-0.2375,-0.234,-0.2285,-0.2197,-0.2073,-0.1977,-0.192,-0.217,-0.2608,-0.3169,-0.3307,-0.3894,-0.48,-0.4959,-0.6243,-0.8184,-0.8396,0.0,0.0,-0.9838,-0.9991,0.0,0.0,0.0,-1.0392,-0.9292,-0.8203,0.0,0.0,-0.4351,-0.376,-0.342,-0.3709,-0.4157,-0.4177,-0.4967,-0.585,0.0,0.0,0.0,0.0,0.0,0.0,0.0,0.0,0.0,0.0,0.0,0.0,0.0,0.0,0.0,0.0,0.0,0.0,0.0,0.0,0.0,0.0,0.0,0.0,0.0,-1.3561,-1.354,-1.3707,-1.3721,-1.3721,-1.3721,-1.3721,-1.3721,-1.3721,-1.3721,-1.3721,-1.3721,-1.3848,-1.3901,-1.3908,-1.4035,-1.4088,-1.4088,-1.4088,-1.4088,-1.4102,-1.4269,-1.4442,-1.464,-1.464,-1.4669,-1.4776,-1.4776,-1.4901,-1.5008,0.0,-0.2255,-0.2744,-0.2883,-0.2798,-0.2781,-0.2934,-0.2829,-0.2809,0.0,-0.2985,-0.3027,-0.3182,-0.3273,-0.3229,-0.3005,-0.2812,-0.2588,-0.2278,-0.21,-0.1947,-0.1826,-0.207,-0.2187,-0.2174,-0.2385,-0.2389,-0.2174,-0.2063,-0.193,-0.1806,-0.192,-0.1982,-0.2005,-0.2144,-0.2642,-0.3411,-0.3757,-0.5122,-0.7116,-0.7977,-0.8472,0.0,0.0,-0.8652,-0.8537,-0.8767,-0.9288,-0.967,-0.8629,-0.7228,0.0,0.0,-0.4552,-0.374,-0.3672,-0.3764,-0.3853,-0.376,-0.4406,-0.5259,-0.6002,0.0,0.0,-0.7384,-0.7851,0.0,0.0,0.0,0.0,0.0,0.0,0.0,0.0,0.0,0.0,0.0,0.0,0.0,0.0,0.0,0.0,0.0,0.0,0.0,-1.3213,-1.3213,-1.32,-1.316,-1.3193,-1.3213,-1.3213,-1.3213,-1.3213,-1.3213,-1.3213,-1.3213,-1.3213,-1.3427,-1.3553,-1.3567,-1.3901,-1.4041,-1.4041,-1.4075,-1.4088,-1.4088,-1.4088,-1.4088,-1.4088,-1.4088,-1.4249,-1.4476,-1.4476,-1.4636,-1.4908,-0.1378,-0.2108,-0.2744,-0.2883,-0.2883,-0.2954,-0.3265,-0.3134,-0.3134,-0.3433,-0.3471,-0.3551,-0.3792,-0.3659,-0.351,-0.3477,-0.309,-0.2788,-0.2605,-0.2228,-0.1982,-0.1967,-0.2114,-0.2154,-0.2046,-0.2345,-0.2349,-0.2043,-0.2012,-0.193,-0.1803,-0.1822,-0.1892,-0.2005,-0.2144,-0.2377,-0.2768,-0.4005,-0.4854,-0.5433,-0.6326,0.0,-0.9245,-0.856,-0.8659,-0.9133,-0.9173,-0.9313,-0.922,-0.7955,-0.6686,-0.5577,0.0,0.0,-0.4562,-0.4077,-0.4124,-0.4405,-0.4595,-0.5439,-0.624,-0.6076,0.0,0.0,0.0,-0.6558,0.0,0.0,0.0,0.0,0.0,0.0,0.0,0.0,0.0,0.0,0.0,0.0,0.0,0.0,0.0,0.0,0.0,0.0,-1.3213,-1.3213,-1.3213,-1.31,-1.2891,-1.3073,-1.3213,-1.3213,-1.3213,-1.3213,-1.3213,-1.3213,-1.3213,-1.3213,-1.3267,-1.3293,-1.3307,-1.356,-1.3686,-1.37,-1.3981,-1.4088,-1.4088,-1.4088,-1.4088,-1.4088,-1.4088,-1.4122,-1.4168,-1.4168,-1.4208,-1.4262,-0.0995,-0.1725,-0.2427,-0.2661,-0.2866,-0.3141,-0.3535,-0.3467,-0.3459,-0.3758,-0.3866,-0.3917,-0.3987,-0.3887,-0.3741,-0.3614,-0.3324,-0.302,-0.2716,-0.2484,-0.2279,-0.2104,-0.2266,-0.2324,-0.2245,-0.2482,-0.2437,-0.2097,-0.2097,-0.1995,-0.1806,-0.187,-0.2027,-0.2249,-0.2324,-0.251,-0.2857,-0.3777,-0.4438,-0.4966,-0.584,0.0,-0.8015,-0.7359,-0.7379,-0.7821,-0.7821,-0.7821,-0.7749,-0.7344,-0.6472,0.0,0.0,-0.4931,-0.4921,0.0,-0.4575,-0.4708,-0.4695,-0.5624,-0.6585,-0.6554,0.0,0.0,0.0,0.0,0.0,0.0,0.0,0.0,0.0,0.0,0.0,0.0,0.0,0.0,0.0,0.0,0.0,0.0,0.0,0.0,0.0,0.0,-1.2378,-1.2532,-1.2679,-1.2685,-1.2569,-1.2672,-1.2759,-1.2759,-1.2759,-1.2759,-1.2759,-1.2759,-1.2759,-1.2759,-1.2906,-1.27,-1.2198,-1.2515,-1.2391,-1.195,-1.2765,-1.3092,-1.3146,-1.3811,-1.4088,-1.4088,-1.4088,-1.4088,-1.4088,-1.4088,-1.4088,-1.4088,-0.0689,-0.1326,-0.1989,-0.2373,-0.2735,-0.3162,-0.3687,-0.3675,-0.3687,-0.3957,-0.4149,-0.4227,-0.4132,-0.4072,-0.3967,-0.3832,-0.3597,-0.3324,-0.2938,-0.2805,-0.2632,-0.2388,-0.2454,-0.2511,-0.2543,-0.262,-0.2493,-0.2167,-0.2167,-0.2039,-0.1806,-0.1937,-0.2154,-0.2445,-0.2534,-0.2774,-0.3117,-0.3483,0.0,-0.4881,0.0,-0.6161,-0.6529,-0.6104,-0.604,-0.6218,-0.6279,-0.63,-0.6353,-0.6762,0.0,-0.5616,-0.5281,-0.5164,0.0,0.0,0.0,0.0,0.0,0.0,0.0,0.0,0.0,-0.7511,0.0,0.0,0.0,-0.5563,0.0,0.0,0.0,0.0,0.0,0.0,0.0,0.0,0.0,0.0,0.0,0.0,0.0,0.0,0.0,0.0,-1.1294,-1.1757,-1.1784,-1.1929,-1.2211,-1.2218,-1.2245,-1.2305,-1.2114,-1.2114,-1.2305,-1.2114,-1.2114,-1.2305,-1.2388,-1.1961,-1.1124,-1.127,-1.0861,-1.019,-1.1449,-1.2016,-1.2111,-1.3179,-1.3648,-1.3701,-1.3977,-1.4088,-1.4088,-1.4088,-1.4088,-1.4088,-0.0622,-0.1074,-0.1552,-0.2134,-0.2427,-0.2808,-0.351,-0.3614,-0.3687,-0.3957,-0.4263,-0.4511,-0.4599,-0.4351,-0.4287,-0.4545,-0.4085,-0.3744,-0.3666,-0.3174,-0.2905,-0.2996,-0.2672,-0.2563,-0.2669,-0.2568,-0.2362,-0.2022,-0.2022,-0.1947,-0.1806,-0.1937,-0.2086,-0.2251,-0.2663,-0.2954,-0.3125,-0.3593,-0.408,0.0,-0.4787,-0.534,0.0,-0.5741,-0.5728,-0.5891,-0.6201,-0.63,-0.6269,0.0,-0.6053,-0.5868,0.0,-0.546,-0.5457,0.0,0.0,0.0,0.0,0.0,0.0,0.0,-0.7879,0.0,0.0,0.0,-0.6257,-0.4547,0.0,0.0,0.0,0.0,0.0,0.0,0.0,0.0,0.0,0.0,0.0,0.0,0.0,0.0,0.0,0.0,0.0,-1.1361,-1.0546,-1.0576,-1.1877,-1.1953,-1.2037,-1.2291,-1.1428,-1.1391,-1.2298,-1.1428,-1.1428,-1.2298,-1.1422,-1.0942,-1.0804,-1.0219,-0.9862,-0.9833,-1.1187,-1.1749,-1.1749,-1.19,-1.2044,-1.2272,-1.3591,-1.4088,-1.4088,-1.4088,-1.4088,-1.4088,-0.0252,-0.0655,-0.1057,-0.1383,-0.1935,-0.2517,-0.3097,-0.3723,-0.416,-0.4286,-0.4491,-0.4653,-0.4806,-0.4551,-0.4494,-0.4796,0.0,-0.3994,0.0,0.0,-0.3412,-0.3388,-0.312,-0.2961,-0.2937,-0.2723,-0.2454,-0.2114,-0.2043,-0.193,-0.1809,-0.2016,-0.2288,-0.2626,-0.2968,-0.335,-0.3735,0.0,-0.4083,0.0,0.0,0.0,0.0,-0.5609,-0.5861,-0.6122,-0.6252,-0.63,-0.6262,0.0,-0.5898,0.0,0.0,0.0,0.0,0.0,0.0,0.0,0.0,0.0,0.0,0.0,0.0,0.0,0.0,0.0,-0.5265,0.0,0.0,0.0,0.0,0.0,0.0,0.0,0.0,0.0,0.0,0.0,0.0,0.0,0.0,0.0,0.0,0.0,0.0,0.0,0.0,-0.9265,-0.9943,-1.0184,-1.0575,-1.1277,-1.0421,-1.0415,-1.1428,-1.0421,-1.0158,-1.0533,-1.0121,-0.9626,-0.9064,-0.8741,-0.828,-0.7831,-0.971,-1.052,-1.061,-1.1398,-1.1721,-1.1828,-1.2484,-1.2843,-1.3069,-1.3069,-1.3512,-1.4088,0.0,-0.0272,-0.0578,-0.0812,-0.1398,-0.2081,-0.2782,-0.3764,-0.4429,-0.4429,-0.4563,-0.4718,-0.4921,-0.4745,0.0,0.0,-0.4699,-0.4382,0.0,0.0,-0.387,-0.3768,-0.3516,-0.3357,-0.3286,-0.2937,-0.2618,-0.2331,-0.2154,-0.2002,-0.1913,-0.2161,-0.2477,-0.2862,-0.3222,-0.3677,-0.4156,0.0,-0.425,-0.4466,-0.4562,-0.4781,-0.5053,-0.5596,-0.5993,-0.63,-0.63,-0.63,-0.6259,-0.5952,-0.5864,0.0,-0.5817,0.0,0.0,0.0,0.0,0.0,-0.5101,0.0,0.0,0.0,0.0,0.0,0.0,0.0,0.0,0.0,0.0,0.0,0.0,0.0,0.0,0.0,0.0,0.0,0.0,0.0,0.0,0.0,0.0,0.0,0.0,0.0,0.0,0.0,0.0,0.0,-0.8445,-0.8715,-0.9269,-1.0155,-0.9305,-0.9306,-1.0378,-0.9405,-0.9031,-0.9296,-0.9031,-0.8504,-0.7783,-0.7518,-0.6984,-0.6419,-0.835,-0.9184,-0.9238,-1.0224,-1.0812,-1.1067,-1.0788,-1.1241,-1.2128,-1.25,-1.3273,-1.4039,0.0,-0.0017,-0.0168,-0.0623,-0.0842,-0.139,-0.2694,-0.3648,-0.4204,-0.4204,0.0,0.0,0.0,0.0,0.0,0.0,0.0,-0.4948,-0.4687,0.0,-0.418,-0.4174,-0.3805,-0.3658,0.0,-0.3202,-0.2825,-0.2682,-0.2359,-0.2187,-0.2197,-0.2389,-0.2565,-0.273,-0.3327,-0.3741,-0.4021,-0.4354,-0.4701,-0.5059,-0.4928,-0.525,-0.5769,0.0,-0.5993,-0.63,-0.63,0.0,0.0,-0.6074,-0.5986,0.0,0.0,0.0,0.0,0.0,0.0,0.0,0.0,0.0,0.0,-0.5944,0.0,0.0,0.0,0.0,-0.5669,0.0,0.0,0.0,0.0,0.0,-0.5234,-0.5121,0.0,0.0,0.0,0.0,0.0,0.0,0.0,0.0,0.0,0.0,0.0,0.0,0.0,0.0,-0.8131,-0.8231,-0.8521,-0.9119,-0.8121,-0.8147,-0.9334,-0.8351,-0.8351,-0.9296,-0.8313,-0.7821,-0.7783,-0.6795,-0.6338,-0.6377,-0.7407,-0.7868,-0.7868,-0.791,-0.8594,-0.9463,-0.8484,-0.9523,-1.1703,-1.3046,-1.38,-1.3913,0.0,0.0,-0.0055,-0.0214,-0.0529,-0.1247,-0.2689,-0.3305,0.0,0.0,0.0,0.0,0.0,-0.5447,-0.5504,0.0,0.0,-0.5348,-0.518,-0.4857,0.0,0.0,0.0,-0.4018,0.0,0.0,-0.3108,-0.2971,-0.259,-0.2447,-0.253,-0.2506,-0.2671,-0.2991,-0.3419,-0.3877,0.0,0.0,0.0,0.0,0.0,-0.545,-0.5813,0.0,0.0,-0.63,-0.63,-0.63,0.0,-0.6238,-0.6115,-0.6,-0.6088,-0.5932,-0.5728,-0.5728,-0.5627,0.0,0.0,0.0,-0.5689,-0.5453,0.0,0.0,0.0,0.0,0.0,0.0,0.0,0.0,0.0,0.0,-0.4565,-0.451,-0.4147,-0.3802,0.0,0.0,0.0,0.0,0.0,0.0,0.0,0.0,0.0,0.0,0.0,0.0,0.0,-0.6177,-0.6747,-0.7618,-0.6913,-0.7013,-0.8105,-0.7229,-0.6984,-0.7326,-0.6984,-0.6795,-0.6795,-0.6451,-0.63,-0.6338,-0.7365,-0.7783,-0.7783,-0.7783,-0.8009,-0.8331,-0.7987,-0.8452,-0.9483,-1.0708,-1.1717,-1.2361,0.0,0.0,0.0,0.0,0.0,-0.1168,-0.2108,0.0,0.0,0.0,-0.458,0.0,-0.5723,0.0,-0.5766,0.0,-0.5854,-0.5613,-0.5298,-0.5203,0.0,-0.4847,-0.4631,0.0,0.0,0.0,0.0,-0.3358,-0.2777,-0.2515,-0.2516,-0.2211,-0.2217,-0.2489,-0.3095,-0.3633,-0.4096,-0.4573,-0.4891,0.0,0.0,-0.562,0.0,0.0,-0.6125,0.0,0.0,-0.63,-0.63,-0.63,-0.6196,-0.6129,-0.6269,-0.6088,-0.5881,-0.5881,-0.5779,-0.5644,-0.5579,-0.5657,0.0,0.0,-0.5369,0.0,-0.4874,0.0,0.0,0.0,0.0,0.0,0.0,0.0,-0.4281,-0.4204,-0.4011,-0.3802,0.0,0.0,0.0,0.0,0.0,0.0,0.0,0.0,-0.4072,-0.4281,0.0,0.0,0.0,0.0,-0.5571,-0.6334,-0.6039,-0.6211,-0.6945,-0.6466,-0.6245,-0.63,-0.63,-0.63,-0.63,-0.63,-0.63,-0.6338,-0.6984,-0.7249,-0.7249,-0.7249,-0.748,-0.7783,-0.7783,-0.8125,-0.8682,-0.9508,-1.0124,-1.0471,0.0,0.0,0.0,0.0,-0.0575,0.0,0.0,0.0,-0.2521,0.0,-0.3732,-0.4254,-0.561,-0.5751,-0.5808,-0.599,-0.6003,0.0,-0.5181,-0.544,0.0,0.0,-0.4931,-0.4941,-0.4728,0.0,0.0,0.0,-0.2914,-0.2399,-0.216,-0.1567,-0.1311,-0.138,-0.2433,0.0,-0.3358,-0.4458,-0.5094,-0.5419,-0.5538,-0.5772,-0.5993,-0.6,0.0,-0.63,-0.63,-0.63,-0.63,-0.63,-0.63,-0.63,-0.63,-0.6159,-0.6003,-0.5993,-0.5925,-0.581,-0.5803,-0.5806,-0.5779,-0.5637,0.0,0.0,0.0,0.0,-0.5289,0.0,0.0,0.0,0.0,0.0,0.0,-0.4257,-0.4105,-0.3931,0.0,0.0,0.0,0.0,0.0,0.0,0.0,-0.3839,-0.3856,-0.4416,-0.4071,-0.4066,0.0,0.0,0.0,-0.5361,-0.5535,-0.5725,-0.5969,-0.5986,-0.6105,-0.6289,-0.6296,-0.63,-0.63,-0.63,-0.63,-0.63,-0.63,-0.63,-0.63,-0.63,-0.6872,-0.7744,-0.7744,-0.8313,-0.917,-0.949,-0.9065,-0.8332,0.0,0.0,0.0,0.0,-0.0149,-0.0479,0.0,0.0,0.0,0.0,-0.2993,-0.3481,-0.4841,-0.4985,-0.5307,-0.6158,-0.6242,0.0,0.0,0.0,0.0,-0.5521,-0.4641,-0.4469,-0.5189,-0.3911,0.0,-0.343,0.0,-0.2286,-0.1896,-0.1497,-0.1437,-0.1713,-0.2543,-0.3037,-0.3358,-0.4458,-0.5155,-0.5545,-0.5688,-0.5861,0.0,0.0,-0.6265,-0.63,-0.63,-0.63,-0.63,-0.63,-0.63,-0.63,-0.63,-0.6272,-0.6179,-0.6027,-0.5966,-0.5945,-0.5833,-0.5884,-0.5899,-0.5786,-0.5745,-0.5688,0.0,0.0,0.0,0.0,0.0,0.0,0.0,0.0,0.0,-0.446,-0.4257,-0.4099,0.0,0.0,0.0,0.0,0.0,0.0,0.0,-0.3755,-0.3924,-0.3986,-0.4041,0.0,0.0,0.0,0.0,-0.5026,-0.5396,-0.5627,-0.5701,-0.5885,-0.6013,-0.6091,-0.6245,-0.63,-0.63,-0.63,-0.63,-0.63,-0.63,-0.63,-0.63,-0.63,-0.6451,-0.6683,-0.6683,-0.6834,-0.718,-0.7987,-0.7729,-0.6991,0.0,0.0,0.0,0.0,0.0,0.0,-0.057,0.0,0.0,-0.2095,-0.2214,0.0,-0.3887,-0.4011,-0.4256,-0.4844,-0.4882,0.0,-0.4567,0.0,0.0,-0.4351,-0.3735,-0.3678,-0.4193,-0.3228,0.0,-0.2815,0.0,-0.1718,-0.1388,-0.0952,-0.0834,-0.1041,-0.1794,-0.2427,-0.3053,-0.4405,-0.5233,-0.5603,-0.5745,0.0,0.0,-0.6265,-0.63,-0.63,-0.63,-0.63,-0.63,-0.63,-0.63,-0.63,-0.63,-0.63,-0.6282,-0.6156,-0.6132,-0.6112,-0.6027,-0.6064,-0.6108,-0.6023,-0.6003,-0.5945,-0.5732,-0.5694,-0.5661,0.0,0.0,0.0,0.0,0.0,0.0,-0.4402,-0.422,0.0,0.0,0.0,0.0,0.0,0.0,0.0,0.0,-0.3617,-0.3792,-0.3726,-0.3917,0.0,0.0,0.0,0.0,0.0,-0.5223,-0.5454,-0.5589,-0.5755,-0.5901,-0.5993,-0.6118,-0.6235,-0.63,-0.63,-0.63,-0.63,-0.63,-0.63,-0.63,-0.63,-0.63,-0.63,-0.63,-0.63,-0.6377,-0.6945,-0.685,-0.6443,0.0,0.0,0.0,0.0,0.0,0.0,0.0,0.0,0.0,-0.1253,0.0,-0.1773,-0.2779,-0.2916,-0.2946,-0.3074,0.0,-0.3006,-0.2771,-0.2953,-0.2933,-0.2593,-0.2694,-0.2734,-0.2717,-0.2424,0.0,0.0,0.0,-0.0982,-0.0775,-0.0241,0.0,-0.0039,-0.0767,0.0,0.0,-0.427,-0.5186,0.0,-0.5626,-0.5814,-0.6103,-0.6103,-0.5983,-0.5867,-0.5867,-0.606,-0.63,-0.63,-0.63,-0.63,-0.63,-0.63,-0.63,-0.63,-0.6286,-0.6269,-0.6269,-0.6269,-0.6269,-0.6269,-0.6286,-0.6224,-0.5898,-0.5735,-0.5644,-0.5623,-0.5291,0.0,0.0,0.0,0.0,0.0,0.0,0.0,0.0,0.0,0.0,0.0,0.0,0.0,0.0,0.0,-0.3614,-0.3554,0.0,0.0,0.0,0.0,0.0,0.0,-0.5026,0.0,-0.5555,0.0,-0.5718,-0.5936,-0.5952,-0.6081,-0.6269,-0.6269,-0.6279,-0.63,-0.63,-0.63,-0.63,-0.63,-0.63,-0.63,-0.63,-0.63,-0.63,-0.63,-0.63,-0.632,0.0,0.0,0.0,0.0,0.0,0.0,0.0,0.0,-0.0072,-0.0259,-0.0271,-0.0683,-0.1756,-0.1866,-0.2193,-0.3016,-0.3091,0.0,0.0,0.0,0.0,-0.2993,-0.2238,-0.2142,-0.2866,-0.1763,-0.1263,0.0,-0.1115,-0.0663,-0.0147,-0.004,0.0,-0.0039,-0.0767,0.0,-0.3582,-0.3773,0.0,-0.5704,-0.4998,-0.4833,-0.496,-0.496,-0.4414,-0.3669,-0.3669,-0.4805,-0.63,-0.63,-0.63,-0.63,-0.63,-0.63,-0.63,-0.63,-0.6169,-0.6071,-0.6071,-0.6071,-0.6071,-0.6071,-0.6166,-0.6252,-0.603,-0.5932,-0.5918,-0.5789,-0.561,-0.5457,-0.5443,0.0,0.0,0.0,0.0,0.0,0.0,0.0,0.0,0.0,0.0,0.0,0.0,0.0,0.0,0.0,0.0,0.0,0.0,0.0,0.0,0.0,0.0,0.0,0.0,0.0,0.0,-0.5667,-0.5786,-0.5922,-0.6071,-0.6071,-0.6139,-0.63,-0.63,-0.63,-0.63,-0.63,-0.63,-0.63,-0.63,-0.63,-0.63,-0.63,-0.63,-0.632,0.0,0.0,0.0,0.0,0.0,0.0,0.0,0.0,0.0,0.0,0.0,-0.02,-0.0729,-0.078,-0.0955,-0.1468,-0.1496,-0.1479,-0.1502,-0.1501,-0.1485,-0.1488,-0.1046,0.0,-0.1397,-0.0772,-0.0491,-0.0617,-0.0506,-0.0284,0.0,0.0,0.0,-0.004,-0.0761,-0.1594,0.0,0.0,0.0,-0.4171,-0.3821,-0.3747,-0.3865,-0.3865,-0.3552,-0.3085,-0.3085,-0.3748,-0.4727,-0.5276,-0.5473,-0.555,-0.6141,-0.63,-0.63,-0.63,-0.6245,-0.6031,-0.5492,-0.5724,-0.6015,-0.5367,-0.5701,-0.6101,-0.5945,-0.5449,-0.5072,-0.5108,-0.4952,-0.4879,-0.5169,-0.5067,0.0,0.0,0.0,0.0,0.0,0.0,0.0,0.0,0.0,0.0,0.0,0.0,0.0,0.0,0.0,0.0,0.0,0.0,0.0,0.0,0.0,0.0,0.0,0.0,0.0,-0.5589,-0.5657,-0.581,-0.5993,-0.5993,-0.6115,-0.63,-0.63,-0.63,-0.63,-0.63,-0.63,-0.63,-0.63,-0.63,-0.63,-0.63,-0.63,-0.631,0.0,0.0,0.0,0.0,0.0,0.0,0.0,0.0,0.0,0.0,0.0,0.0,0.0,0.0,0.0,0.0,0.0,0.0,0.0,0.0,0.0,0.0,0.0,0.0,0.0,0.0,0.0,0.0,0.0,0.0,0.0,0.0,0.0,-0.0043,0.0,0.0,0.0,0.0,-0.2415,-0.2743,-0.2651,-0.2691,-0.2773,-0.2773,-0.2656,-0.2422,-0.2422,-0.2422,-0.2617,-0.3673,-0.4178,-0.453,-0.5628,-0.5944,-0.6022,-0.6219,-0.6118,-0.5742,-0.4884,-0.5274,-0.5669,-0.4699,-0.5101,-0.568,-0.5506,-0.4672,-0.3958,-0.4086,-0.3895,-0.3881,-0.4449,-0.4496,0.0,0.0,0.0,0.0,0.0,0.0,0.0,0.0,0.0,0.0,0.0,0.0,0.0,0.0,0.0,0.0,0.0,0.0,0.0,0.0,0.0,0.0,-0.5096,0.0,-0.5453,0.0,-0.5542,-0.5694,-0.5942,-0.5942,-0.6084,-0.63,-0.63,-0.63,-0.63,-0.63,-0.63,-0.63,-0.63,-0.63,-0.63,-0.63,-0.63,-0.63,0.0,0.0,0.0,0.0,0.0,0.0,0.0,0.0,0.0,0.0,0.0,0.0,0.0,0.0,0.0,0.0,0.0,0.0,0.0,0.0,0.0,0.0,0.0,0.0,0.0,0.0,0.0,0.0,0.0,0.0,0.0,0.0,0.0,-0.0026,0.0,0.0,0.0,-0.1238,-0.1866,-0.2817,-0.2046,-0.172,-0.1723,-0.1723,-0.1137,-0.0275,-0.0275,-0.0275,-0.0471,-0.1528,-0.2503,-0.3435,-0.453,-0.4844,-0.504,-0.6025,-0.5539,-0.4645,-0.4533,-0.4608,-0.4582,-0.4288,-0.452,-0.4723,-0.4428,-0.367,-0.2982,-0.2881,-0.2855,-0.2821,-0.2745,-0.2846,-0.3069,0.0,0.0,0.0,0.0,0.0,0.0,0.0,0.0,0.0,0.0,0.0,0.0,0.0,0.0,0.0,0.0,0.0,0.0,0.0,0.0,-0.4958,-0.5096,-0.5284,0.0,-0.5416,-0.5416,-0.5573,-0.5823,-0.5823,-0.5983,-0.63,-0.63,-0.63,-0.63,-0.63,-0.63,-0.63,-0.63,-0.63,-0.63,-0.63,-0.63,-0.63,0.0,0.0,0.0,0.0,0.0,0.0,0.0,0.0,0.0,0.0,0.0,0.0,0.0,0.0,0.0,0.0,0.0,0.0,0.0,0.0,0.0,0.0,0.0,0.0,0.0,0.0,0.0,0.0,0.0,0.0,0.0,0.0,0.0,0.0,0.0,-0.048,-0.0519,-0.0469,-0.0706,-0.1136,-0.0777,-0.0628,-0.0628,-0.0628,-0.0392,0.0,0.0,0.0,-0.0079,-0.051,-0.1332,-0.2386,-0.3398,-0.3748,-0.3826,-0.4256,-0.4033,-0.354,-0.2927,-0.3196,-0.3469,-0.2677,-0.3036,-0.3561,-0.3342,-0.2586,-0.1935,-0.1879,-0.1876,-0.2003,-0.2541,-0.259,-0.2673,0.0,0.0,0.0,0.0,0.0,0.0,0.0,0.0,0.0,0.0,0.0,0.0,0.0,0.0,-0.2287,-0.2728,0.0,0.0,-0.3939,0.0,-0.4914,-0.4972,-0.5272,-0.5395,-0.5395,-0.5395,-0.5504,-0.5677,-0.5762,-0.5969,-0.63,-0.63,-0.63,-0.63,-0.63,-0.63,-0.63,-0.63,-0.63,-0.63,-0.63,-0.63,-0.63,0.2325,0.0,0.0629,0.0,0.0477,0.013,0.0491,0.0225,0.0,0.0,0.0,0.0,0.0,0.0,0.0,0.0,0.0,0.0,0.0,0.0,0.0,0.0,0.0,0.0,0.0,0.0,0.0,0.0,0.0,0.0,0.0,0.0,0.0,0.0,0.0,0.0,0.0,0.0,0.0,0.0,0.0,0.0,0.0,0.0,0.0,0.0,0.0,0.0,0.0,0.0,-0.051,-0.1293,-0.2345,-0.2657,-0.2735,-0.3007,-0.289,-0.2579,-0.2152,-0.2347,-0.2516,-0.1931,-0.2156,-0.2476,-0.233,-0.1584,-0.0906,-0.0906,-0.0906,-0.1107,-0.1776,-0.1815,-0.1858,0.0,0.0,0.0,0.0,0.0,0.0,0.0,-0.1427,-0.1192,0.0,0.0,0.0,0.0,0.0,-0.1307,-0.2205,0.0,0.0,0.0,0.0,0.0,0.0,0.0,-0.5395,-0.5395,-0.5395,-0.5477,-0.5596,-0.5783,-0.601,-0.63,-0.63,-0.63,-0.63,-0.63,-0.63,-0.63,-0.63,-0.63,-0.63,-0.63,-0.63,-0.63,0.358,0.2597,0.2135,0.3334,0.1566,0.0404,0.1612,0.0762,0.0,0.0,0.0,0.0,0.0,0.0,0.0,0.0,0.0,0.0,0.0,0.0,0.0,0.0,0.0,0.0,0.0,0.0,0.0,0.0,0.0,0.0,0.0,0.0,0.0,0.0,0.0,0.0,0.0,0.0,0.0,0.0,0.0,0.0,0.0,0.0,0.0,0.0,0.0,0.0,0.0,0.0,0.0,-0.0196,-0.1293,-0.1607,-0.1802,-0.2813,-0.2386,-0.1841,-0.2813,-0.2347,-0.1831,-0.2657,-0.2258,-0.1552,-0.137,-0.0651,0.0,0.0,0.0,-0.0034,-0.0034,-0.0034,-0.0264,-0.0996,0.0,0.0,0.0,0.0,0.0,0.0,-0.1107,-0.0805,-0.0084,0.0,0.0,0.0,0.0,0.0,0.0,0.0,0.0,-0.2539,-0.4078,0.0,-0.5096,-0.5284,-0.5395,-0.5395,-0.5395,-0.5477,-0.5599,-0.5891,-0.6112,-0.63,-0.63,-0.63,-0.63,-0.63,-0.63,-0.63,-0.63,-0.63,-0.63,-0.63,-0.63,-0.63,0.4814,0.3846,0.3145,0.3522,0.2948,0.2324,0.1879,0.1478,0.0942,0.009,0.0,0.0,0.0,0.0,0.0,0.0,0.0,0.0,0.0,0.0,0.0,0.0,0.0,0.0,0.0,0.0,0.0,0.0,0.0,0.0,0.0,0.0,0.0,0.0,0.0,0.0,0.0,0.0,0.0,0.0,0.0,0.0,0.0,0.0,0.0,0.0,0.0,0.0,0.0,0.0,0.0,-0.0079,-0.0392,-0.051,-0.0588,-0.0902,-0.0745,-0.0588,-0.0902,-0.0745,-0.0585,-0.0837,-0.0705,-0.0506,-0.0423,-0.0206,0.0,0.0,0.0,0.0,0.0,0.0,-0.0067,-0.032,0.0,0.0,0.0,0.0,0.0,0.0,0.0,-0.0246,0.0,0.0,0.0,0.0,0.0,0.0,0.0,0.0,0.0,0.0,-0.3466,0.0,-0.4226,-0.5019,-0.5395,-0.5395,-0.4755,-0.4594,-0.4873,-0.5538,-0.6013,-0.6261,-0.5512,-0.5198,-0.5198,-0.5198,-0.5198,-0.5276,-0.6025,-0.63,-0.63,-0.63,-0.63,-0.63,0.6027,0.5087,0.4429,0.4959,0.4216,0.3535,0.3252,0.2427,0.1522,0.0762,0.0269,0.0,0.0,0.0404,0.0,0.0045,0.0,0.0,0.0,0.0,0.0,0.0,0.0,0.0,0.0,0.0,0.0,0.0,0.0,0.0,0.0,0.0,0.0,0.0,0.0,0.0,0.0,0.0,0.0,0.0,0.0,0.0,0.0,0.0,0.0,0.0,0.0,0.0,0.0,0.0,0.0,0.0,0.0,0.0,0.0,0.0,0.0,-0.0079,-0.051,-0.0314,-0.0078,-0.05,-0.0301,0.0,0.0,0.0,0.0,0.0,0.0,0.0,0.0,0.0,0.0,0.0,0.0,0.0,0.0,0.0,0.0,0.0,0.0,0.0,0.0,0.0,0.0,0.0,0.0,0.0,0.0,0.0,0.0,-0.1735,-0.277,0.0,-0.3387,-0.4045,-0.4386,-0.4386,-0.3782,-0.3856,-0.4527,-0.5072,-0.5442,-0.567,-0.5002,-0.4491,-0.41,-0.41,-0.41,-0.4217,-0.5276,-0.5709,-0.5709,-0.5709,-0.5709,-0.5628,0.7109,0.6263,0.0,0.0,0.5445,0.0,0.5433,0.3589,0.2022,0.1843,0.0855,0.009,0.0,0.1077,0.1344,0.0225,0.0,0.0,0.0,0.0135,0.009,0.0,0.0,0.0,0.0,0.0,0.0,0.0,0.0,0.0,0.0,0.0,0.0,0.0,0.0,0.0,0.0,0.0,0.0,0.0,0.0,0.0,0.0,0.0,0.0,0.0,0.0,0.0,0.0,0.0,0.0,0.0,0.0,0.0,0.0,0.0,0.0,-0.0236,-0.1215,-0.0745,-0.0236,-0.1254,-0.0732,0.0,0.0,0.0,0.0,0.0,0.0,0.0,0.0,0.0,0.0,0.0,0.0,0.0,0.0,0.0,0.0,0.0,0.0,0.0,0.0,0.0,0.0,0.0,0.0,0.0,0.0,0.0,-0.1074,-0.1199,-0.1996,-0.2476,-0.2609,-0.2678,-0.2678,-0.2611,-0.2683,-0.3277,-0.4311,-0.4354,-0.4479,-0.4569,-0.453,-0.3906,-0.3007,-0.3007,-0.3007,-0.3085,-0.4178,-0.4569,-0.4569,-0.4569,-0.4569,-0.4453,0.0,0.0,0.7041,0.7473,0.7044,0.6467,0.5837,0.5253,0.4163,0.2204,0.1713,0.1147,0.0092,0.1085,0.17,0.1388,0.2236,0.237,0.1433,0.1389,0.0941,0.0045,0.0,0.0,0.0,0.0,0.0,0.0,0.0,0.0,0.0,0.0,0.0,0.0,0.0,0.0,0.0,0.0,0.0,0.0,0.0,0.0,0.0,0.0,0.0,0.0,0.0,0.0,0.0,0.0,0.0,0.0,0.0,0.0,0.0,0.0,0.0,-0.0039,-0.0314,-0.0196,-0.0079,-0.0314,-0.0193,0.0,0.0,0.0,0.0,0.0,0.0,0.0,0.0,0.0,0.0,0.0,0.0,0.0,0.0,0.0,0.0,0.0,0.0,0.0,0.0,0.0,0.0,0.0,0.0,0.0,0.0,0.0,-0.028,-0.0308,-0.1142,-0.1598,-0.1641,-0.2344,-0.2344,-0.1641,-0.236,-0.2567,-0.2324,-0.2962,-0.3341,-0.3435,-0.2659,-0.2192,-0.1957,-0.1957,-0.1957,-0.2074,-0.3086,-0.3474,-0.3474,-0.3474,-0.3474,-0.3435,0.7458,0.7475,0.7522,0.7672,0.7641,0.7382,0.6813,0.62,0.531,0.394,0.2732,0.1966,0.1824,0.2361,0.2932,0.3493,0.3592,0.3303,0.2681,0.2637,0.2325,0.1656,0.1121,0.0807,0.0807,0.0269,0.0,0.0,0.0,0.0,0.0,0.0,0.0,0.0,0.0,0.0,0.0,0.0,0.0,0.0,0.0,0.0,0.0,0.0,0.0,0.0,0.0,0.0,0.0,0.0,0.0,0.0,0.0,0.0,0.0,0.0,0.0,0.0,0.0,0.0,0.0,0.0,0.0,0.0,0.0,0.0,0.0,0.0,0.0,0.0,0.0,0.0,0.0,0.0,0.0,0.0,0.0,0.0,0.0,0.0,0.0,0.0,0.0,0.0,0.0,0.0,0.0,0.0,0.0,0.0,0.0,0.0,-0.0454,-0.0695,-0.0706,-0.1208,-0.1208,-0.0706,-0.1208,-0.1525,-0.1601,-0.2089,-0.2332,-0.2386,-0.1841,-0.1333,-0.0863,-0.0863,-0.0863,-0.098,-0.1995,-0.2425,-0.2425,-0.2425,-0.2425,-0.2347,0.7628,0.7631,0.7678,0.7821,0.7746,0.7706,0.7828,0.6864,0.6074,0.5836,0.3966,0.2961,0.3912,0.4042,0.4524,0.5563,0.4734,0.4088,0.3883,0.3881,0.3792,0.3614,0.2637,0.2057,0.2057,0.1076,0.0539,0.0539,0.0353,0.0265,0.0269,0.0088,0.0,0.0,0.0,0.0,0.0,0.0,0.0,0.0,0.0,0.0,0.0,0.0,0.0,0.0,0.0,0.0,0.0,0.0,0.0,0.0,0.0,0.0,0.0,0.0,0.0,0.0,0.0,0.0,0.0,0.0,0.0,0.0,0.0,0.0,0.0,0.0,0.0,0.0,0.0,0.0,0.0,0.0,0.0,0.0,0.0,0.0,0.0,0.0,0.0,0.0,0.0,0.0,0.0,0.0,0.0,0.0,0.0,0.0,0.0,0.0,0.0,0.0,0.0,0.0,0.0,0.0,0.0,-0.0464,-0.1347,-0.135,-0.1346,-0.1372,-0.1372,-0.0824,0.0,0.0,0.0,-0.0079,-0.102,-0.1372,-0.1372,-0.1372,-0.1372,-0.1215,0.7753,0.7777,0.7828,0.7928,0.7934,0.7928,0.7951,0.7783,0.727,0.6124,0.5647,0.501,0.4089,0.4886,0.5588,0.5761,0.65,0.6443,0.5191,0.5134,0.4688,0.3659,0.3436,0.3303,0.3303,0.3126,0.3037,0.3037,0.2007,0.1518,0.1478,0.0492,0.0,0.0,0.0,0.0,0.0,0.0,0.0,0.0,0.0,0.0,0.0,0.0,0.0,0.0,0.0,0.0,0.0,0.0,0.0,0.0,0.0,0.0,0.0,0.0,0.0,0.0,0.0,0.0,0.0,0.0,0.0,0.0,0.0,0.0,0.0,0.0,0.0,0.0,0.0,0.0,0.0,0.0,0.0,0.0,0.0,0.0,0.0,0.0,0.0,0.0,0.0,0.0,0.0,0.0,0.0,0.0,0.0,0.0,0.0,0.0,0.0,0.0,0.0,0.0,0.0,0.0,0.0,-0.0073,-0.0255,-0.0229,-0.0235,-0.0235,-0.0235,-0.0157,0.0,0.0,0.0,0.0,-0.0196,-0.0235,-0.0235,-0.0235,-0.0235,-0.0236,0.7874,0.7884,0.7907,0.7978,0.7988,0.7988,0.7988,0.7988,0.7786,0.7132,0.6432,0.6051,0.615,0.6002,0.6187,0.6798,0.7372,0.7382,0.6618,0.6603,0.6325,0.5769,0.507,0.4334,0.3616,0.3614,0.3614,0.3614,0.3037,0.2769,0.2769,0.2191,0.1924,0.1924,0.1924,0.1924,0.1924,0.1924,0.1924,0.1879,0.121,0.0986,0.0897,0.0269,0.0,0.0,0.0,0.0,0.0,0.0,0.0,0.0,0.0,0.0,0.0,0.0,0.0,0.0,0.0,0.0,0.0,0.0,0.0,0.0,0.0,0.0,0.0,0.0,0.0,0.0,0.0,0.0,0.0,0.0,0.0,0.0,0.0,0.0,0.0,0.0,0.0,0.0,0.0,0.0,0.0,0.0,0.0,0.0,0.0,0.0,0.0,0.0,0.0,0.0,0.0,0.0,0.0,0.0,0.0,0.0,0.0,0.0,0.0,0.0,0.0,0.0,0.0,0.0,0.0,0.0,0.0,0.0,0.0,0.0,0.0,0.0,0.7988,0.7988,0.7988,0.7988,0.7988,0.7988,0.7988,0.7988,0.7988,0.7988,0.7083,0.6883,0.7889,0.7083,0.6842,0.7774,0.7865,0.7818,0.7709,0.7702,0.7672,0.7604,0.6598,0.5573,0.4574,0.4527,0.4516,0.4493,0.4179,0.4036,0.4016,0.3748,0.3614,0.3614,0.3614,0.3614,0.3614,0.3614,0.3614,0.3525,0.2592,0.2057,0.1701,0.0762,0.0225,0.0,0.0,0.0,0.0,0.0,0.0,0.0,0.0,0.0,0.0045,0.0352,0.0597,0.07,0.0163,0.0,0.0,0.0,0.0,0.0,0.0,0.0,0.0,0.0,0.0,0.0,0.0,0.0,0.0,0.0,0.0,0.0,0.0,0.0477,0.0552,0.0323,0.0298,0.0236,0.0034,0.0,0.0,0.0,0.0,0.0,0.0,0.0,0.0,0.0,0.0,0.0,0.0,0.0,0.0,0.0,0.0,0.0,0.0,0.0,0.0,0.0,0.0,0.0,0.0,0.0,0.0,0.0,0.0,0.0,0.0,0.0,0.0,0.0,0.7988,0.7988,0.7988,0.7988,0.7988,0.7988,0.7988,0.7988,0.7988,0.7988,0.7889,0.7889,0.7988,0.7889,0.7882,0.7975,0.7971,0.7968,0.7958,0.7958,0.7837,0.7611,0.7493,0.7389,0.7329,0.7329,0.726,0.7122,0.6022,0.5373,0.5225,0.4105,0.3614,0.3614,0.3614,0.3614,0.3614,0.3614,0.3614,0.3614,0.3481,0.2814,0.179,0.1701,0.0986,0.0,0.0,0.0,0.0,0.0,0.0,0.0,0.0,0.0,0.0224,0.1341,0.246,0.2864,0.0617,0.0,0.0,0.0,0.0,0.0,0.0,0.0,0.0,0.0,0.0,0.0,0.0,0.0,0.0,0.0,0.0,0.0,0.1215,0.1937,0.2183,0.1292,0.122,0.0873,0.0067,0.0,0.0,0.0,0.0,0.0,0.0,0.0,0.0,0.0,0.0,0.0,0.0,0.0,0.0,0.0,0.0,0.0,0.0,0.0,0.0,0.0,0.0,0.0,0.0,0.0,0.0,0.0,0.0,0.0,0.0,0.0,0.0,0.0,0.7988,0.7988,0.7988,0.7988,0.7988,0.7988,0.7988,0.7988,0.7988,0.7988,0.7988,0.7988,0.7988,0.7988,0.7988,0.7988,0.7988,0.7988,0.7988,0.7988,0.7897,0.774,0.7729,0.7689,0.76,0.76,0.757,0.7512,0.7044,0.6827,0.6777,0.6308,0.6075,0.6075,0.6075,0.6075,0.6075,0.6075,0.6075,0.6029,0.5284,0.4682,0.422,0.3435,0.2371,0.1349,0.2108,0.1826,0.1095,0.1125,0.1121,0.0986,0.0225,0.0,0.0225,0.1433,0.2667,0.3421,0.2472,0.2155,0.2103,0.2044,0.1505,0.098,0.098,0.0471,0.0,0.0,0.0,0.0,0.0,0.0526,0.0994,0.0995,0.0,0.2328,0.2399,0.2568,0.2584,0.2335,0.1716,0.1173,0.0839,0.0303,0.0,0.0,0.0,0.0,0.0,0.0,0.0,0.0,0.0,0.0,0.0,0.0,0.0,0.0,0.0,0.0,0.0,0.0,0.0,0.0,0.0,0.0,0.0,0.0,0.0,0.0,0.0,0.0,0.0,0.0,0.0,0.0,0.7988,0.7988,0.7988,0.7988,0.7988,0.7988,0.7988,0.7988,0.7988,0.7988,0.7988,0.7988,0.7988,0.7988,0.7988,0.7988,0.7988,0.7988,0.7988,0.7988,0.7941,0.7885,0.7882,0.7838,0.774,0.774,0.7712,0.7665,0.7665,0.7645,0.76,0.76,0.76,0.76,0.76,0.76,0.76,0.76,0.76,0.755,0.6691,0.6117,0.569,0.4886,0.375,0.2753,0.3553,0.3257,0.2509,0.2474,0.2451,0.2303,0.1448,0.1442,0.1836,0.2683,0.3749,0.4714,0.4695,0.4596,0.4326,0.3493,0.2721,0.2133,0.2078,0.1254,0.051,0.051,0.0236,0.0117,0.0422,0.1109,0.1706,0.2032,0.2823,0.3444,0.3515,0.362,0.3584,0.3346,0.2641,0.2096,0.1776,0.1208,0.074,0.0437,0.0404,0.0303,0.0,0.0,0.0,0.0,0.0,0.0,0.0,0.0,0.0,0.0,0.0,0.0,0.0,0.0,0.0,0.0,0.0,0.0,0.0,0.0,0.0,0.0,0.0,0.0,0.0,0.0,0.0,0.0,0.7988,0.7988,0.7988,0.7988,0.7988,0.7988,0.7988,0.7988,0.7988,0.7988,0.7988,0.7988,0.7988,0.7988,0.7988,0.7988,0.7988,0.7988,0.7988,0.7988,0.7988,0.7988,0.7988,0.7988,0.7988,0.7988,0.7917,0.7814,0.7814,0.774,0.7604,0.7604,0.7604,0.7604,0.7604,0.7604,0.7604,0.7604,0.7604,0.7604,0.7604,0.6885,0.5834,0.5834,0.5077,0.4038,0.4036,0.4036,0.4036,0.4036,0.3935,0.3823,0.3821,0.454,0.5403,0.5403,0.6204,0.7095,0.7095,0.6994,0.6342,0.393,0.332,0.3297,0.3142,0.2347,0.1607,0.1607,0.0784,0.0353,0.1411,0.1607,0.1943,0.2956,0.3918,0.4514,0.4509,0.5254,0.5386,0.4341,0.4223,0.3797,0.282,0.2711,0.231,0.1374,0.1307,0.094,0.0067,0.0,0.0,0.0,0.0,0.0,0.0,0.0,0.0,0.0,0.0,0.0,0.0,0.0,0.0,0.0,0.0,0.0,0.0,0.0,0.0,0.0,0.0,0.0,0.0,0.0,0.0,0.0,0.7988,0.7988,0.7988,0.7988,0.7988,0.7988,0.7988,0.7988,0.7988,0.7988,0.7988,0.7988,0.7988,0.7988,0.7988,0.7988,0.7988,0.7988,0.7988,0.7988,0.7988,0.7988,0.7988,0.7988,0.7988,0.7988,0.7968,0.7921,0.7921,0.7901,0.786,0.786,0.786,0.786,0.786,0.786,0.786,0.786,0.786,0.786,0.786,0.7661,0.7358,0.7358,0.6522,0.5525,0.637,0.6051,0.5266,0.5242,0.5242,0.5015,0.4116,0.454,0.5403,0.5403,0.6204,0.7095,0.7095,0.7065,0.6857,0.6026,0.51,0.4404,0.4372,0.348,0.2657,0.2657,0.2384,0.2267,0.2579,0.3283,0.3859,0.418,0.4952,0.5595,0.573,0.5788,0.5715,0.5484,0.4711,0.4132,0.3996,0.3183,0.2654,0.2582,0.2475,0.1966,0.0967,0.0898,0.0628,0.0036,0.0,0.0,0.0,0.0,0.0,0.0,0.0,0.0,0.0,0.0,0.0,0.0,0.0,0.0,0.0,0.0,0.0,0.0,0.0,0.0,0.0,0.0,0.0,0.0,0.7988,0.7988,0.7988,0.7988,0.7988,0.7988,0.7988,0.7988,0.7988,0.7988,0.7988,0.7988,0.7988,0.7988,0.7988,0.7988,0.7988,0.7988,0.7988,0.7988,0.7988,0.7988,0.7988,0.7988,0.7988,0.7988,0.7988,0.7988,0.7988,0.7988,0.7988,0.7988,0.7988,0.7988,0.7988,0.7988,0.7988,0.7988,0.7988,0.7988,0.7988,0.7988,0.7988,0.7988,0.7487,0.6872,0.7635,0.7358,0.6654,0.6674,0.6613,0.6451,0.558,0.57,0.6194,0.6194,0.6605,0.7095,0.7095,0.7095,0.7075,0.6991,0.632,0.5685,0.5633,0.4673,0.3801,0.3801,0.3418,0.324,0.3671,0.4256,0.4844,0.5276,0.579,0.6156,0.6286,0.6139,0.5996,0.599,0.5355,0.4938,0.4997,0.4367,0.3853,0.3655,0.3218,0.2694,0.2057,0.2022,0.1787,0.1236,0.1236,0.1243,0.1218,0.1238,0.0808,0.0,0.0,0.0,0.0,0.0,0.0,0.0,0.0,0.0,0.0,0.0,0.0,0.0,0.0,0.0,0.0,0.0,0.0,0.0,0.8038,0.7988,0.7988,0.7988,0.7988,0.7988,0.7988,0.7988,0.7988,0.7988,0.7988,0.7988,0.7988,0.7988,0.7988,0.7988,0.7988,0.7988,0.7988,0.7988,0.7988,0.7988,0.7988,0.7988,0.7988,0.7988,0.7988,0.7988,0.7988,0.7988,0.7988,0.7988,0.7988,0.7988,0.7988,0.7988,0.7988,0.7988,0.7988,0.7988,0.7988,0.7988,0.7988,0.7988,0.7988,0.7988,0.7988,0.7988,0.7988,0.7988,0.7887,0.7787,0.7658,0.7512,0.7436,0.7419,0.7272,0.7112,0.7098,0.7095,0.7095,0.7095,0.7001,0.6866,0.6756,0.5861,0.5074,0.5063,0.4176,0.3717,0.4649,0.4844,0.5157,0.6141,0.63,0.63,0.63,0.63,0.6248,0.6067,0.6,0.5942,0.5854,0.584,0.5499,0.4673,0.3817,0.3316,0.3243,0.3243,0.3174,0.3107,0.3107,0.3106,0.3104,0.3104,0.2159,0.0266,0.0266,0.0269,0.0275,0.0275,0.0235,0.0157,0.0157,0.0079,0.0,0.0,0.0,0.0,0.0,0.0,0.0,0.0,0.0,0.0,0.8187,0.7988,0.7988,0.7988,0.7988,0.7988,0.7988,0.7988,0.7988,0.7988,0.7988,0.7988,0.7988,0.7988,0.7988,0.7988,0.7988,0.7988,0.7988,0.7988,0.7988,0.7988,0.7988,0.7988,0.7988,0.7988,0.7988,0.7988,0.7988,0.7988,0.7988,0.7988,0.7988,0.7988,0.7988,0.7988,0.7988,0.7988,0.7988,0.7988,0.7988,0.7988,0.7988,0.7988,0.7988,0.7988,0.7988,0.7988,0.7988,0.7988,0.7887,0.7804,0.7773,0.7668,0.7526,0.7453,0.735,0.7295,0.7129,0.7095,0.7095,0.7095,0.7071,0.7014,0.6869,0.6592,0.6286,0.6173,0.5959,0.579,0.5925,0.5944,0.6025,0.6261,0.63,0.63,0.63,0.63,0.6286,0.6252,0.6105,0.6064,0.619,0.6201,0.5986,0.5561,0.5432,0.5044,0.4256,0.4182,0.3843,0.3113,0.3114,0.3084,0.31,0.31,0.2868,0.2442,0.2442,0.241,0.2423,0.2423,0.1995,0.1254,0.1254,0.0784,0.0,0.0,0.0,0.0,0.0,0.0,0.0,0.0,0.0,0.0,0.8283,0.7988,0.8187,0.8825,0.897,0.897,0.897,0.897,0.8726,0.8088,0.7988,0.8237,0.8874,0.8382,0.7988,0.7988,0.7988,0.7988,0.7988,0.7988,0.7988,0.7988,0.7988,0.7988,0.7988,0.7988,0.7988,0.7988,0.7988,0.7988,0.7988,0.7988,0.7988,0.7988,0.7988,0.7988,0.7988,0.7988,0.7988,0.7988,0.7988,0.7988,0.7988,0.7988,0.7988,0.7988,0.7988,0.7988,0.7988,0.7988,0.7938,0.787,0.787,0.7821,0.7685,0.7604,0.7533,0.7448,0.7292,0.7251,0.7234,0.7112,0.7095,0.7078,0.7004,0.6873,0.6787,0.6705,0.663,0.6536,0.6429,0.6402,0.6378,0.631,0.63,0.63,0.63,0.63,0.63,0.63,0.619,0.6173,0.6293,0.63,0.6231,0.6071,0.6095,0.5907,0.5407,0.5366,0.5128,0.4647,0.4608,0.4608,0.4608,0.4608,0.4608,0.4608,0.3593,0.3085,0.3085,0.3085,0.2813,0.2308,0.2308,0.1995,0.1488,0.1488,0.1488,0.1488,0.1488,0.1488,0.1488,0.1488,0.1175,0.0706,0.8577,0.8333,0.8775,1.0096,1.0337,1.0337,1.0337,1.0337,0.9948,0.8821,0.8676,0.9069,1.019,0.9312,0.8676,0.8676,0.8482,0.8333,0.8333,0.8137,0.7988,0.7988,0.7988,0.7988,0.7988,0.7988,0.7988,0.7988,0.7988,0.7988,0.7988,0.7988,0.7988,0.7988,0.7988,0.7988,0.7988,0.7988,0.7988,0.7988,0.7988,0.7988,0.7988,0.7988,0.7988,0.7988,0.7988,0.7988,0.7988,0.7988,0.7988,0.7988,0.7988,0.7901,0.7845,0.7818,0.7729,0.7604,0.7451,0.7436,0.7343,0.721,0.7115,0.7095,0.7095,0.7004,0.6916,0.6889,0.6827,0.6695,0.6539,0.6552,0.6504,0.6361,0.6337,0.6327,0.6303,0.63,0.63,0.63,0.63,0.63,0.63,0.63,0.63,0.63,0.63,0.63,0.63,0.63,0.63,0.63,0.63,0.63,0.63,0.63,0.63,0.6261,0.4491,0.3632,0.3632,0.3632,0.3552,0.3357,0.3357,0.3279,0.3085,0.3085,0.3085,0.3085,0.3085,0.3085,0.3085,0.3085,0.2462,0.1489,0.9998,0.9706,1.0145,1.1414,1.1653,1.1653,1.1653,1.1653,1.1556,1.1409,1.1365,1.1458,1.1604,1.1458,1.1365,1.1365,1.0386,0.9706,0.9706,0.8627,0.7988,0.7988,0.7988,0.7988,0.7988,0.7988,0.7988,0.7988,0.7988,0.7988,0.7988,0.7988,0.7988,0.7988,0.7988,0.7988,0.7988,0.7988,0.7988,0.7988,0.7988,0.7988,0.7988,0.7988,0.7988,0.7988,0.7988,0.7988,0.7988,0.7988,0.7988,0.7988,0.7988,0.7975,0.7934,0.7848,0.7797,0.775,0.7607,0.7472,0.7412,0.7346,0.7241,0.7095,0.7095,0.7082,0.7034,0.691,0.6869,0.6851,0.6698,0.6668,0.662,0.6508,0.6484,0.6439,0.6317,0.63,0.63,0.63,0.63,0.63,0.63,0.63,0.63,0.63,0.63,0.63,0.63,0.63,0.63,0.63,0.63,0.63,0.63,0.63,0.63,0.63,0.6022,0.5867,0.5867,0.5867,0.5354,0.4491,0.4491,0.3943,0.3085,0.3085,0.3085,0.3085,0.3085,0.3085,0.3085,0.3085,0.2462,0.1723,1.1312,1.1072,1.1458,1.2813,1.3006,1.3006,1.3006,1.3006,1.277,1.1994,1.1896,1.2188,1.2958,1.3006,1.2721,1.1945,1.1414,1.0779,1.0047,0.946,0.8775,0.8038,0.7988,0.7988,0.7988,0.7988,0.7988,0.7988,0.7988,0.7988,0.7988,0.7988,0.7988,0.7988,0.7988,0.7988,0.7988,0.7988,0.7988,0.7988,0.7988,0.7988,0.7988,0.7988,0.7988,0.7988,0.7988,0.7988,0.7988,0.7988,0.7988,0.7988,0.7988,0.7988,0.7975,0.7911,0.7891,0.7906,0.7756,0.7668,0.7577,0.7456,0.7319,0.7248,0.7115,0.7095,0.7078,0.7014,0.7004,0.696,0.6854,0.6827,0.6776,0.6624,0.66,0.6549,0.6439,0.6419,0.6388,0.631,0.63,0.63,0.63,0.63,0.63,0.63,0.63,0.63,0.63,0.63,0.63,0.63,0.63,0.63,0.63,0.63,0.63,0.63,0.63,0.63,0.63,0.63,0.6025,0.5589,0.5589,0.5315,0.4882,0.4882,0.4882,0.4882,0.4882,0.4882,0.4805,0.4217,0.3711,0.3322]}]]